<?xml version="1.0" encoding="UTF-8" standalone="no" ?>
<gpx xmlns="http://www.topografix.com/GPX/1/1" xmlns:xsi="http://www.w3.org/2001/XMLSchema-instance" xsi:schemaLocation="http://www.topografix.com/GPX/1/1 http://www.topografix.com/GPX/1/1/gpx.xsd" version="1.1" creator="VisuGPX - https://www.visugpx.com">
  <metadata>
    <name>Sun Trip 2019</name>
    <desc><![CDATA[Le parcours du Sun Trip 2019]]></desc>
  </metadata>
  <trk>
    <name><![CDATA[J9bis]]></name>
    <trkseg>
      <trkpt lat="45.71663" lon="6.94709">
        <ele>1454</ele>
        <time>2019-04-21T17:50:51Z</time>
      </trkpt>
      <trkpt lat="45.71674" lon="6.94662">
        <ele>1454</ele>
        <time>2019-04-21T17:51:51Z</time>
      </trkpt>
      <trkpt lat="45.71673" lon="6.94654">
        <ele>1454</ele>
        <time>2019-04-21T17:52:51Z</time>
      </trkpt>
      <trkpt lat="45.71668" lon="6.94642">
        <ele>1455</ele>
        <time>2019-04-21T17:53:51Z</time>
      </trkpt>
      <trkpt lat="45.71657" lon="6.94627">
        <ele>1456</ele>
        <time>2019-04-21T17:54:51Z</time>
      </trkpt>
      <trkpt lat="45.71531" lon="6.94521">
        <ele>1466</ele>
        <time>2019-04-21T17:55:51Z</time>
      </trkpt>
      <trkpt lat="45.71409" lon="6.94452">
        <ele>1475</ele>
        <time>2019-04-21T17:56:51Z</time>
      </trkpt>
      <trkpt lat="45.71381" lon="6.94421">
        <ele>1477</ele>
        <time>2019-04-21T17:57:51Z</time>
      </trkpt>
      <trkpt lat="45.71311" lon="6.94336">
        <ele>1485</ele>
        <time>2019-04-21T17:58:51Z</time>
      </trkpt>
      <trkpt lat="45.71309" lon="6.9433">
        <ele>1486</ele>
        <time>2019-04-21T17:59:51Z</time>
      </trkpt>
      <trkpt lat="45.7131" lon="6.94323">
        <ele>1486</ele>
        <time>2019-04-21T18:00:51Z</time>
      </trkpt>
      <trkpt lat="45.71337" lon="6.94279">
        <ele>1488</ele>
        <time>2019-04-21T18:01:51Z</time>
      </trkpt>
      <trkpt lat="45.71398" lon="6.9424">
        <ele>1493</ele>
        <time>2019-04-21T18:02:51Z</time>
      </trkpt>
      <trkpt lat="45.71412" lon="6.94236">
        <ele>1494</ele>
        <time>2019-04-21T18:03:51Z</time>
      </trkpt>
      <trkpt lat="45.71422" lon="6.94237">
        <ele>1494</ele>
        <time>2019-04-21T18:04:51Z</time>
      </trkpt>
      <trkpt lat="45.71451" lon="6.94249">
        <ele>1493</ele>
        <time>2019-04-21T18:05:51Z</time>
      </trkpt>
      <trkpt lat="45.71458" lon="6.94248">
        <ele>1493</ele>
        <time>2019-04-21T18:06:51Z</time>
      </trkpt>
      <trkpt lat="45.71474" lon="6.94235">
        <ele>1496</ele>
        <time>2019-04-21T18:07:51Z</time>
      </trkpt>
      <trkpt lat="45.71482" lon="6.94231">
        <ele>1498</ele>
        <time>2019-04-21T18:08:51Z</time>
      </trkpt>
      <trkpt lat="45.71499" lon="6.9423">
        <ele>1499</ele>
        <time>2019-04-21T18:09:51Z</time>
      </trkpt>
      <trkpt lat="45.71568" lon="6.94254">
        <ele>1495</ele>
        <time>2019-04-21T18:10:51Z</time>
      </trkpt>
      <trkpt lat="45.71574" lon="6.9425">
        <ele>1497</ele>
        <time>2019-04-21T18:11:51Z</time>
      </trkpt>
      <trkpt lat="45.71575" lon="6.94242">
        <ele>1499</ele>
        <time>2019-04-21T18:12:51Z</time>
      </trkpt>
      <trkpt lat="45.71574" lon="6.94237">
        <ele>1501</ele>
        <time>2019-04-21T18:13:51Z</time>
      </trkpt>
      <trkpt lat="45.71568" lon="6.94232">
        <ele>1502</ele>
        <time>2019-04-21T18:14:51Z</time>
      </trkpt>
      <trkpt lat="45.71554" lon="6.94229">
        <ele>1502</ele>
        <time>2019-04-21T18:15:51Z</time>
      </trkpt>
      <trkpt lat="45.71532" lon="6.94219">
        <ele>1504</ele>
        <time>2019-04-21T18:16:51Z</time>
      </trkpt>
      <trkpt lat="45.71511" lon="6.94206">
        <ele>1505</ele>
        <time>2019-04-21T18:17:51Z</time>
      </trkpt>
      <trkpt lat="45.7146" lon="6.94171">
        <ele>1508</ele>
        <time>2019-04-21T18:18:51Z</time>
      </trkpt>
      <trkpt lat="45.71405" lon="6.94152">
        <ele>1508</ele>
        <time>2019-04-21T18:19:51Z</time>
      </trkpt>
      <trkpt lat="45.71399" lon="6.94149">
        <ele>1508</ele>
        <time>2019-04-21T18:20:51Z</time>
      </trkpt>
      <trkpt lat="45.71391" lon="6.9414">
        <ele>1509</ele>
        <time>2019-04-21T18:21:51Z</time>
      </trkpt>
      <trkpt lat="45.71363" lon="6.9405">
        <ele>1519</ele>
        <time>2019-04-21T18:22:51Z</time>
      </trkpt>
      <trkpt lat="45.71357" lon="6.94034">
        <ele>1520</ele>
        <time>2019-04-21T18:23:51Z</time>
      </trkpt>
      <trkpt lat="45.71352" lon="6.94026">
        <ele>1519</ele>
        <time>2019-04-21T18:24:51Z</time>
      </trkpt>
      <trkpt lat="45.71337" lon="6.94006">
        <ele>1518</ele>
        <time>2019-04-21T18:25:51Z</time>
      </trkpt>
      <trkpt lat="45.71308" lon="6.93973">
        <ele>1519</ele>
        <time>2019-04-21T18:26:51Z</time>
      </trkpt>
      <trkpt lat="45.71303" lon="6.93961">
        <ele>1520</ele>
        <time>2019-04-21T18:27:51Z</time>
      </trkpt>
      <trkpt lat="45.71304" lon="6.93956">
        <ele>1521</ele>
        <time>2019-04-21T18:28:51Z</time>
      </trkpt>
      <trkpt lat="45.71307" lon="6.93954">
        <ele>1522</ele>
        <time>2019-04-21T18:29:51Z</time>
      </trkpt>
      <trkpt lat="45.71314" lon="6.93954">
        <ele>1524</ele>
        <time>2019-04-21T18:30:51Z</time>
      </trkpt>
      <trkpt lat="45.71368" lon="6.9399">
        <ele>1528</ele>
        <time>2019-04-21T18:31:51Z</time>
      </trkpt>
      <trkpt lat="45.71403" lon="6.94028">
        <ele>1528</ele>
        <time>2019-04-21T18:32:51Z</time>
      </trkpt>
      <trkpt lat="45.71444" lon="6.94057">
        <ele>1530</ele>
        <time>2019-04-21T18:33:51Z</time>
      </trkpt>
      <trkpt lat="45.7148" lon="6.9407">
        <ele>1533</ele>
        <time>2019-04-21T18:34:51Z</time>
      </trkpt>
      <trkpt lat="45.71492" lon="6.94078">
        <ele>1532</ele>
        <time>2019-04-21T18:35:51Z</time>
      </trkpt>
      <trkpt lat="45.71506" lon="6.94091">
        <ele>1532</ele>
        <time>2019-04-21T18:36:51Z</time>
      </trkpt>
      <trkpt lat="45.71528" lon="6.94122">
        <ele>1529</ele>
        <time>2019-04-21T18:37:51Z</time>
      </trkpt>
      <trkpt lat="45.71535" lon="6.94129">
        <ele>1529</ele>
        <time>2019-04-21T18:38:51Z</time>
      </trkpt>
      <trkpt lat="45.71543" lon="6.94131">
        <ele>1530</ele>
        <time>2019-04-21T18:39:51Z</time>
      </trkpt>
      <trkpt lat="45.7155" lon="6.94128">
        <ele>1532</ele>
        <time>2019-04-21T18:40:51Z</time>
      </trkpt>
      <trkpt lat="45.71553" lon="6.94118">
        <ele>1535</ele>
        <time>2019-04-21T18:41:51Z</time>
      </trkpt>
      <trkpt lat="45.71551" lon="6.94109">
        <ele>1537</ele>
        <time>2019-04-21T18:42:51Z</time>
      </trkpt>
      <trkpt lat="45.7151" lon="6.94047">
        <ele>1545</ele>
        <time>2019-04-21T18:43:51Z</time>
      </trkpt>
      <trkpt lat="45.71499" lon="6.94035">
        <ele>1545</ele>
        <time>2019-04-21T18:44:51Z</time>
      </trkpt>
      <trkpt lat="45.71482" lon="6.94021">
        <ele>1545</ele>
        <time>2019-04-21T18:45:51Z</time>
      </trkpt>
      <trkpt lat="45.71458" lon="6.9402">
        <ele>1541</ele>
        <time>2019-04-21T18:46:51Z</time>
      </trkpt>
      <trkpt lat="45.71448" lon="6.94016">
        <ele>1540</ele>
        <time>2019-04-21T18:47:51Z</time>
      </trkpt>
      <trkpt lat="45.71434" lon="6.93996">
        <ele>1541</ele>
        <time>2019-04-21T18:48:51Z</time>
      </trkpt>
      <trkpt lat="45.71406" lon="6.93966">
        <ele>1544</ele>
        <time>2019-04-21T18:49:51Z</time>
      </trkpt>
      <trkpt lat="45.7139" lon="6.93942">
        <ele>1547</ele>
        <time>2019-04-21T18:50:51Z</time>
      </trkpt>
      <trkpt lat="45.71376" lon="6.93918">
        <ele>1549</ele>
        <time>2019-04-21T18:51:51Z</time>
      </trkpt>
      <trkpt lat="45.71364" lon="6.93895">
        <ele>1552</ele>
        <time>2019-04-21T18:52:51Z</time>
      </trkpt>
      <trkpt lat="45.7134" lon="6.93839">
        <ele>1561</ele>
        <time>2019-04-21T18:53:51Z</time>
      </trkpt>
      <trkpt lat="45.71298" lon="6.93761">
        <ele>1566</ele>
        <time>2019-04-21T18:54:51Z</time>
      </trkpt>
      <trkpt lat="45.71283" lon="6.93741">
        <ele>1566</ele>
        <time>2019-04-21T18:55:51Z</time>
      </trkpt>
      <trkpt lat="45.71262" lon="6.93725">
        <ele>1563</ele>
        <time>2019-04-21T18:56:51Z</time>
      </trkpt>
      <trkpt lat="45.71214" lon="6.9368">
        <ele>1558</ele>
        <time>2019-04-21T18:57:51Z</time>
      </trkpt>
      <trkpt lat="45.71206" lon="6.93671">
        <ele>1557</ele>
        <time>2019-04-21T18:58:51Z</time>
      </trkpt>
      <trkpt lat="45.71203" lon="6.93664">
        <ele>1558</ele>
        <time>2019-04-21T18:59:51Z</time>
      </trkpt>
      <trkpt lat="45.71202" lon="6.93649">
        <ele>1560</ele>
        <time>2019-04-21T19:00:51Z</time>
      </trkpt>
      <trkpt lat="45.71204" lon="6.93641">
        <ele>1562</ele>
        <time>2019-04-21T19:01:51Z</time>
      </trkpt>
      <trkpt lat="45.71211" lon="6.93629">
        <ele>1566</ele>
        <time>2019-04-21T19:02:51Z</time>
      </trkpt>
      <trkpt lat="45.71223" lon="6.93626">
        <ele>1569</ele>
        <time>2019-04-21T19:03:51Z</time>
      </trkpt>
      <trkpt lat="45.71248" lon="6.93647">
        <ele>1573</ele>
        <time>2019-04-21T19:04:51Z</time>
      </trkpt>
      <trkpt lat="45.71295" lon="6.93672">
        <ele>1581</ele>
        <time>2019-04-21T19:05:51Z</time>
      </trkpt>
      <trkpt lat="45.71311" lon="6.93683">
        <ele>1583</ele>
        <time>2019-04-21T19:06:51Z</time>
      </trkpt>
      <trkpt lat="45.71316" lon="6.93689">
        <ele>1583</ele>
        <time>2019-04-21T19:07:51Z</time>
      </trkpt>
      <trkpt lat="45.71326" lon="6.93711">
        <ele>1582</ele>
        <time>2019-04-21T19:08:51Z</time>
      </trkpt>
      <trkpt lat="45.71344" lon="6.93759">
        <ele>1579</ele>
        <time>2019-04-21T19:09:51Z</time>
      </trkpt>
      <trkpt lat="45.7135" lon="6.93757">
        <ele>1581</ele>
        <time>2019-04-21T19:10:51Z</time>
      </trkpt>
      <trkpt lat="45.71351" lon="6.93752">
        <ele>1582</ele>
        <time>2019-04-21T19:11:51Z</time>
      </trkpt>
      <trkpt lat="45.71351" lon="6.93745">
        <ele>1583</ele>
        <time>2019-04-21T19:12:51Z</time>
      </trkpt>
      <trkpt lat="45.71334" lon="6.93695">
        <ele>1586</ele>
        <time>2019-04-21T19:13:51Z</time>
      </trkpt>
      <trkpt lat="45.71309" lon="6.93633">
        <ele>1589</ele>
        <time>2019-04-21T19:14:51Z</time>
      </trkpt>
      <trkpt lat="45.71296" lon="6.93591">
        <ele>1591</ele>
        <time>2019-04-21T19:15:51Z</time>
      </trkpt>
      <trkpt lat="45.71267" lon="6.93528">
        <ele>1593</ele>
        <time>2019-04-21T19:16:51Z</time>
      </trkpt>
      <trkpt lat="45.71252" lon="6.93505">
        <ele>1592</ele>
        <time>2019-04-21T19:17:51Z</time>
      </trkpt>
      <trkpt lat="45.71224" lon="6.9347">
        <ele>1588</ele>
        <time>2019-04-21T19:18:51Z</time>
      </trkpt>
      <trkpt lat="45.71202" lon="6.93432">
        <ele>1587</ele>
        <time>2019-04-21T19:19:51Z</time>
      </trkpt>
      <trkpt lat="45.71189" lon="6.93396">
        <ele>1587</ele>
        <time>2019-04-21T19:20:51Z</time>
      </trkpt>
      <trkpt lat="45.71163" lon="6.93298">
        <ele>1590</ele>
        <time>2019-04-21T19:21:51Z</time>
      </trkpt>
      <trkpt lat="45.71134" lon="6.93203">
        <ele>1602</ele>
        <time>2019-04-21T19:22:51Z</time>
      </trkpt>
      <trkpt lat="45.71129" lon="6.93193">
        <ele>1603</ele>
        <time>2019-04-21T19:23:51Z</time>
      </trkpt>
      <trkpt lat="45.711" lon="6.93158">
        <ele>1608</ele>
        <time>2019-04-21T19:24:51Z</time>
      </trkpt>
      <trkpt lat="45.71087" lon="6.93127">
        <ele>1612</ele>
        <time>2019-04-21T19:25:51Z</time>
      </trkpt>
      <trkpt lat="45.71076" lon="6.93096">
        <ele>1619</ele>
        <time>2019-04-21T19:26:51Z</time>
      </trkpt>
      <trkpt lat="45.71069" lon="6.93086">
        <ele>1622</ele>
        <time>2019-04-21T19:27:51Z</time>
      </trkpt>
      <trkpt lat="45.71059" lon="6.93085">
        <ele>1625</ele>
        <time>2019-04-21T19:28:51Z</time>
      </trkpt>
      <trkpt lat="45.71053" lon="6.93089">
        <ele>1627</ele>
        <time>2019-04-21T19:29:51Z</time>
      </trkpt>
      <trkpt lat="45.71048" lon="6.93098">
        <ele>1627</ele>
        <time>2019-04-21T19:30:51Z</time>
      </trkpt>
      <trkpt lat="45.71043" lon="6.9312">
        <ele>1627</ele>
        <time>2019-04-21T19:31:51Z</time>
      </trkpt>
      <trkpt lat="45.71041" lon="6.93179">
        <ele>1622</ele>
        <time>2019-04-21T19:32:51Z</time>
      </trkpt>
      <trkpt lat="45.71036" lon="6.93216">
        <ele>1622</ele>
        <time>2019-04-21T19:33:51Z</time>
      </trkpt>
      <trkpt lat="45.71029" lon="6.93225">
        <ele>1625</ele>
        <time>2019-04-21T19:34:51Z</time>
      </trkpt>
      <trkpt lat="45.71002" lon="6.93244">
        <ele>1635</ele>
        <time>2019-04-21T19:35:51Z</time>
      </trkpt>
      <trkpt lat="45.70996" lon="6.93256">
        <ele>1637</ele>
        <time>2019-04-21T19:36:51Z</time>
      </trkpt>
      <trkpt lat="45.70978" lon="6.93337">
        <ele>1636</ele>
        <time>2019-04-21T19:37:51Z</time>
      </trkpt>
      <trkpt lat="45.70965" lon="6.93371">
        <ele>1636</ele>
        <time>2019-04-21T19:38:51Z</time>
      </trkpt>
      <trkpt lat="45.70952" lon="6.93394">
        <ele>1638</ele>
        <time>2019-04-21T19:39:51Z</time>
      </trkpt>
      <trkpt lat="45.70942" lon="6.93416">
        <ele>1639</ele>
        <time>2019-04-21T19:40:51Z</time>
      </trkpt>
      <trkpt lat="45.70939" lon="6.93418">
        <ele>1640</ele>
        <time>2019-04-21T19:41:51Z</time>
      </trkpt>
      <trkpt lat="45.70936" lon="6.93417">
        <ele>1641</ele>
        <time>2019-04-21T19:42:51Z</time>
      </trkpt>
      <trkpt lat="45.70936" lon="6.93401">
        <ele>1643</ele>
        <time>2019-04-21T19:43:51Z</time>
      </trkpt>
      <trkpt lat="45.70966" lon="6.93304">
        <ele>1644</ele>
        <time>2019-04-21T19:44:51Z</time>
      </trkpt>
      <trkpt lat="45.70968" lon="6.93288">
        <ele>1645</ele>
        <time>2019-04-21T19:45:51Z</time>
      </trkpt>
      <trkpt lat="45.70967" lon="6.93247">
        <ele>1650</ele>
        <time>2019-04-21T19:46:51Z</time>
      </trkpt>
      <trkpt lat="45.70957" lon="6.93164">
        <ele>1658</ele>
        <time>2019-04-21T19:47:51Z</time>
      </trkpt>
      <trkpt lat="45.7096" lon="6.93143">
        <ele>1659</ele>
        <time>2019-04-21T19:48:51Z</time>
      </trkpt>
      <trkpt lat="45.7097" lon="6.9311">
        <ele>1656</ele>
        <time>2019-04-21T19:49:51Z</time>
      </trkpt>
      <trkpt lat="45.70977" lon="6.93073">
        <ele>1655</ele>
        <time>2019-04-21T19:50:51Z</time>
      </trkpt>
      <trkpt lat="45.70978" lon="6.93043">
        <ele>1656</ele>
        <time>2019-04-21T19:51:51Z</time>
      </trkpt>
      <trkpt lat="45.70979" lon="6.93026">
        <ele>1656</ele>
        <time>2019-04-21T19:52:51Z</time>
      </trkpt>
      <trkpt lat="45.70976" lon="6.93023">
        <ele>1657</ele>
        <time>2019-04-21T19:53:51Z</time>
      </trkpt>
      <trkpt lat="45.70969" lon="6.93024">
        <ele>1660</ele>
        <time>2019-04-21T19:54:51Z</time>
      </trkpt>
      <trkpt lat="45.70967" lon="6.93029">
        <ele>1661</ele>
        <time>2019-04-21T19:55:51Z</time>
      </trkpt>
      <trkpt lat="45.70965" lon="6.93039">
        <ele>1662</ele>
        <time>2019-04-21T19:56:51Z</time>
      </trkpt>
      <trkpt lat="45.70968" lon="6.93069">
        <ele>1660</ele>
        <time>2019-04-21T19:57:51Z</time>
      </trkpt>
      <trkpt lat="45.70966" lon="6.9308">
        <ele>1660</ele>
        <time>2019-04-21T19:58:51Z</time>
      </trkpt>
      <trkpt lat="45.70963" lon="6.93093">
        <ele>1661</ele>
        <time>2019-04-21T19:59:51Z</time>
      </trkpt>
      <trkpt lat="45.70945" lon="6.93134">
        <ele>1666</ele>
        <time>2019-04-21T20:00:51Z</time>
      </trkpt>
      <trkpt lat="45.70943" lon="6.93143">
        <ele>1667</ele>
        <time>2019-04-21T20:01:51Z</time>
      </trkpt>
      <trkpt lat="45.70937" lon="6.93196">
        <ele>1666</ele>
        <time>2019-04-21T20:02:51Z</time>
      </trkpt>
      <trkpt lat="45.70934" lon="6.93207">
        <ele>1666</ele>
        <time>2019-04-21T20:03:51Z</time>
      </trkpt>
      <trkpt lat="45.70926" lon="6.93226">
        <ele>1669</ele>
        <time>2019-04-21T20:04:51Z</time>
      </trkpt>
      <trkpt lat="45.70897" lon="6.93278">
        <ele>1673</ele>
        <time>2019-04-21T20:05:51Z</time>
      </trkpt>
      <trkpt lat="45.70864" lon="6.93307">
        <ele>1680</ele>
        <time>2019-04-21T20:06:51Z</time>
      </trkpt>
      <trkpt lat="45.70853" lon="6.93323">
        <ele>1683</ele>
        <time>2019-04-21T20:07:51Z</time>
      </trkpt>
      <trkpt lat="45.70847" lon="6.93338">
        <ele>1685</ele>
        <time>2019-04-21T20:08:51Z</time>
      </trkpt>
      <trkpt lat="45.70841" lon="6.93338">
        <ele>1687</ele>
        <time>2019-04-21T20:09:51Z</time>
      </trkpt>
      <trkpt lat="45.70838" lon="6.93333">
        <ele>1688</ele>
        <time>2019-04-21T20:10:51Z</time>
      </trkpt>
      <trkpt lat="45.70838" lon="6.93327">
        <ele>1688</ele>
        <time>2019-04-21T20:11:51Z</time>
      </trkpt>
      <trkpt lat="45.70847" lon="6.93297">
        <ele>1686</ele>
        <time>2019-04-21T20:12:51Z</time>
      </trkpt>
      <trkpt lat="45.70867" lon="6.93266">
        <ele>1682</ele>
        <time>2019-04-21T20:13:51Z</time>
      </trkpt>
      <trkpt lat="45.70872" lon="6.93255">
        <ele>1681</ele>
        <time>2019-04-21T20:14:51Z</time>
      </trkpt>
      <trkpt lat="45.70875" lon="6.93246">
        <ele>1681</ele>
        <time>2019-04-21T20:15:51Z</time>
      </trkpt>
      <trkpt lat="45.70885" lon="6.93196">
        <ele>1683</ele>
        <time>2019-04-21T20:16:51Z</time>
      </trkpt>
      <trkpt lat="45.70885" lon="6.93132">
        <ele>1689</ele>
        <time>2019-04-21T20:17:51Z</time>
      </trkpt>
      <trkpt lat="45.70886" lon="6.93117">
        <ele>1690</ele>
        <time>2019-04-21T20:18:51Z</time>
      </trkpt>
      <trkpt lat="45.70893" lon="6.93078">
        <ele>1691</ele>
        <time>2019-04-21T20:19:51Z</time>
      </trkpt>
      <trkpt lat="45.70894" lon="6.93045">
        <ele>1692</ele>
        <time>2019-04-21T20:20:51Z</time>
      </trkpt>
      <trkpt lat="45.70894" lon="6.9303">
        <ele>1692</ele>
        <time>2019-04-21T20:21:51Z</time>
      </trkpt>
      <trkpt lat="45.70888" lon="6.92988">
        <ele>1696</ele>
        <time>2019-04-21T20:22:51Z</time>
      </trkpt>
      <trkpt lat="45.70887" lon="6.92933">
        <ele>1697</ele>
        <time>2019-04-21T20:23:51Z</time>
      </trkpt>
      <trkpt lat="45.70887" lon="6.92929">
        <ele>1697</ele>
        <time>2019-04-21T20:24:51Z</time>
      </trkpt>
      <trkpt lat="45.70882" lon="6.92925">
        <ele>1699</ele>
        <time>2019-04-21T20:25:51Z</time>
      </trkpt>
      <trkpt lat="45.70876" lon="6.92929">
        <ele>1701</ele>
        <time>2019-04-21T20:26:51Z</time>
      </trkpt>
      <trkpt lat="45.70875" lon="6.92934">
        <ele>1701</ele>
        <time>2019-04-21T20:27:51Z</time>
      </trkpt>
      <trkpt lat="45.70872" lon="6.92991">
        <ele>1701</ele>
        <time>2019-04-21T20:28:51Z</time>
      </trkpt>
      <trkpt lat="45.70869" lon="6.93012">
        <ele>1702</ele>
        <time>2019-04-21T20:29:51Z</time>
      </trkpt>
      <trkpt lat="45.70866" lon="6.93019">
        <ele>1702</ele>
        <time>2019-04-21T20:30:51Z</time>
      </trkpt>
      <trkpt lat="45.70785" lon="6.93151">
        <ele>1724</ele>
        <time>2019-04-21T20:31:51Z</time>
      </trkpt>
      <trkpt lat="45.7078" lon="6.93165">
        <ele>1725</ele>
        <time>2019-04-21T20:32:51Z</time>
      </trkpt>
      <trkpt lat="45.70776" lon="6.93196">
        <ele>1724</ele>
        <time>2019-04-21T20:33:51Z</time>
      </trkpt>
      <trkpt lat="45.70766" lon="6.9337">
        <ele>1725</ele>
        <time>2019-04-21T20:34:51Z</time>
      </trkpt>
      <trkpt lat="45.70765" lon="6.9338">
        <ele>1725</ele>
        <time>2019-04-21T20:35:51Z</time>
      </trkpt>
      <trkpt lat="45.70762" lon="6.93387">
        <ele>1727</ele>
        <time>2019-04-21T20:36:51Z</time>
      </trkpt>
      <trkpt lat="45.70757" lon="6.93388">
        <ele>1729</ele>
        <time>2019-04-21T20:37:51Z</time>
      </trkpt>
      <trkpt lat="45.70753" lon="6.93381">
        <ele>1731</ele>
        <time>2019-04-21T20:38:51Z</time>
      </trkpt>
      <trkpt lat="45.7075" lon="6.93279">
        <ele>1733</ele>
        <time>2019-04-21T20:39:51Z</time>
      </trkpt>
      <trkpt lat="45.70743" lon="6.93167">
        <ele>1743</ele>
        <time>2019-04-21T20:40:51Z</time>
      </trkpt>
      <trkpt lat="45.70743" lon="6.93132">
        <ele>1746</ele>
        <time>2019-04-21T20:41:51Z</time>
      </trkpt>
      <trkpt lat="45.70744" lon="6.93095">
        <ele>1748</ele>
        <time>2019-04-21T20:42:51Z</time>
      </trkpt>
      <trkpt lat="45.70748" lon="6.93052">
        <ele>1750</ele>
        <time>2019-04-21T20:43:51Z</time>
      </trkpt>
      <trkpt lat="45.70758" lon="6.92986">
        <ele>1750</ele>
        <time>2019-04-21T20:44:51Z</time>
      </trkpt>
      <trkpt lat="45.7076" lon="6.92954">
        <ele>1752</ele>
        <time>2019-04-21T20:45:51Z</time>
      </trkpt>
      <trkpt lat="45.7076" lon="6.92865">
        <ele>1757</ele>
        <time>2019-04-21T20:46:51Z</time>
      </trkpt>
      <trkpt lat="45.70757" lon="6.92698">
        <ele>1772</ele>
        <time>2019-04-21T20:47:51Z</time>
      </trkpt>
      <trkpt lat="45.70755" lon="6.92654">
        <ele>1774</ele>
        <time>2019-04-21T20:48:51Z</time>
      </trkpt>
      <trkpt lat="45.70752" lon="6.92634">
        <ele>1775</ele>
        <time>2019-04-21T20:49:51Z</time>
      </trkpt>
      <trkpt lat="45.70747" lon="6.92621">
        <ele>1777</ele>
        <time>2019-04-21T20:50:51Z</time>
      </trkpt>
      <trkpt lat="45.70737" lon="6.92606">
        <ele>1780</ele>
        <time>2019-04-21T20:51:51Z</time>
      </trkpt>
      <trkpt lat="45.70734" lon="6.92597">
        <ele>1781</ele>
        <time>2019-04-21T20:52:51Z</time>
      </trkpt>
      <trkpt lat="45.70734" lon="6.92588">
        <ele>1781</ele>
        <time>2019-04-21T20:53:51Z</time>
      </trkpt>
      <trkpt lat="45.70737" lon="6.92579">
        <ele>1780</ele>
        <time>2019-04-21T20:54:51Z</time>
      </trkpt>
      <trkpt lat="45.70752" lon="6.92571">
        <ele>1774</ele>
        <time>2019-04-21T20:55:51Z</time>
      </trkpt>
      <trkpt lat="45.70758" lon="6.92565">
        <ele>1771</ele>
        <time>2019-04-21T20:56:51Z</time>
      </trkpt>
      <trkpt lat="45.70761" lon="6.92556">
        <ele>1770</ele>
        <time>2019-04-21T20:57:51Z</time>
      </trkpt>
      <trkpt lat="45.70762" lon="6.92544">
        <ele>1769</ele>
        <time>2019-04-21T20:58:51Z</time>
      </trkpt>
      <trkpt lat="45.70753" lon="6.92498">
        <ele>1771</ele>
        <time>2019-04-21T20:59:51Z</time>
      </trkpt>
      <trkpt lat="45.70736" lon="6.92424">
        <ele>1778</ele>
        <time>2019-04-21T21:00:51Z</time>
      </trkpt>
      <trkpt lat="45.70726" lon="6.92389">
        <ele>1785</ele>
        <time>2019-04-21T21:01:51Z</time>
      </trkpt>
      <trkpt lat="45.70723" lon="6.92371">
        <ele>1789</ele>
        <time>2019-04-21T21:02:51Z</time>
      </trkpt>
      <trkpt lat="45.70724" lon="6.92353">
        <ele>1791</ele>
        <time>2019-04-21T21:03:51Z</time>
      </trkpt>
      <trkpt lat="45.70727" lon="6.92321">
        <ele>1795</ele>
        <time>2019-04-21T21:04:51Z</time>
      </trkpt>
      <trkpt lat="45.7073" lon="6.92313">
        <ele>1796</ele>
        <time>2019-04-21T21:05:51Z</time>
      </trkpt>
      <trkpt lat="45.70736" lon="6.92304">
        <ele>1796</ele>
        <time>2019-04-21T21:06:51Z</time>
      </trkpt>
      <trkpt lat="45.70747" lon="6.92298">
        <ele>1793</ele>
        <time>2019-04-21T21:07:51Z</time>
      </trkpt>
      <trkpt lat="45.70753" lon="6.923">
        <ele>1791</ele>
        <time>2019-04-21T21:08:51Z</time>
      </trkpt>
      <trkpt lat="45.70761" lon="6.92311">
        <ele>1785</ele>
        <time>2019-04-21T21:09:51Z</time>
      </trkpt>
      <trkpt lat="45.70764" lon="6.92312">
        <ele>1784</ele>
        <time>2019-04-21T21:10:51Z</time>
      </trkpt>
      <trkpt lat="45.70771" lon="6.92309">
        <ele>1782</ele>
        <time>2019-04-21T21:11:51Z</time>
      </trkpt>
      <trkpt lat="45.70776" lon="6.92294">
        <ele>1783</ele>
        <time>2019-04-21T21:12:51Z</time>
      </trkpt>
      <trkpt lat="45.70777" lon="6.92283">
        <ele>1785</ele>
        <time>2019-04-21T21:13:51Z</time>
      </trkpt>
      <trkpt lat="45.70775" lon="6.92269">
        <ele>1789</ele>
        <time>2019-04-21T21:14:51Z</time>
      </trkpt>
      <trkpt lat="45.70753" lon="6.92176">
        <ele>1804</ele>
        <time>2019-04-21T21:15:51Z</time>
      </trkpt>
      <trkpt lat="45.70743" lon="6.92114">
        <ele>1804</ele>
        <time>2019-04-21T21:16:51Z</time>
      </trkpt>
      <trkpt lat="45.7074" lon="6.92107">
        <ele>1805</ele>
        <time>2019-04-21T21:17:51Z</time>
      </trkpt>
      <trkpt lat="45.70736" lon="6.92101">
        <ele>1805</ele>
        <time>2019-04-21T21:18:51Z</time>
      </trkpt>
      <trkpt lat="45.70725" lon="6.92097">
        <ele>1808</ele>
        <time>2019-04-21T21:19:51Z</time>
      </trkpt>
      <trkpt lat="45.70695" lon="6.92101">
        <ele>1816</ele>
        <time>2019-04-21T21:20:51Z</time>
      </trkpt>
      <trkpt lat="45.70684" lon="6.92099">
        <ele>1818</ele>
        <time>2019-04-21T21:21:51Z</time>
      </trkpt>
      <trkpt lat="45.70677" lon="6.92093">
        <ele>1819</ele>
        <time>2019-04-21T21:22:51Z</time>
      </trkpt>
      <trkpt lat="45.70674" lon="6.92087">
        <ele>1820</ele>
        <time>2019-04-21T21:23:51Z</time>
      </trkpt>
      <trkpt lat="45.70673" lon="6.9208">
        <ele>1820</ele>
        <time>2019-04-21T21:24:51Z</time>
      </trkpt>
      <trkpt lat="45.70675" lon="6.92072">
        <ele>1821</ele>
        <time>2019-04-21T21:25:51Z</time>
      </trkpt>
      <trkpt lat="45.70678" lon="6.92064">
        <ele>1822</ele>
        <time>2019-04-21T21:26:51Z</time>
      </trkpt>
      <trkpt lat="45.70684" lon="6.92059">
        <ele>1821</ele>
        <time>2019-04-21T21:27:51Z</time>
      </trkpt>
      <trkpt lat="45.70715" lon="6.92048">
        <ele>1815</ele>
        <time>2019-04-21T21:28:51Z</time>
      </trkpt>
      <trkpt lat="45.70726" lon="6.92038">
        <ele>1813</ele>
        <time>2019-04-21T21:29:51Z</time>
      </trkpt>
      <trkpt lat="45.70732" lon="6.92023">
        <ele>1813</ele>
        <time>2019-04-21T21:30:51Z</time>
      </trkpt>
      <trkpt lat="45.70733" lon="6.92011">
        <ele>1815</ele>
        <time>2019-04-21T21:31:51Z</time>
      </trkpt>
      <trkpt lat="45.70732" lon="6.91967">
        <ele>1821</ele>
        <time>2019-04-21T21:32:51Z</time>
      </trkpt>
      <trkpt lat="45.70739" lon="6.91921">
        <ele>1825</ele>
        <time>2019-04-21T21:33:51Z</time>
      </trkpt>
      <trkpt lat="45.7074" lon="6.91843">
        <ele>1832</ele>
        <time>2019-04-21T21:34:51Z</time>
      </trkpt>
      <trkpt lat="45.70741" lon="6.91835">
        <ele>1832</ele>
        <time>2019-04-21T21:35:51Z</time>
      </trkpt>
      <trkpt lat="45.70744" lon="6.91829">
        <ele>1832</ele>
        <time>2019-04-21T21:36:51Z</time>
      </trkpt>
      <trkpt lat="45.70749" lon="6.91826">
        <ele>1830</ele>
        <time>2019-04-21T21:37:51Z</time>
      </trkpt>
      <trkpt lat="45.70775" lon="6.9183">
        <ele>1828</ele>
        <time>2019-04-21T21:38:51Z</time>
      </trkpt>
      <trkpt lat="45.7078" lon="6.91829">
        <ele>1827</ele>
        <time>2019-04-21T21:39:51Z</time>
      </trkpt>
      <trkpt lat="45.70791" lon="6.91823">
        <ele>1827</ele>
        <time>2019-04-21T21:40:51Z</time>
      </trkpt>
      <trkpt lat="45.70813" lon="6.91799">
        <ele>1829</ele>
        <time>2019-04-21T21:41:51Z</time>
      </trkpt>
      <trkpt lat="45.70821" lon="6.91796">
        <ele>1829</ele>
        <time>2019-04-21T21:42:51Z</time>
      </trkpt>
      <trkpt lat="45.70831" lon="6.91795">
        <ele>1828</ele>
        <time>2019-04-21T21:43:51Z</time>
      </trkpt>
      <trkpt lat="45.70848" lon="6.91798">
        <ele>1827</ele>
        <time>2019-04-21T21:44:51Z</time>
      </trkpt>
      <trkpt lat="45.70857" lon="6.91797">
        <ele>1827</ele>
        <time>2019-04-21T21:45:51Z</time>
      </trkpt>
      <trkpt lat="45.70863" lon="6.91795">
        <ele>1827</ele>
        <time>2019-04-21T21:46:51Z</time>
      </trkpt>
      <trkpt lat="45.70875" lon="6.91785">
        <ele>1828</ele>
        <time>2019-04-21T21:47:51Z</time>
      </trkpt>
      <trkpt lat="45.70907" lon="6.91747">
        <ele>1831</ele>
        <time>2019-04-21T21:48:51Z</time>
      </trkpt>
      <trkpt lat="45.70911" lon="6.91739">
        <ele>1832</ele>
        <time>2019-04-21T21:49:51Z</time>
      </trkpt>
      <trkpt lat="45.70917" lon="6.91716">
        <ele>1832</ele>
        <time>2019-04-21T21:50:51Z</time>
      </trkpt>
      <trkpt lat="45.70919" lon="6.91692">
        <ele>1833</ele>
        <time>2019-04-21T21:51:51Z</time>
      </trkpt>
      <trkpt lat="45.70911" lon="6.91596">
        <ele>1840</ele>
        <time>2019-04-21T21:52:51Z</time>
      </trkpt>
      <trkpt lat="45.70974" lon="6.9137">
        <ele>1844</ele>
        <time>2019-04-21T21:53:51Z</time>
      </trkpt>
      <trkpt lat="45.70988" lon="6.91313">
        <ele>1847</ele>
        <time>2019-04-21T21:54:51Z</time>
      </trkpt>
      <trkpt lat="45.71004" lon="6.91276">
        <ele>1848</ele>
        <time>2019-04-21T21:55:51Z</time>
      </trkpt>
      <trkpt lat="45.71005" lon="6.91261">
        <ele>1849</ele>
        <time>2019-04-21T21:56:51Z</time>
      </trkpt>
      <trkpt lat="45.71004" lon="6.91252">
        <ele>1851</ele>
        <time>2019-04-21T21:57:51Z</time>
      </trkpt>
      <trkpt lat="45.71001" lon="6.91244">
        <ele>1852</ele>
        <time>2019-04-21T21:58:51Z</time>
      </trkpt>
      <trkpt lat="45.70965" lon="6.91163">
        <ele>1861</ele>
        <time>2019-04-21T21:59:51Z</time>
      </trkpt>
      <trkpt lat="45.70961" lon="6.91144">
        <ele>1863</ele>
        <time>2019-04-21T22:00:51Z</time>
      </trkpt>
      <trkpt lat="45.7096" lon="6.91123">
        <ele>1864</ele>
        <time>2019-04-21T22:01:51Z</time>
      </trkpt>
      <trkpt lat="45.70965" lon="6.91011">
        <ele>1863</ele>
        <time>2019-04-21T22:02:51Z</time>
      </trkpt>
      <trkpt lat="45.70969" lon="6.90966">
        <ele>1861</ele>
        <time>2019-04-21T22:03:51Z</time>
      </trkpt>
      <trkpt lat="45.70968" lon="6.90944">
        <ele>1860</ele>
        <time>2019-04-21T22:04:51Z</time>
      </trkpt>
      <trkpt lat="45.70963" lon="6.9093">
        <ele>1861</ele>
        <time>2019-04-21T22:05:51Z</time>
      </trkpt>
      <trkpt lat="45.70959" lon="6.90926">
        <ele>1861</ele>
        <time>2019-04-21T22:06:51Z</time>
      </trkpt>
      <trkpt lat="45.7095" lon="6.90923">
        <ele>1863</ele>
        <time>2019-04-21T22:07:51Z</time>
      </trkpt>
      <trkpt lat="45.70945" lon="6.90926">
        <ele>1864</ele>
        <time>2019-04-21T22:08:51Z</time>
      </trkpt>
      <trkpt lat="45.70941" lon="6.90936">
        <ele>1865</ele>
        <time>2019-04-21T22:09:51Z</time>
      </trkpt>
      <trkpt lat="45.70942" lon="6.90975">
        <ele>1867</ele>
        <time>2019-04-21T22:10:51Z</time>
      </trkpt>
      <trkpt lat="45.70941" lon="6.91">
        <ele>1869</ele>
        <time>2019-04-21T22:11:51Z</time>
      </trkpt>
      <trkpt lat="45.70928" lon="6.91134">
        <ele>1874</ele>
        <time>2019-04-21T22:12:51Z</time>
      </trkpt>
      <trkpt lat="45.70923" lon="6.91156">
        <ele>1875</ele>
        <time>2019-04-21T22:13:51Z</time>
      </trkpt>
      <trkpt lat="45.70919" lon="6.91165">
        <ele>1875</ele>
        <time>2019-04-21T22:14:51Z</time>
      </trkpt>
      <trkpt lat="45.70862" lon="6.91233">
        <ele>1884</ele>
        <time>2019-04-21T22:15:51Z</time>
      </trkpt>
      <trkpt lat="45.7085" lon="6.91249">
        <ele>1883</ele>
        <time>2019-04-21T22:16:51Z</time>
      </trkpt>
      <trkpt lat="45.7083" lon="6.91299">
        <ele>1881</ele>
        <time>2019-04-21T22:17:51Z</time>
      </trkpt>
      <trkpt lat="45.70821" lon="6.91314">
        <ele>1882</ele>
        <time>2019-04-21T22:18:51Z</time>
      </trkpt>
      <trkpt lat="45.70805" lon="6.91336">
        <ele>1883</ele>
        <time>2019-04-21T22:19:51Z</time>
      </trkpt>
      <trkpt lat="45.70798" lon="6.91342">
        <ele>1885</ele>
        <time>2019-04-21T22:20:51Z</time>
      </trkpt>
      <trkpt lat="45.70761" lon="6.91364">
        <ele>1894</ele>
        <time>2019-04-21T22:21:51Z</time>
      </trkpt>
      <trkpt lat="45.70744" lon="6.91385">
        <ele>1896</ele>
        <time>2019-04-21T22:22:51Z</time>
      </trkpt>
      <trkpt lat="45.70729" lon="6.91408">
        <ele>1896</ele>
        <time>2019-04-21T22:23:51Z</time>
      </trkpt>
      <trkpt lat="45.70723" lon="6.91423">
        <ele>1896</ele>
        <time>2019-04-21T22:24:51Z</time>
      </trkpt>
      <trkpt lat="45.70713" lon="6.91481">
        <ele>1893</ele>
        <time>2019-04-21T22:25:51Z</time>
      </trkpt>
      <trkpt lat="45.70707" lon="6.9149">
        <ele>1893</ele>
        <time>2019-04-21T22:26:51Z</time>
      </trkpt>
      <trkpt lat="45.70697" lon="6.91495">
        <ele>1894</ele>
        <time>2019-04-21T22:27:51Z</time>
      </trkpt>
      <trkpt lat="45.70691" lon="6.91494">
        <ele>1896</ele>
        <time>2019-04-21T22:28:51Z</time>
      </trkpt>
      <trkpt lat="45.70688" lon="6.91491">
        <ele>1897</ele>
        <time>2019-04-21T22:29:51Z</time>
      </trkpt>
      <trkpt lat="45.70684" lon="6.9148">
        <ele>1899</ele>
        <time>2019-04-21T22:30:51Z</time>
      </trkpt>
      <trkpt lat="45.70684" lon="6.91466">
        <ele>1901</ele>
        <time>2019-04-21T22:31:51Z</time>
      </trkpt>
      <trkpt lat="45.70687" lon="6.91459">
        <ele>1901</ele>
        <time>2019-04-21T22:32:51Z</time>
      </trkpt>
      <trkpt lat="45.70691" lon="6.91453">
        <ele>1901</ele>
        <time>2019-04-21T22:33:51Z</time>
      </trkpt>
      <trkpt lat="45.70704" lon="6.91441">
        <ele>1899</ele>
        <time>2019-04-21T22:34:51Z</time>
      </trkpt>
      <trkpt lat="45.70706" lon="6.91434">
        <ele>1900</ele>
        <time>2019-04-21T22:35:51Z</time>
      </trkpt>
      <trkpt lat="45.70707" lon="6.91425">
        <ele>1900</ele>
        <time>2019-04-21T22:36:51Z</time>
      </trkpt>
      <trkpt lat="45.70705" lon="6.91378">
        <ele>1907</ele>
        <time>2019-04-21T22:37:51Z</time>
      </trkpt>
      <trkpt lat="45.70707" lon="6.91362">
        <ele>1909</ele>
        <time>2019-04-21T22:38:51Z</time>
      </trkpt>
      <trkpt lat="45.7071" lon="6.91347">
        <ele>1911</ele>
        <time>2019-04-21T22:39:51Z</time>
      </trkpt>
      <trkpt lat="45.70714" lon="6.91336">
        <ele>1911</ele>
        <time>2019-04-21T22:40:51Z</time>
      </trkpt>
      <trkpt lat="45.70732" lon="6.91303">
        <ele>1915</ele>
        <time>2019-04-21T22:41:51Z</time>
      </trkpt>
      <trkpt lat="45.70738" lon="6.91295">
        <ele>1916</ele>
        <time>2019-04-21T22:42:51Z</time>
      </trkpt>
      <trkpt lat="45.70755" lon="6.91277">
        <ele>1916</ele>
        <time>2019-04-21T22:43:51Z</time>
      </trkpt>
      <trkpt lat="45.7076" lon="6.91269">
        <ele>1916</ele>
        <time>2019-04-21T22:44:51Z</time>
      </trkpt>
      <trkpt lat="45.70811" lon="6.91149">
        <ele>1924</ele>
        <time>2019-04-21T22:45:51Z</time>
      </trkpt>
      <trkpt lat="45.70834" lon="6.91063">
        <ele>1928</ele>
        <time>2019-04-21T22:46:51Z</time>
      </trkpt>
      <trkpt lat="45.70833" lon="6.91054">
        <ele>1930</ele>
        <time>2019-04-21T22:47:51Z</time>
      </trkpt>
      <trkpt lat="45.7083" lon="6.91051">
        <ele>1933</ele>
        <time>2019-04-21T22:48:51Z</time>
      </trkpt>
      <trkpt lat="45.70826" lon="6.91051">
        <ele>1936</ele>
        <time>2019-04-21T22:49:51Z</time>
      </trkpt>
      <trkpt lat="45.70824" lon="6.91054">
        <ele>1936</ele>
        <time>2019-04-21T22:50:51Z</time>
      </trkpt>
      <trkpt lat="45.70804" lon="6.9112">
        <ele>1934</ele>
        <time>2019-04-21T22:51:51Z</time>
      </trkpt>
      <trkpt lat="45.70794" lon="6.91139">
        <ele>1935</ele>
        <time>2019-04-21T22:52:51Z</time>
      </trkpt>
      <trkpt lat="45.7075" lon="6.91206">
        <ele>1939</ele>
        <time>2019-04-21T22:53:51Z</time>
      </trkpt>
      <trkpt lat="45.70728" lon="6.91218">
        <ele>1942</ele>
        <time>2019-04-21T22:54:51Z</time>
      </trkpt>
      <trkpt lat="45.70702" lon="6.91228">
        <ele>1947</ele>
        <time>2019-04-21T22:55:51Z</time>
      </trkpt>
      <trkpt lat="45.70695" lon="6.91234">
        <ele>1946</ele>
        <time>2019-04-21T22:56:51Z</time>
      </trkpt>
      <trkpt lat="45.70671" lon="6.91263">
        <ele>1943</ele>
        <time>2019-04-21T22:57:51Z</time>
      </trkpt>
      <trkpt lat="45.7065" lon="6.91265">
        <ele>1945</ele>
        <time>2019-04-21T22:58:51Z</time>
      </trkpt>
      <trkpt lat="45.70633" lon="6.91275">
        <ele>1942</ele>
        <time>2019-04-21T22:59:51Z</time>
      </trkpt>
      <trkpt lat="45.70619" lon="6.91281">
        <ele>1941</ele>
        <time>2019-04-21T23:00:51Z</time>
      </trkpt>
      <trkpt lat="45.70614" lon="6.9128">
        <ele>1942</ele>
        <time>2019-04-21T23:01:51Z</time>
      </trkpt>
      <trkpt lat="45.70576" lon="6.91247">
        <ele>1953</ele>
        <time>2019-04-21T23:02:51Z</time>
      </trkpt>
      <trkpt lat="45.70559" lon="6.9122">
        <ele>1959</ele>
        <time>2019-04-21T23:03:51Z</time>
      </trkpt>
      <trkpt lat="45.70543" lon="6.91186">
        <ele>1964</ele>
        <time>2019-04-21T23:04:51Z</time>
      </trkpt>
      <trkpt lat="45.70536" lon="6.91174">
        <ele>1965</ele>
        <time>2019-04-21T23:05:51Z</time>
      </trkpt>
      <trkpt lat="45.70529" lon="6.91166">
        <ele>1965</ele>
        <time>2019-04-21T23:06:51Z</time>
      </trkpt>
      <trkpt lat="45.70512" lon="6.91154">
        <ele>1966</ele>
        <time>2019-04-21T23:07:51Z</time>
      </trkpt>
      <trkpt lat="45.70503" lon="6.91152">
        <ele>1965</ele>
        <time>2019-04-21T23:08:51Z</time>
      </trkpt>
      <trkpt lat="45.70491" lon="6.91156">
        <ele>1962</ele>
        <time>2019-04-21T23:09:51Z</time>
      </trkpt>
      <trkpt lat="45.70479" lon="6.9117">
        <ele>1957</ele>
        <time>2019-04-21T23:10:51Z</time>
      </trkpt>
      <trkpt lat="45.70474" lon="6.91174">
        <ele>1956</ele>
        <time>2019-04-21T23:11:51Z</time>
      </trkpt>
      <trkpt lat="45.70466" lon="6.91172">
        <ele>1956</ele>
        <time>2019-04-21T23:12:51Z</time>
      </trkpt>
      <trkpt lat="45.70455" lon="6.9116">
        <ele>1958</ele>
        <time>2019-04-21T23:13:51Z</time>
      </trkpt>
      <trkpt lat="45.70426" lon="6.91106">
        <ele>1967</ele>
        <time>2019-04-21T23:14:51Z</time>
      </trkpt>
      <trkpt lat="45.70391" lon="6.91013">
        <ele>1981</ele>
        <time>2019-04-21T23:15:51Z</time>
      </trkpt>
      <trkpt lat="45.70345" lon="6.90918">
        <ele>1991</ele>
        <time>2019-04-21T23:16:51Z</time>
      </trkpt>
      <trkpt lat="45.70285" lon="6.90781">
        <ele>1998</ele>
        <time>2019-04-21T23:17:51Z</time>
      </trkpt>
      <trkpt lat="45.70266" lon="6.90752">
        <ele>1998</ele>
        <time>2019-04-21T23:18:51Z</time>
      </trkpt>
      <trkpt lat="45.70214" lon="6.90684">
        <ele>2002</ele>
        <time>2019-04-21T23:19:51Z</time>
      </trkpt>
      <trkpt lat="45.70207" lon="6.90673">
        <ele>2003</ele>
        <time>2019-04-21T23:20:51Z</time>
      </trkpt>
      <trkpt lat="45.70197" lon="6.90648">
        <ele>2004</ele>
        <time>2019-04-21T23:21:51Z</time>
      </trkpt>
      <trkpt lat="45.70193" lon="6.90642">
        <ele>2004</ele>
        <time>2019-04-21T23:22:51Z</time>
      </trkpt>
      <trkpt lat="45.70182" lon="6.90642">
        <ele>2002</ele>
        <time>2019-04-21T23:23:51Z</time>
      </trkpt>
      <trkpt lat="45.70164" lon="6.90658">
        <ele>1998</ele>
        <time>2019-04-21T23:24:51Z</time>
      </trkpt>
      <trkpt lat="45.70157" lon="6.9066">
        <ele>1999</ele>
        <time>2019-04-21T23:25:51Z</time>
      </trkpt>
      <trkpt lat="45.7014" lon="6.90658">
        <ele>2002</ele>
        <time>2019-04-21T23:26:51Z</time>
      </trkpt>
      <trkpt lat="45.70109" lon="6.90649">
        <ele>2007</ele>
        <time>2019-04-21T23:27:51Z</time>
      </trkpt>
      <trkpt lat="45.70102" lon="6.90651">
        <ele>2008</ele>
        <time>2019-04-21T23:28:51Z</time>
      </trkpt>
      <trkpt lat="45.70096" lon="6.90658">
        <ele>2008</ele>
        <time>2019-04-21T23:29:51Z</time>
      </trkpt>
      <trkpt lat="45.70077" lon="6.90699">
        <ele>2002</ele>
        <time>2019-04-21T23:30:51Z</time>
      </trkpt>
      <trkpt lat="45.70073" lon="6.90703">
        <ele>2001</ele>
        <time>2019-04-21T23:31:51Z</time>
      </trkpt>
      <trkpt lat="45.70069" lon="6.90704">
        <ele>2001</ele>
        <time>2019-04-21T23:32:51Z</time>
      </trkpt>
      <trkpt lat="45.70059" lon="6.90701">
        <ele>2002</ele>
        <time>2019-04-21T23:33:51Z</time>
      </trkpt>
      <trkpt lat="45.70052" lon="6.90693">
        <ele>2003</ele>
        <time>2019-04-21T23:34:51Z</time>
      </trkpt>
      <trkpt lat="45.70013" lon="6.90642">
        <ele>2014</ele>
        <time>2019-04-21T23:35:51Z</time>
      </trkpt>
      <trkpt lat="45.69976" lon="6.90577">
        <ele>2022</ele>
        <time>2019-04-21T23:36:51Z</time>
      </trkpt>
      <trkpt lat="45.69952" lon="6.9051">
        <ele>2027</ele>
        <time>2019-04-21T23:37:51Z</time>
      </trkpt>
      <trkpt lat="45.69936" lon="6.90455">
        <ele>2027</ele>
        <time>2019-04-21T23:38:51Z</time>
      </trkpt>
      <trkpt lat="45.69932" lon="6.90445">
        <ele>2027</ele>
        <time>2019-04-21T23:39:51Z</time>
      </trkpt>
      <trkpt lat="45.6991" lon="6.90415">
        <ele>2026</ele>
        <time>2019-04-21T23:40:51Z</time>
      </trkpt>
      <trkpt lat="45.6988" lon="6.90352">
        <ele>2033</ele>
        <time>2019-04-21T23:41:51Z</time>
      </trkpt>
      <trkpt lat="45.69874" lon="6.90342">
        <ele>2034</ele>
        <time>2019-04-21T23:42:51Z</time>
      </trkpt>
      <trkpt lat="45.69851" lon="6.90319">
        <ele>2034</ele>
        <time>2019-04-21T23:43:51Z</time>
      </trkpt>
      <trkpt lat="45.69841" lon="6.90303">
        <ele>2035</ele>
        <time>2019-04-21T23:44:51Z</time>
      </trkpt>
      <trkpt lat="45.69831" lon="6.90275">
        <ele>2040</ele>
        <time>2019-04-21T23:45:51Z</time>
      </trkpt>
      <trkpt lat="45.6982" lon="6.90229">
        <ele>2043</ele>
        <time>2019-04-21T23:46:51Z</time>
      </trkpt>
      <trkpt lat="45.69815" lon="6.9022">
        <ele>2043</ele>
        <time>2019-04-21T23:47:51Z</time>
      </trkpt>
      <trkpt lat="45.69749" lon="6.90146">
        <ele>2048</ele>
        <time>2019-04-21T23:48:51Z</time>
      </trkpt>
      <trkpt lat="45.6973" lon="6.90119">
        <ele>2044</ele>
        <time>2019-04-21T23:49:51Z</time>
      </trkpt>
      <trkpt lat="45.6965" lon="6.89986">
        <ele>2042</ele>
        <time>2019-04-21T23:50:51Z</time>
      </trkpt>
      <trkpt lat="45.69626" lon="6.8995">
        <ele>2047</ele>
        <time>2019-04-21T23:51:51Z</time>
      </trkpt>
      <trkpt lat="45.69591" lon="6.89914">
        <ele>2057</ele>
        <time>2019-04-21T23:52:51Z</time>
      </trkpt>
      <trkpt lat="45.69579" lon="6.89905">
        <ele>2059</ele>
        <time>2019-04-21T23:53:51Z</time>
      </trkpt>
      <trkpt lat="45.69536" lon="6.89882">
        <ele>2059</ele>
        <time>2019-04-21T23:54:51Z</time>
      </trkpt>
      <trkpt lat="45.69526" lon="6.8987">
        <ele>2059</ele>
        <time>2019-04-21T23:55:51Z</time>
      </trkpt>
      <trkpt lat="45.69514" lon="6.89852">
        <ele>2059</ele>
        <time>2019-04-21T23:56:51Z</time>
      </trkpt>
      <trkpt lat="45.69502" lon="6.8982">
        <ele>2059</ele>
        <time>2019-04-21T23:57:51Z</time>
      </trkpt>
      <trkpt lat="45.69469" lon="6.89695">
        <ele>2060</ele>
        <time>2019-04-21T23:58:51Z</time>
      </trkpt>
      <trkpt lat="45.69441" lon="6.89642">
        <ele>2065</ele>
        <time>2019-04-21T23:59:51Z</time>
      </trkpt>
      <trkpt lat="45.69421" lon="6.89586">
        <ele>2064</ele>
        <time>2019-04-22T00:00:51Z</time>
      </trkpt>
      <trkpt lat="45.69398" lon="6.89525">
        <ele>2070</ele>
        <time>2019-04-22T00:01:51Z</time>
      </trkpt>
      <trkpt lat="45.69395" lon="6.89506">
        <ele>2070</ele>
        <time>2019-04-22T00:02:51Z</time>
      </trkpt>
      <trkpt lat="45.69395" lon="6.89447">
        <ele>2069</ele>
        <time>2019-04-22T00:03:51Z</time>
      </trkpt>
      <trkpt lat="45.69392" lon="6.89429">
        <ele>2069</ele>
        <time>2019-04-22T00:04:51Z</time>
      </trkpt>
      <trkpt lat="45.69355" lon="6.89334">
        <ele>2071</ele>
        <time>2019-04-22T00:05:51Z</time>
      </trkpt>
      <trkpt lat="45.69349" lon="6.89316">
        <ele>2072</ele>
        <time>2019-04-22T00:06:51Z</time>
      </trkpt>
      <trkpt lat="45.69348" lon="6.89306">
        <ele>2072</ele>
        <time>2019-04-22T00:07:51Z</time>
      </trkpt>
      <trkpt lat="45.69349" lon="6.89232">
        <ele>2074</ele>
        <time>2019-04-22T00:08:51Z</time>
      </trkpt>
      <trkpt lat="45.69347" lon="6.89198">
        <ele>2076</ele>
        <time>2019-04-22T00:09:51Z</time>
      </trkpt>
      <trkpt lat="45.69345" lon="6.89191">
        <ele>2076</ele>
        <time>2019-04-22T00:10:51Z</time>
      </trkpt>
      <trkpt lat="45.69339" lon="6.89183">
        <ele>2078</ele>
        <time>2019-04-22T00:11:51Z</time>
      </trkpt>
      <trkpt lat="45.69323" lon="6.89172">
        <ele>2080</ele>
        <time>2019-04-22T00:12:51Z</time>
      </trkpt>
      <trkpt lat="45.69311" lon="6.8914">
        <ele>2085</ele>
        <time>2019-04-22T00:13:51Z</time>
      </trkpt>
      <trkpt lat="45.693" lon="6.89116">
        <ele>2089</ele>
        <time>2019-04-22T00:14:51Z</time>
      </trkpt>
      <trkpt lat="45.69285" lon="6.89088">
        <ele>2093</ele>
        <time>2019-04-22T00:15:51Z</time>
      </trkpt>
      <trkpt lat="45.69276" lon="6.89076">
        <ele>2095</ele>
        <time>2019-04-22T00:16:51Z</time>
      </trkpt>
      <trkpt lat="45.69237" lon="6.89041">
        <ele>2098</ele>
        <time>2019-04-22T00:17:51Z</time>
      </trkpt>
      <trkpt lat="45.69187" lon="6.89013">
        <ele>2101</ele>
        <time>2019-04-22T00:18:51Z</time>
      </trkpt>
      <trkpt lat="45.69174" lon="6.89012">
        <ele>2101</ele>
        <time>2019-04-22T00:19:51Z</time>
      </trkpt>
      <trkpt lat="45.69168" lon="6.89014">
        <ele>2101</ele>
        <time>2019-04-22T00:20:51Z</time>
      </trkpt>
      <trkpt lat="45.69162" lon="6.89021">
        <ele>2102</ele>
        <time>2019-04-22T00:21:51Z</time>
      </trkpt>
      <trkpt lat="45.6916" lon="6.89034">
        <ele>2103</ele>
        <time>2019-04-22T00:22:51Z</time>
      </trkpt>
      <trkpt lat="45.69166" lon="6.89066">
        <ele>2103</ele>
        <time>2019-04-22T00:23:51Z</time>
      </trkpt>
      <trkpt lat="45.69166" lon="6.89072">
        <ele>2103</ele>
        <time>2019-04-22T00:24:51Z</time>
      </trkpt>
      <trkpt lat="45.69163" lon="6.89077">
        <ele>2104</ele>
        <time>2019-04-22T00:25:51Z</time>
      </trkpt>
      <trkpt lat="45.69158" lon="6.89075">
        <ele>2105</ele>
        <time>2019-04-22T00:26:51Z</time>
      </trkpt>
      <trkpt lat="45.69151" lon="6.89056">
        <ele>2105</ele>
        <time>2019-04-22T00:27:51Z</time>
      </trkpt>
      <trkpt lat="45.69136" lon="6.89029">
        <ele>2107</ele>
        <time>2019-04-22T00:28:51Z</time>
      </trkpt>
      <trkpt lat="45.69113" lon="6.88947">
        <ele>2107</ele>
        <time>2019-04-22T00:29:51Z</time>
      </trkpt>
      <trkpt lat="45.69103" lon="6.8893">
        <ele>2107</ele>
        <time>2019-04-22T00:30:51Z</time>
      </trkpt>
      <trkpt lat="45.69088" lon="6.88915">
        <ele>2108</ele>
        <time>2019-04-22T00:31:51Z</time>
      </trkpt>
      <trkpt lat="45.69085" lon="6.88916">
        <ele>2108</ele>
        <time>2019-04-22T00:32:51Z</time>
      </trkpt>
      <trkpt lat="45.69083" lon="6.88925">
        <ele>2109</ele>
        <time>2019-04-22T00:33:51Z</time>
      </trkpt>
      <trkpt lat="45.69093" lon="6.89002">
        <ele>2112</ele>
        <time>2019-04-22T00:34:51Z</time>
      </trkpt>
      <trkpt lat="45.69091" lon="6.89042">
        <ele>2115</ele>
        <time>2019-04-22T00:35:51Z</time>
      </trkpt>
      <trkpt lat="45.69115" lon="6.89124">
        <ele>2115</ele>
        <time>2019-04-22T00:36:51Z</time>
      </trkpt>
      <trkpt lat="45.69115" lon="6.89136">
        <ele>2115</ele>
        <time>2019-04-22T00:37:51Z</time>
      </trkpt>
      <trkpt lat="45.69113" lon="6.89146">
        <ele>2116</ele>
        <time>2019-04-22T00:38:51Z</time>
      </trkpt>
      <trkpt lat="45.69105" lon="6.89155">
        <ele>2119</ele>
        <time>2019-04-22T00:39:51Z</time>
      </trkpt>
      <trkpt lat="45.69099" lon="6.89158">
        <ele>2120</ele>
        <time>2019-04-22T00:40:51Z</time>
      </trkpt>
      <trkpt lat="45.69089" lon="6.89159">
        <ele>2123</ele>
        <time>2019-04-22T00:41:51Z</time>
      </trkpt>
      <trkpt lat="45.69078" lon="6.89154">
        <ele>2125</ele>
        <time>2019-04-22T00:42:51Z</time>
      </trkpt>
      <trkpt lat="45.69045" lon="6.89129">
        <ele>2131</ele>
        <time>2019-04-22T00:43:51Z</time>
      </trkpt>
      <trkpt lat="45.69035" lon="6.89115">
        <ele>2133</ele>
        <time>2019-04-22T00:44:51Z</time>
      </trkpt>
      <trkpt lat="45.69033" lon="6.89101">
        <ele>2133</ele>
        <time>2019-04-22T00:45:51Z</time>
      </trkpt>
      <trkpt lat="45.6903" lon="6.89026">
        <ele>2131</ele>
        <time>2019-04-22T00:46:51Z</time>
      </trkpt>
      <trkpt lat="45.69025" lon="6.89001">
        <ele>2131</ele>
        <time>2019-04-22T00:47:51Z</time>
      </trkpt>
      <trkpt lat="45.69015" lon="6.88975">
        <ele>2132</ele>
        <time>2019-04-22T00:48:51Z</time>
      </trkpt>
      <trkpt lat="45.69012" lon="6.88969">
        <ele>2132</ele>
        <time>2019-04-22T00:49:51Z</time>
      </trkpt>
      <trkpt lat="45.69002" lon="6.8896">
        <ele>2135</ele>
        <time>2019-04-22T00:50:51Z</time>
      </trkpt>
      <trkpt lat="45.68852" lon="6.88871">
        <ele>2143</ele>
        <time>2019-04-22T00:51:51Z</time>
      </trkpt>
      <trkpt lat="45.6884" lon="6.88868">
        <ele>2144</ele>
        <time>2019-04-22T00:52:51Z</time>
      </trkpt>
      <trkpt lat="45.68795" lon="6.88863">
        <ele>2148</ele>
        <time>2019-04-22T00:53:51Z</time>
      </trkpt>
      <trkpt lat="45.68763" lon="6.88876">
        <ele>2154</ele>
        <time>2019-04-22T00:54:51Z</time>
      </trkpt>
      <trkpt lat="45.68753" lon="6.88878">
        <ele>2155</ele>
        <time>2019-04-22T00:55:51Z</time>
      </trkpt>
      <trkpt lat="45.6874" lon="6.88875">
        <ele>2156</ele>
        <time>2019-04-22T00:56:51Z</time>
      </trkpt>
      <trkpt lat="45.68714" lon="6.88866">
        <ele>2158</ele>
        <time>2019-04-22T00:57:51Z</time>
      </trkpt>
      <trkpt lat="45.6867" lon="6.88862">
        <ele>2164</ele>
        <time>2019-04-22T00:58:51Z</time>
      </trkpt>
      <trkpt lat="45.68621" lon="6.88827">
        <ele>2166</ele>
        <time>2019-04-22T00:59:51Z</time>
      </trkpt>
      <trkpt lat="45.6859" lon="6.88814">
        <ele>2169</ele>
        <time>2019-04-22T01:00:51Z</time>
      </trkpt>
      <trkpt lat="45.68544" lon="6.88778">
        <ele>2169</ele>
        <time>2019-04-22T01:01:51Z</time>
      </trkpt>
      <trkpt lat="45.68502" lon="6.88766">
        <ele>2174</ele>
        <time>2019-04-22T01:02:51Z</time>
      </trkpt>
      <trkpt lat="45.68491" lon="6.8876">
        <ele>2175</ele>
        <time>2019-04-22T01:03:51Z</time>
      </trkpt>
      <trkpt lat="45.68345" lon="6.8864">
        <ele>2185</ele>
        <time>2019-04-22T01:04:51Z</time>
      </trkpt>
      <trkpt lat="45.68043" lon="6.88397">
        <ele>2193</ele>
        <time>2019-04-22T01:05:51Z</time>
      </trkpt>
      <trkpt lat="45.67979" lon="6.88343">
        <ele>2191</ele>
        <time>2019-04-22T01:06:51Z</time>
      </trkpt>
      <trkpt lat="45.67929" lon="6.88297">
        <ele>2189</ele>
        <time>2019-04-22T01:07:51Z</time>
      </trkpt>
      <trkpt lat="45.67892" lon="6.88265">
        <ele>2187</ele>
        <time>2019-04-22T01:08:51Z</time>
      </trkpt>
      <trkpt lat="45.67689" lon="6.88166">
        <ele>2175</ele>
        <time>2019-04-22T01:09:51Z</time>
      </trkpt>
      <trkpt lat="45.67662" lon="6.88149">
        <ele>2174</ele>
        <time>2019-04-22T01:10:51Z</time>
      </trkpt>
      <trkpt lat="45.6721" lon="6.87645">
        <ele>2151</ele>
        <time>2019-04-22T01:11:51Z</time>
      </trkpt>
      <trkpt lat="45.66944" lon="6.87342">
        <ele>2127</ele>
        <time>2019-04-22T01:12:51Z</time>
      </trkpt>
      <trkpt lat="45.6694" lon="6.8733">
        <ele>2126</ele>
        <time>2019-04-22T01:13:51Z</time>
      </trkpt>
      <trkpt lat="45.66941" lon="6.87325">
        <ele>2126</ele>
        <time>2019-04-22T01:14:51Z</time>
      </trkpt>
      <trkpt lat="45.66943" lon="6.8732">
        <ele>2126</ele>
        <time>2019-04-22T01:15:51Z</time>
      </trkpt>
      <trkpt lat="45.6695" lon="6.87315">
        <ele>2125</ele>
        <time>2019-04-22T01:16:51Z</time>
      </trkpt>
      <trkpt lat="45.66962" lon="6.87316">
        <ele>2126</ele>
        <time>2019-04-22T01:17:51Z</time>
      </trkpt>
      <trkpt lat="45.6698" lon="6.87325">
        <ele>2127</ele>
        <time>2019-04-22T01:18:51Z</time>
      </trkpt>
      <trkpt lat="45.6702" lon="6.87361">
        <ele>2131</ele>
        <time>2019-04-22T01:19:51Z</time>
      </trkpt>
      <trkpt lat="45.67034" lon="6.87372">
        <ele>2132</ele>
        <time>2019-04-22T01:20:51Z</time>
      </trkpt>
      <trkpt lat="45.67051" lon="6.87376">
        <ele>2133</ele>
        <time>2019-04-22T01:21:51Z</time>
      </trkpt>
      <trkpt lat="45.6706" lon="6.87372">
        <ele>2133</ele>
        <time>2019-04-22T01:22:51Z</time>
      </trkpt>
      <trkpt lat="45.67064" lon="6.87367">
        <ele>2133</ele>
        <time>2019-04-22T01:23:51Z</time>
      </trkpt>
      <trkpt lat="45.67066" lon="6.87356">
        <ele>2132</ele>
        <time>2019-04-22T01:24:51Z</time>
      </trkpt>
      <trkpt lat="45.67065" lon="6.87346">
        <ele>2130</ele>
        <time>2019-04-22T01:25:51Z</time>
      </trkpt>
      <trkpt lat="45.67061" lon="6.8734">
        <ele>2130</ele>
        <time>2019-04-22T01:26:51Z</time>
      </trkpt>
      <trkpt lat="45.6701" lon="6.87293">
        <ele>2127</ele>
        <time>2019-04-22T01:27:51Z</time>
      </trkpt>
      <trkpt lat="45.66964" lon="6.87273">
        <ele>2123</ele>
        <time>2019-04-22T01:28:51Z</time>
      </trkpt>
      <trkpt lat="45.66934" lon="6.87247">
        <ele>2119</ele>
        <time>2019-04-22T01:29:51Z</time>
      </trkpt>
      <trkpt lat="45.66928" lon="6.87247">
        <ele>2119</ele>
        <time>2019-04-22T01:30:51Z</time>
      </trkpt>
      <trkpt lat="45.66919" lon="6.87251">
        <ele>2118</ele>
        <time>2019-04-22T01:31:51Z</time>
      </trkpt>
      <trkpt lat="45.6689" lon="6.8727">
        <ele>2118</ele>
        <time>2019-04-22T01:32:51Z</time>
      </trkpt>
      <trkpt lat="45.66877" lon="6.87272">
        <ele>2117</ele>
        <time>2019-04-22T01:33:51Z</time>
      </trkpt>
      <trkpt lat="45.6687" lon="6.8727">
        <ele>2116</ele>
        <time>2019-04-22T01:34:51Z</time>
      </trkpt>
      <trkpt lat="45.66864" lon="6.87266">
        <ele>2115</ele>
        <time>2019-04-22T01:35:51Z</time>
      </trkpt>
      <trkpt lat="45.66859" lon="6.8726">
        <ele>2114</ele>
        <time>2019-04-22T01:36:51Z</time>
      </trkpt>
      <trkpt lat="45.66845" lon="6.87235">
        <ele>2109</ele>
        <time>2019-04-22T01:37:51Z</time>
      </trkpt>
      <trkpt lat="45.66831" lon="6.87226">
        <ele>2106</ele>
        <time>2019-04-22T01:38:51Z</time>
      </trkpt>
      <trkpt lat="45.66815" lon="6.87226">
        <ele>2105</ele>
        <time>2019-04-22T01:39:51Z</time>
      </trkpt>
      <trkpt lat="45.66786" lon="6.87235">
        <ele>2105</ele>
        <time>2019-04-22T01:40:51Z</time>
      </trkpt>
      <trkpt lat="45.66758" lon="6.87232">
        <ele>2103</ele>
        <time>2019-04-22T01:41:51Z</time>
      </trkpt>
      <trkpt lat="45.66742" lon="6.87226">
        <ele>2102</ele>
        <time>2019-04-22T01:42:51Z</time>
      </trkpt>
      <trkpt lat="45.66719" lon="6.87211">
        <ele>2101</ele>
        <time>2019-04-22T01:43:51Z</time>
      </trkpt>
      <trkpt lat="45.66704" lon="6.87204">
        <ele>2100</ele>
        <time>2019-04-22T01:44:51Z</time>
      </trkpt>
      <trkpt lat="45.66642" lon="6.8719">
        <ele>2101</ele>
        <time>2019-04-22T01:45:51Z</time>
      </trkpt>
      <trkpt lat="45.66628" lon="6.87182">
        <ele>2099</ele>
        <time>2019-04-22T01:46:51Z</time>
      </trkpt>
      <trkpt lat="45.66601" lon="6.8716">
        <ele>2093</ele>
        <time>2019-04-22T01:47:51Z</time>
      </trkpt>
      <trkpt lat="45.66579" lon="6.87148">
        <ele>2092</ele>
        <time>2019-04-22T01:48:51Z</time>
      </trkpt>
      <trkpt lat="45.66564" lon="6.87143">
        <ele>2092</ele>
        <time>2019-04-22T01:49:51Z</time>
      </trkpt>
      <trkpt lat="45.66522" lon="6.87136">
        <ele>2094</ele>
        <time>2019-04-22T01:50:51Z</time>
      </trkpt>
      <trkpt lat="45.66502" lon="6.8713">
        <ele>2093</ele>
        <time>2019-04-22T01:51:51Z</time>
      </trkpt>
      <trkpt lat="45.66488" lon="6.8712">
        <ele>2091</ele>
        <time>2019-04-22T01:52:51Z</time>
      </trkpt>
      <trkpt lat="45.66449" lon="6.87083">
        <ele>2082</ele>
        <time>2019-04-22T01:53:51Z</time>
      </trkpt>
      <trkpt lat="45.66428" lon="6.87069">
        <ele>2080</ele>
        <time>2019-04-22T01:54:51Z</time>
      </trkpt>
      <trkpt lat="45.66395" lon="6.87053">
        <ele>2077</ele>
        <time>2019-04-22T01:55:51Z</time>
      </trkpt>
      <trkpt lat="45.6636" lon="6.87047">
        <ele>2076</ele>
        <time>2019-04-22T01:56:51Z</time>
      </trkpt>
      <trkpt lat="45.66333" lon="6.87039">
        <ele>2074</ele>
        <time>2019-04-22T01:57:51Z</time>
      </trkpt>
      <trkpt lat="45.66326" lon="6.87039">
        <ele>2074</ele>
        <time>2019-04-22T01:58:51Z</time>
      </trkpt>
      <trkpt lat="45.66304" lon="6.87045">
        <ele>2075</ele>
        <time>2019-04-22T01:59:51Z</time>
      </trkpt>
      <trkpt lat="45.66267" lon="6.87063">
        <ele>2076</ele>
        <time>2019-04-22T02:00:51Z</time>
      </trkpt>
      <trkpt lat="45.66245" lon="6.87075">
        <ele>2077</ele>
        <time>2019-04-22T02:01:51Z</time>
      </trkpt>
      <trkpt lat="45.66237" lon="6.87075">
        <ele>2078</ele>
        <time>2019-04-22T02:02:51Z</time>
      </trkpt>
      <trkpt lat="45.66231" lon="6.87069">
        <ele>2078</ele>
        <time>2019-04-22T02:03:51Z</time>
      </trkpt>
      <trkpt lat="45.66228" lon="6.87064">
        <ele>2078</ele>
        <time>2019-04-22T02:04:51Z</time>
      </trkpt>
      <trkpt lat="45.66227" lon="6.87053">
        <ele>2076</ele>
        <time>2019-04-22T02:05:51Z</time>
      </trkpt>
      <trkpt lat="45.66228" lon="6.87044">
        <ele>2075</ele>
        <time>2019-04-22T02:06:51Z</time>
      </trkpt>
      <trkpt lat="45.66238" lon="6.87012">
        <ele>2069</ele>
        <time>2019-04-22T02:07:51Z</time>
      </trkpt>
      <trkpt lat="45.66242" lon="6.8698">
        <ele>2064</ele>
        <time>2019-04-22T02:08:51Z</time>
      </trkpt>
      <trkpt lat="45.66241" lon="6.86963">
        <ele>2062</ele>
        <time>2019-04-22T02:09:51Z</time>
      </trkpt>
      <trkpt lat="45.66237" lon="6.86944">
        <ele>2060</ele>
        <time>2019-04-22T02:10:51Z</time>
      </trkpt>
      <trkpt lat="45.66233" lon="6.86931">
        <ele>2059</ele>
        <time>2019-04-22T02:11:51Z</time>
      </trkpt>
      <trkpt lat="45.66221" lon="6.86917">
        <ele>2059</ele>
        <time>2019-04-22T02:12:51Z</time>
      </trkpt>
      <trkpt lat="45.66198" lon="6.86902">
        <ele>2061</ele>
        <time>2019-04-22T02:13:51Z</time>
      </trkpt>
      <trkpt lat="45.66187" lon="6.86892">
        <ele>2062</ele>
        <time>2019-04-22T02:14:51Z</time>
      </trkpt>
      <trkpt lat="45.66175" lon="6.86873">
        <ele>2062</ele>
        <time>2019-04-22T02:15:51Z</time>
      </trkpt>
      <trkpt lat="45.66161" lon="6.86831">
        <ele>2060</ele>
        <time>2019-04-22T02:16:51Z</time>
      </trkpt>
      <trkpt lat="45.66142" lon="6.868">
        <ele>2057</ele>
        <time>2019-04-22T02:17:51Z</time>
      </trkpt>
      <trkpt lat="45.6611" lon="6.86757">
        <ele>2053</ele>
        <time>2019-04-22T02:18:51Z</time>
      </trkpt>
      <trkpt lat="45.66055" lon="6.86695">
        <ele>2049</ele>
        <time>2019-04-22T02:19:51Z</time>
      </trkpt>
      <trkpt lat="45.66011" lon="6.86626">
        <ele>2046</ele>
        <time>2019-04-22T02:20:51Z</time>
      </trkpt>
      <trkpt lat="45.65984" lon="6.86598">
        <ele>2049</ele>
        <time>2019-04-22T02:21:51Z</time>
      </trkpt>
      <trkpt lat="45.65969" lon="6.86578">
        <ele>2049</ele>
        <time>2019-04-22T02:22:51Z</time>
      </trkpt>
      <trkpt lat="45.65958" lon="6.86557">
        <ele>2047</ele>
        <time>2019-04-22T02:23:51Z</time>
      </trkpt>
      <trkpt lat="45.65916" lon="6.86454">
        <ele>2032</ele>
        <time>2019-04-22T02:24:51Z</time>
      </trkpt>
      <trkpt lat="45.65902" lon="6.86433">
        <ele>2029</ele>
        <time>2019-04-22T02:25:51Z</time>
      </trkpt>
      <trkpt lat="45.6588" lon="6.86417">
        <ele>2029</ele>
        <time>2019-04-22T02:26:51Z</time>
      </trkpt>
      <trkpt lat="45.65845" lon="6.86402">
        <ele>2035</ele>
        <time>2019-04-22T02:27:51Z</time>
      </trkpt>
      <trkpt lat="45.6583" lon="6.86392">
        <ele>2036</ele>
        <time>2019-04-22T02:28:51Z</time>
      </trkpt>
      <trkpt lat="45.6579" lon="6.86352">
        <ele>2033</ele>
        <time>2019-04-22T02:29:51Z</time>
      </trkpt>
      <trkpt lat="45.65774" lon="6.86342">
        <ele>2032</ele>
        <time>2019-04-22T02:30:51Z</time>
      </trkpt>
      <trkpt lat="45.65748" lon="6.8633">
        <ele>2032</ele>
        <time>2019-04-22T02:31:51Z</time>
      </trkpt>
      <trkpt lat="45.65728" lon="6.86313">
        <ele>2034</ele>
        <time>2019-04-22T02:32:51Z</time>
      </trkpt>
      <trkpt lat="45.65695" lon="6.86275">
        <ele>2031</ele>
        <time>2019-04-22T02:33:51Z</time>
      </trkpt>
      <trkpt lat="45.65685" lon="6.86262">
        <ele>2029</ele>
        <time>2019-04-22T02:34:51Z</time>
      </trkpt>
      <trkpt lat="45.65675" lon="6.86239">
        <ele>2025</ele>
        <time>2019-04-22T02:35:51Z</time>
      </trkpt>
      <trkpt lat="45.65664" lon="6.86197">
        <ele>2016</ele>
        <time>2019-04-22T02:36:51Z</time>
      </trkpt>
      <trkpt lat="45.65657" lon="6.86184">
        <ele>2015</ele>
        <time>2019-04-22T02:37:51Z</time>
      </trkpt>
      <trkpt lat="45.65633" lon="6.86151">
        <ele>2013</ele>
        <time>2019-04-22T02:38:51Z</time>
      </trkpt>
      <trkpt lat="45.65614" lon="6.86134">
        <ele>2012</ele>
        <time>2019-04-22T02:39:51Z</time>
      </trkpt>
      <trkpt lat="45.65602" lon="6.86129">
        <ele>2014</ele>
        <time>2019-04-22T02:40:51Z</time>
      </trkpt>
      <trkpt lat="45.65569" lon="6.86121">
        <ele>2019</ele>
        <time>2019-04-22T02:41:51Z</time>
      </trkpt>
      <trkpt lat="45.65562" lon="6.86118">
        <ele>2020</ele>
        <time>2019-04-22T02:42:51Z</time>
      </trkpt>
      <trkpt lat="45.65548" lon="6.86107">
        <ele>2019</ele>
        <time>2019-04-22T02:43:51Z</time>
      </trkpt>
      <trkpt lat="45.65539" lon="6.86095">
        <ele>2017</ele>
        <time>2019-04-22T02:44:51Z</time>
      </trkpt>
      <trkpt lat="45.65529" lon="6.86078">
        <ele>2013</ele>
        <time>2019-04-22T02:45:51Z</time>
      </trkpt>
      <trkpt lat="45.65497" lon="6.86007">
        <ele>1999</ele>
        <time>2019-04-22T02:46:51Z</time>
      </trkpt>
      <trkpt lat="45.65483" lon="6.85985">
        <ele>1996</ele>
        <time>2019-04-22T02:47:51Z</time>
      </trkpt>
      <trkpt lat="45.65467" lon="6.85972">
        <ele>1997</ele>
        <time>2019-04-22T02:48:51Z</time>
      </trkpt>
      <trkpt lat="45.65427" lon="6.8596">
        <ele>2004</ele>
        <time>2019-04-22T02:49:51Z</time>
      </trkpt>
      <trkpt lat="45.6541" lon="6.85949">
        <ele>2005</ele>
        <time>2019-04-22T02:50:51Z</time>
      </trkpt>
      <trkpt lat="45.65393" lon="6.85928">
        <ele>2003</ele>
        <time>2019-04-22T02:51:51Z</time>
      </trkpt>
      <trkpt lat="45.65357" lon="6.85873">
        <ele>1993</ele>
        <time>2019-04-22T02:52:51Z</time>
      </trkpt>
      <trkpt lat="45.65331" lon="6.85842">
        <ele>1989</ele>
        <time>2019-04-22T02:53:51Z</time>
      </trkpt>
      <trkpt lat="45.65314" lon="6.85828">
        <ele>1989</ele>
        <time>2019-04-22T02:54:51Z</time>
      </trkpt>
      <trkpt lat="45.653" lon="6.85818">
        <ele>1990</ele>
        <time>2019-04-22T02:55:51Z</time>
      </trkpt>
      <trkpt lat="45.65243" lon="6.85793">
        <ele>1999</ele>
        <time>2019-04-22T02:56:51Z</time>
      </trkpt>
      <trkpt lat="45.6522" lon="6.85773">
        <ele>1996</ele>
        <time>2019-04-22T02:57:51Z</time>
      </trkpt>
      <trkpt lat="45.65189" lon="6.85733">
        <ele>1988</ele>
        <time>2019-04-22T02:58:51Z</time>
      </trkpt>
      <trkpt lat="45.65172" lon="6.85718">
        <ele>1987</ele>
        <time>2019-04-22T02:59:51Z</time>
      </trkpt>
      <trkpt lat="45.65101" lon="6.85668">
        <ele>1984</ele>
        <time>2019-04-22T03:00:51Z</time>
      </trkpt>
      <trkpt lat="45.65062" lon="6.85647">
        <ele>1991</ele>
        <time>2019-04-22T03:01:51Z</time>
      </trkpt>
      <trkpt lat="45.65051" lon="6.85637">
        <ele>1993</ele>
        <time>2019-04-22T03:02:51Z</time>
      </trkpt>
      <trkpt lat="45.65045" lon="6.85629">
        <ele>1993</ele>
        <time>2019-04-22T03:03:51Z</time>
      </trkpt>
      <trkpt lat="45.65015" lon="6.85561">
        <ele>1983</ele>
        <time>2019-04-22T03:04:51Z</time>
      </trkpt>
      <trkpt lat="45.64993" lon="6.85526">
        <ele>1984</ele>
        <time>2019-04-22T03:05:51Z</time>
      </trkpt>
      <trkpt lat="45.64978" lon="6.85499">
        <ele>1983</ele>
        <time>2019-04-22T03:06:51Z</time>
      </trkpt>
      <trkpt lat="45.64972" lon="6.85483">
        <ele>1982</ele>
        <time>2019-04-22T03:07:51Z</time>
      </trkpt>
      <trkpt lat="45.64968" lon="6.85467">
        <ele>1981</ele>
        <time>2019-04-22T03:08:51Z</time>
      </trkpt>
      <trkpt lat="45.64963" lon="6.85437">
        <ele>1977</ele>
        <time>2019-04-22T03:09:51Z</time>
      </trkpt>
      <trkpt lat="45.64958" lon="6.85415">
        <ele>1974</ele>
        <time>2019-04-22T03:10:51Z</time>
      </trkpt>
      <trkpt lat="45.64914" lon="6.85319">
        <ele>1972</ele>
        <time>2019-04-22T03:11:51Z</time>
      </trkpt>
      <trkpt lat="45.64902" lon="6.85295">
        <ele>1968</ele>
        <time>2019-04-22T03:12:51Z</time>
      </trkpt>
      <trkpt lat="45.64894" lon="6.85286">
        <ele>1968</ele>
        <time>2019-04-22T03:13:51Z</time>
      </trkpt>
      <trkpt lat="45.64877" lon="6.85276">
        <ele>1968</ele>
        <time>2019-04-22T03:14:51Z</time>
      </trkpt>
      <trkpt lat="45.64815" lon="6.85244">
        <ele>1968</ele>
        <time>2019-04-22T03:15:51Z</time>
      </trkpt>
      <trkpt lat="45.64772" lon="6.85219">
        <ele>1967</ele>
        <time>2019-04-22T03:16:51Z</time>
      </trkpt>
      <trkpt lat="45.64754" lon="6.85211">
        <ele>1967</ele>
        <time>2019-04-22T03:17:51Z</time>
      </trkpt>
      <trkpt lat="45.64719" lon="6.85207">
        <ele>1976</ele>
        <time>2019-04-22T03:18:51Z</time>
      </trkpt>
      <trkpt lat="45.64708" lon="6.852">
        <ele>1976</ele>
        <time>2019-04-22T03:19:51Z</time>
      </trkpt>
      <trkpt lat="45.64668" lon="6.8514">
        <ele>1962</ele>
        <time>2019-04-22T03:20:51Z</time>
      </trkpt>
      <trkpt lat="45.64634" lon="6.85092">
        <ele>1957</ele>
        <time>2019-04-22T03:21:51Z</time>
      </trkpt>
      <trkpt lat="45.6457" lon="6.85014">
        <ele>1955</ele>
        <time>2019-04-22T03:22:51Z</time>
      </trkpt>
      <trkpt lat="45.64542" lon="6.84953">
        <ele>1950</ele>
        <time>2019-04-22T03:23:51Z</time>
      </trkpt>
      <trkpt lat="45.64537" lon="6.84945">
        <ele>1950</ele>
        <time>2019-04-22T03:24:51Z</time>
      </trkpt>
      <trkpt lat="45.6451" lon="6.8492">
        <ele>1956</ele>
        <time>2019-04-22T03:25:51Z</time>
      </trkpt>
      <trkpt lat="45.64496" lon="6.84902">
        <ele>1955</ele>
        <time>2019-04-22T03:26:51Z</time>
      </trkpt>
      <trkpt lat="45.64488" lon="6.84888">
        <ele>1953</ele>
        <time>2019-04-22T03:27:51Z</time>
      </trkpt>
      <trkpt lat="45.64464" lon="6.84835">
        <ele>1944</ele>
        <time>2019-04-22T03:28:51Z</time>
      </trkpt>
      <trkpt lat="45.64448" lon="6.8481">
        <ele>1943</ele>
        <time>2019-04-22T03:29:51Z</time>
      </trkpt>
      <trkpt lat="45.64434" lon="6.84794">
        <ele>1943</ele>
        <time>2019-04-22T03:30:51Z</time>
      </trkpt>
      <trkpt lat="45.64417" lon="6.84779">
        <ele>1945</ele>
        <time>2019-04-22T03:31:51Z</time>
      </trkpt>
      <trkpt lat="45.64404" lon="6.84773">
        <ele>1946</ele>
        <time>2019-04-22T03:32:51Z</time>
      </trkpt>
      <trkpt lat="45.64382" lon="6.84767">
        <ele>1948</ele>
        <time>2019-04-22T03:33:51Z</time>
      </trkpt>
      <trkpt lat="45.64372" lon="6.84763">
        <ele>1949</ele>
        <time>2019-04-22T03:34:51Z</time>
      </trkpt>
      <trkpt lat="45.64328" lon="6.84717">
        <ele>1945</ele>
        <time>2019-04-22T03:35:51Z</time>
      </trkpt>
      <trkpt lat="45.64315" lon="6.84699">
        <ele>1943</ele>
        <time>2019-04-22T03:36:51Z</time>
      </trkpt>
      <trkpt lat="45.64266" lon="6.84619">
        <ele>1935</ele>
        <time>2019-04-22T03:37:51Z</time>
      </trkpt>
      <trkpt lat="45.64219" lon="6.84554">
        <ele>1935</ele>
        <time>2019-04-22T03:38:51Z</time>
      </trkpt>
      <trkpt lat="45.64203" lon="6.84518">
        <ele>1932</ele>
        <time>2019-04-22T03:39:51Z</time>
      </trkpt>
      <trkpt lat="45.64181" lon="6.84442">
        <ele>1919</ele>
        <time>2019-04-22T03:40:51Z</time>
      </trkpt>
      <trkpt lat="45.64176" lon="6.84433">
        <ele>1919</ele>
        <time>2019-04-22T03:41:51Z</time>
      </trkpt>
      <trkpt lat="45.64166" lon="6.84428">
        <ele>1921</ele>
        <time>2019-04-22T03:42:51Z</time>
      </trkpt>
      <trkpt lat="45.64147" lon="6.84436">
        <ele>1919</ele>
        <time>2019-04-22T03:43:51Z</time>
      </trkpt>
      <trkpt lat="45.64122" lon="6.84455">
        <ele>1919</ele>
        <time>2019-04-22T03:44:51Z</time>
      </trkpt>
      <trkpt lat="45.6407" lon="6.84508">
        <ele>1924</ele>
        <time>2019-04-22T03:45:51Z</time>
      </trkpt>
      <trkpt lat="45.64051" lon="6.84524">
        <ele>1924</ele>
        <time>2019-04-22T03:46:51Z</time>
      </trkpt>
      <trkpt lat="45.64022" lon="6.84539">
        <ele>1919</ele>
        <time>2019-04-22T03:47:51Z</time>
      </trkpt>
      <trkpt lat="45.63965" lon="6.84589">
        <ele>1918</ele>
        <time>2019-04-22T03:48:51Z</time>
      </trkpt>
      <trkpt lat="45.63954" lon="6.84601">
        <ele>1919</ele>
        <time>2019-04-22T03:49:51Z</time>
      </trkpt>
      <trkpt lat="45.63936" lon="6.84632">
        <ele>1923</ele>
        <time>2019-04-22T03:50:51Z</time>
      </trkpt>
      <trkpt lat="45.63928" lon="6.8464">
        <ele>1923</ele>
        <time>2019-04-22T03:51:51Z</time>
      </trkpt>
      <trkpt lat="45.63914" lon="6.84647">
        <ele>1921</ele>
        <time>2019-04-22T03:52:51Z</time>
      </trkpt>
      <trkpt lat="45.63893" lon="6.84652">
        <ele>1916</ele>
        <time>2019-04-22T03:53:51Z</time>
      </trkpt>
      <trkpt lat="45.63867" lon="6.84664">
        <ele>1913</ele>
        <time>2019-04-22T03:54:51Z</time>
      </trkpt>
      <trkpt lat="45.63855" lon="6.84668">
        <ele>1911</ele>
        <time>2019-04-22T03:55:51Z</time>
      </trkpt>
      <trkpt lat="45.6381" lon="6.84669">
        <ele>1902</ele>
        <time>2019-04-22T03:56:51Z</time>
      </trkpt>
      <trkpt lat="45.63795" lon="6.84677">
        <ele>1902</ele>
        <time>2019-04-22T03:57:51Z</time>
      </trkpt>
      <trkpt lat="45.63783" lon="6.84687">
        <ele>1901</ele>
        <time>2019-04-22T03:58:51Z</time>
      </trkpt>
      <trkpt lat="45.63774" lon="6.84699">
        <ele>1901</ele>
        <time>2019-04-22T03:59:51Z</time>
      </trkpt>
      <trkpt lat="45.63767" lon="6.84721">
        <ele>1903</ele>
        <time>2019-04-22T04:00:51Z</time>
      </trkpt>
      <trkpt lat="45.63765" lon="6.84739">
        <ele>1904</ele>
        <time>2019-04-22T04:01:51Z</time>
      </trkpt>
      <trkpt lat="45.63762" lon="6.84808">
        <ele>1905</ele>
        <time>2019-04-22T04:02:51Z</time>
      </trkpt>
      <trkpt lat="45.63758" lon="6.84826">
        <ele>1903</ele>
        <time>2019-04-22T04:03:51Z</time>
      </trkpt>
      <trkpt lat="45.63745" lon="6.84858">
        <ele>1903</ele>
        <time>2019-04-22T04:04:51Z</time>
      </trkpt>
      <trkpt lat="45.63728" lon="6.84884">
        <ele>1903</ele>
        <time>2019-04-22T04:05:51Z</time>
      </trkpt>
      <trkpt lat="45.6371" lon="6.84925">
        <ele>1904</ele>
        <time>2019-04-22T04:06:51Z</time>
      </trkpt>
      <trkpt lat="45.63703" lon="6.84936">
        <ele>1905</ele>
        <time>2019-04-22T04:07:51Z</time>
      </trkpt>
      <trkpt lat="45.63693" lon="6.84946">
        <ele>1903</ele>
        <time>2019-04-22T04:08:51Z</time>
      </trkpt>
      <trkpt lat="45.63671" lon="6.84964">
        <ele>1897</ele>
        <time>2019-04-22T04:09:51Z</time>
      </trkpt>
      <trkpt lat="45.63597" lon="6.85047">
        <ele>1902</ele>
        <time>2019-04-22T04:10:51Z</time>
      </trkpt>
      <trkpt lat="45.63591" lon="6.85052">
        <ele>1902</ele>
        <time>2019-04-22T04:11:51Z</time>
      </trkpt>
      <trkpt lat="45.63583" lon="6.85053">
        <ele>1900</ele>
        <time>2019-04-22T04:12:51Z</time>
      </trkpt>
      <trkpt lat="45.63549" lon="6.85033">
        <ele>1895</ele>
        <time>2019-04-22T04:13:51Z</time>
      </trkpt>
      <trkpt lat="45.63507" lon="6.85019">
        <ele>1892</ele>
        <time>2019-04-22T04:14:51Z</time>
      </trkpt>
      <trkpt lat="45.63497" lon="6.85012">
        <ele>1891</ele>
        <time>2019-04-22T04:15:51Z</time>
      </trkpt>
      <trkpt lat="45.63486" lon="6.85003">
        <ele>1891</ele>
        <time>2019-04-22T04:16:51Z</time>
      </trkpt>
      <trkpt lat="45.63477" lon="6.84989">
        <ele>1889</ele>
        <time>2019-04-22T04:17:51Z</time>
      </trkpt>
      <trkpt lat="45.63462" lon="6.84951">
        <ele>1880</ele>
        <time>2019-04-22T04:18:51Z</time>
      </trkpt>
      <trkpt lat="45.63453" lon="6.84937">
        <ele>1877</ele>
        <time>2019-04-22T04:19:51Z</time>
      </trkpt>
      <trkpt lat="45.63441" lon="6.84925">
        <ele>1876</ele>
        <time>2019-04-22T04:20:51Z</time>
      </trkpt>
      <trkpt lat="45.63427" lon="6.84917">
        <ele>1876</ele>
        <time>2019-04-22T04:21:51Z</time>
      </trkpt>
      <trkpt lat="45.63402" lon="6.84911">
        <ele>1876</ele>
        <time>2019-04-22T04:22:51Z</time>
      </trkpt>
      <trkpt lat="45.63347" lon="6.84905">
        <ele>1874</ele>
        <time>2019-04-22T04:23:51Z</time>
      </trkpt>
      <trkpt lat="45.63297" lon="6.84909">
        <ele>1881</ele>
        <time>2019-04-22T04:24:51Z</time>
      </trkpt>
      <trkpt lat="45.63268" lon="6.84901">
        <ele>1882</ele>
        <time>2019-04-22T04:25:51Z</time>
      </trkpt>
      <trkpt lat="45.6325" lon="6.84892">
        <ele>1881</ele>
        <time>2019-04-22T04:26:51Z</time>
      </trkpt>
      <trkpt lat="45.6322" lon="6.84862">
        <ele>1875</ele>
        <time>2019-04-22T04:27:51Z</time>
      </trkpt>
      <trkpt lat="45.63195" lon="6.84823">
        <ele>1866</ele>
        <time>2019-04-22T04:28:51Z</time>
      </trkpt>
      <trkpt lat="45.6318" lon="6.84805">
        <ele>1863</ele>
        <time>2019-04-22T04:29:51Z</time>
      </trkpt>
      <trkpt lat="45.63164" lon="6.8479">
        <ele>1862</ele>
        <time>2019-04-22T04:30:51Z</time>
      </trkpt>
      <trkpt lat="45.63135" lon="6.84771">
        <ele>1861</ele>
        <time>2019-04-22T04:31:51Z</time>
      </trkpt>
      <trkpt lat="45.63106" lon="6.84734">
        <ele>1855</ele>
        <time>2019-04-22T04:32:51Z</time>
      </trkpt>
      <trkpt lat="45.63062" lon="6.84707">
        <ele>1855</ele>
        <time>2019-04-22T04:33:51Z</time>
      </trkpt>
      <trkpt lat="45.63047" lon="6.84693">
        <ele>1854</ele>
        <time>2019-04-22T04:34:51Z</time>
      </trkpt>
      <trkpt lat="45.63024" lon="6.84664">
        <ele>1853</ele>
        <time>2019-04-22T04:35:51Z</time>
      </trkpt>
      <trkpt lat="45.63016" lon="6.84662">
        <ele>1853</ele>
        <time>2019-04-22T04:36:51Z</time>
      </trkpt>
      <trkpt lat="45.63005" lon="6.84666">
        <ele>1856</ele>
        <time>2019-04-22T04:37:51Z</time>
      </trkpt>
      <trkpt lat="45.63" lon="6.84671">
        <ele>1857</ele>
        <time>2019-04-22T04:38:51Z</time>
      </trkpt>
      <trkpt lat="45.62976" lon="6.84704">
        <ele>1858</ele>
        <time>2019-04-22T04:39:51Z</time>
      </trkpt>
      <trkpt lat="45.62894" lon="6.848">
        <ele>1856</ele>
        <time>2019-04-22T04:40:51Z</time>
      </trkpt>
      <trkpt lat="45.62877" lon="6.84813">
        <ele>1855</ele>
        <time>2019-04-22T04:41:51Z</time>
      </trkpt>
      <trkpt lat="45.6282" lon="6.84842">
        <ele>1850</ele>
        <time>2019-04-22T04:42:51Z</time>
      </trkpt>
      <trkpt lat="45.62789" lon="6.84862">
        <ele>1847</ele>
        <time>2019-04-22T04:43:51Z</time>
      </trkpt>
      <trkpt lat="45.62775" lon="6.84875">
        <ele>1847</ele>
        <time>2019-04-22T04:44:51Z</time>
      </trkpt>
      <trkpt lat="45.62766" lon="6.84888">
        <ele>1847</ele>
        <time>2019-04-22T04:45:51Z</time>
      </trkpt>
      <trkpt lat="45.62734" lon="6.84947">
        <ele>1846</ele>
        <time>2019-04-22T04:46:51Z</time>
      </trkpt>
      <trkpt lat="45.62725" lon="6.84959">
        <ele>1845</ele>
        <time>2019-04-22T04:47:51Z</time>
      </trkpt>
      <trkpt lat="45.6271" lon="6.84968">
        <ele>1843</ele>
        <time>2019-04-22T04:48:51Z</time>
      </trkpt>
      <trkpt lat="45.62697" lon="6.8498">
        <ele>1841</ele>
        <time>2019-04-22T04:49:51Z</time>
      </trkpt>
      <trkpt lat="45.62686" lon="6.84998">
        <ele>1841</ele>
        <time>2019-04-22T04:50:51Z</time>
      </trkpt>
      <trkpt lat="45.62679" lon="6.85013">
        <ele>1841</ele>
        <time>2019-04-22T04:51:51Z</time>
      </trkpt>
      <trkpt lat="45.62669" lon="6.85048">
        <ele>1842</ele>
        <time>2019-04-22T04:52:51Z</time>
      </trkpt>
      <trkpt lat="45.62661" lon="6.85062">
        <ele>1841</ele>
        <time>2019-04-22T04:53:51Z</time>
      </trkpt>
      <trkpt lat="45.62622" lon="6.85107">
        <ele>1837</ele>
        <time>2019-04-22T04:54:51Z</time>
      </trkpt>
      <trkpt lat="45.62609" lon="6.85135">
        <ele>1838</ele>
        <time>2019-04-22T04:55:51Z</time>
      </trkpt>
      <trkpt lat="45.626" lon="6.85161">
        <ele>1839</ele>
        <time>2019-04-22T04:56:51Z</time>
      </trkpt>
      <trkpt lat="45.62584" lon="6.85222">
        <ele>1837</ele>
        <time>2019-04-22T04:57:51Z</time>
      </trkpt>
      <trkpt lat="45.62581" lon="6.85239">
        <ele>1836</ele>
        <time>2019-04-22T04:58:51Z</time>
      </trkpt>
      <trkpt lat="45.62577" lon="6.85282">
        <ele>1835</ele>
        <time>2019-04-22T04:59:51Z</time>
      </trkpt>
      <trkpt lat="45.62574" lon="6.85367">
        <ele>1833</ele>
        <time>2019-04-22T05:00:51Z</time>
      </trkpt>
      <trkpt lat="45.62565" lon="6.85428">
        <ele>1829</ele>
        <time>2019-04-22T05:01:51Z</time>
      </trkpt>
      <trkpt lat="45.62566" lon="6.85492">
        <ele>1828</ele>
        <time>2019-04-22T05:02:51Z</time>
      </trkpt>
      <trkpt lat="45.62564" lon="6.85509">
        <ele>1828</ele>
        <time>2019-04-22T05:03:51Z</time>
      </trkpt>
      <trkpt lat="45.6256" lon="6.85522">
        <ele>1828</ele>
        <time>2019-04-22T05:04:51Z</time>
      </trkpt>
      <trkpt lat="45.6254" lon="6.85556">
        <ele>1823</ele>
        <time>2019-04-22T05:05:51Z</time>
      </trkpt>
      <trkpt lat="45.62494" lon="6.85669">
        <ele>1818</ele>
        <time>2019-04-22T05:06:51Z</time>
      </trkpt>
      <trkpt lat="45.62488" lon="6.85679">
        <ele>1818</ele>
        <time>2019-04-22T05:07:51Z</time>
      </trkpt>
      <trkpt lat="45.62473" lon="6.857">
        <ele>1817</ele>
        <time>2019-04-22T05:08:51Z</time>
      </trkpt>
      <trkpt lat="45.6244" lon="6.85736">
        <ele>1813</ele>
        <time>2019-04-22T05:09:51Z</time>
      </trkpt>
      <trkpt lat="45.62422" lon="6.85763">
        <ele>1810</ele>
        <time>2019-04-22T05:10:51Z</time>
      </trkpt>
      <trkpt lat="45.62417" lon="6.85777">
        <ele>1810</ele>
        <time>2019-04-22T05:11:51Z</time>
      </trkpt>
      <trkpt lat="45.62412" lon="6.85796">
        <ele>1810</ele>
        <time>2019-04-22T05:12:51Z</time>
      </trkpt>
      <trkpt lat="45.62405" lon="6.85797">
        <ele>1807</ele>
        <time>2019-04-22T05:13:51Z</time>
      </trkpt>
      <trkpt lat="45.624" lon="6.85804">
        <ele>1806</ele>
        <time>2019-04-22T05:14:51Z</time>
      </trkpt>
      <trkpt lat="45.62399" lon="6.85809">
        <ele>1805</ele>
        <time>2019-04-22T05:15:51Z</time>
      </trkpt>
      <trkpt lat="45.62402" lon="6.85818">
        <ele>1807</ele>
        <time>2019-04-22T05:16:51Z</time>
      </trkpt>
      <trkpt lat="45.62404" lon="6.85821">
        <ele>1808</ele>
        <time>2019-04-22T05:17:51Z</time>
      </trkpt>
      <trkpt lat="45.62401" lon="6.85829">
        <ele>1808</ele>
        <time>2019-04-22T05:18:51Z</time>
      </trkpt>
      <trkpt lat="45.62399" lon="6.85844">
        <ele>1807</ele>
        <time>2019-04-22T05:19:51Z</time>
      </trkpt>
      <trkpt lat="45.62399" lon="6.86047">
        <ele>1800</ele>
        <time>2019-04-22T05:20:51Z</time>
      </trkpt>
      <trkpt lat="45.624" lon="6.86067">
        <ele>1799</ele>
        <time>2019-04-22T05:21:51Z</time>
      </trkpt>
      <trkpt lat="45.62407" lon="6.86119">
        <ele>1798</ele>
        <time>2019-04-22T05:22:51Z</time>
      </trkpt>
      <trkpt lat="45.62409" lon="6.86193">
        <ele>1794</ele>
        <time>2019-04-22T05:23:51Z</time>
      </trkpt>
      <trkpt lat="45.62414" lon="6.86252">
        <ele>1793</ele>
        <time>2019-04-22T05:24:51Z</time>
      </trkpt>
      <trkpt lat="45.62414" lon="6.86274">
        <ele>1791</ele>
        <time>2019-04-22T05:25:51Z</time>
      </trkpt>
      <trkpt lat="45.62405" lon="6.86337">
        <ele>1784</ele>
        <time>2019-04-22T05:26:51Z</time>
      </trkpt>
      <trkpt lat="45.624" lon="6.86409">
        <ele>1779</ele>
        <time>2019-04-22T05:27:51Z</time>
      </trkpt>
      <trkpt lat="45.624" lon="6.86445">
        <ele>1777</ele>
        <time>2019-04-22T05:28:51Z</time>
      </trkpt>
      <trkpt lat="45.62404" lon="6.86463">
        <ele>1777</ele>
        <time>2019-04-22T05:29:51Z</time>
      </trkpt>
      <trkpt lat="45.6242" lon="6.86496">
        <ele>1781</ele>
        <time>2019-04-22T05:30:51Z</time>
      </trkpt>
      <trkpt lat="45.62423" lon="6.8651">
        <ele>1781</ele>
        <time>2019-04-22T05:31:51Z</time>
      </trkpt>
      <trkpt lat="45.62422" lon="6.86519">
        <ele>1780</ele>
        <time>2019-04-22T05:32:51Z</time>
      </trkpt>
      <trkpt lat="45.62419" lon="6.86524">
        <ele>1779</ele>
        <time>2019-04-22T05:33:51Z</time>
      </trkpt>
      <trkpt lat="45.62414" lon="6.86526">
        <ele>1777</ele>
        <time>2019-04-22T05:34:51Z</time>
      </trkpt>
      <trkpt lat="45.62407" lon="6.86523">
        <ele>1774</ele>
        <time>2019-04-22T05:35:51Z</time>
      </trkpt>
      <trkpt lat="45.62403" lon="6.86518">
        <ele>1773</ele>
        <time>2019-04-22T05:36:51Z</time>
      </trkpt>
      <trkpt lat="45.62396" lon="6.86502">
        <ele>1771</ele>
        <time>2019-04-22T05:37:51Z</time>
      </trkpt>
      <trkpt lat="45.62386" lon="6.86456">
        <ele>1770</ele>
        <time>2019-04-22T05:38:51Z</time>
      </trkpt>
      <trkpt lat="45.62378" lon="6.86404">
        <ele>1770</ele>
        <time>2019-04-22T05:39:51Z</time>
      </trkpt>
      <trkpt lat="45.62364" lon="6.86304">
        <ele>1768</ele>
        <time>2019-04-22T05:40:51Z</time>
      </trkpt>
      <trkpt lat="45.62344" lon="6.86216">
        <ele>1766</ele>
        <time>2019-04-22T05:41:51Z</time>
      </trkpt>
      <trkpt lat="45.62329" lon="6.86131">
        <ele>1767</ele>
        <time>2019-04-22T05:42:51Z</time>
      </trkpt>
      <trkpt lat="45.62321" lon="6.86101">
        <ele>1766</ele>
        <time>2019-04-22T05:43:51Z</time>
      </trkpt>
      <trkpt lat="45.62309" lon="6.86073">
        <ele>1764</ele>
        <time>2019-04-22T05:44:51Z</time>
      </trkpt>
      <trkpt lat="45.6228" lon="6.86012">
        <ele>1758</ele>
        <time>2019-04-22T05:45:51Z</time>
      </trkpt>
      <trkpt lat="45.62273" lon="6.85991">
        <ele>1757</ele>
        <time>2019-04-22T05:46:51Z</time>
      </trkpt>
      <trkpt lat="45.62269" lon="6.85969">
        <ele>1756</ele>
        <time>2019-04-22T05:47:51Z</time>
      </trkpt>
      <trkpt lat="45.6226" lon="6.85818">
        <ele>1748</ele>
        <time>2019-04-22T05:48:51Z</time>
      </trkpt>
      <trkpt lat="45.6226" lon="6.85792">
        <ele>1747</ele>
        <time>2019-04-22T05:49:51Z</time>
      </trkpt>
      <trkpt lat="45.62262" lon="6.85784">
        <ele>1747</ele>
        <time>2019-04-22T05:50:51Z</time>
      </trkpt>
      <trkpt lat="45.6227" lon="6.85765">
        <ele>1750</ele>
        <time>2019-04-22T05:51:51Z</time>
      </trkpt>
      <trkpt lat="45.62284" lon="6.8574">
        <ele>1754</ele>
        <time>2019-04-22T05:52:51Z</time>
      </trkpt>
      <trkpt lat="45.62291" lon="6.85719">
        <ele>1755</ele>
        <time>2019-04-22T05:53:51Z</time>
      </trkpt>
      <trkpt lat="45.62294" lon="6.85699">
        <ele>1754</ele>
        <time>2019-04-22T05:54:51Z</time>
      </trkpt>
      <trkpt lat="45.62305" lon="6.85568">
        <ele>1746</ele>
        <time>2019-04-22T05:55:51Z</time>
      </trkpt>
      <trkpt lat="45.62306" lon="6.85531">
        <ele>1743</ele>
        <time>2019-04-22T05:56:51Z</time>
      </trkpt>
      <trkpt lat="45.62302" lon="6.85482">
        <ele>1738</ele>
        <time>2019-04-22T05:57:51Z</time>
      </trkpt>
      <trkpt lat="45.62285" lon="6.85358">
        <ele>1732</ele>
        <time>2019-04-22T05:58:51Z</time>
      </trkpt>
      <trkpt lat="45.62284" lon="6.85331">
        <ele>1733</ele>
        <time>2019-04-22T05:59:51Z</time>
      </trkpt>
      <trkpt lat="45.62297" lon="6.85241">
        <ele>1733</ele>
        <time>2019-04-22T06:00:51Z</time>
      </trkpt>
      <trkpt lat="45.62319" lon="6.85168">
        <ele>1730</ele>
        <time>2019-04-22T06:01:51Z</time>
      </trkpt>
      <trkpt lat="45.62333" lon="6.85101">
        <ele>1729</ele>
        <time>2019-04-22T06:02:51Z</time>
      </trkpt>
      <trkpt lat="45.62335" lon="6.85086">
        <ele>1728</ele>
        <time>2019-04-22T06:03:51Z</time>
      </trkpt>
      <trkpt lat="45.62332" lon="6.85076">
        <ele>1726</ele>
        <time>2019-04-22T06:04:51Z</time>
      </trkpt>
      <trkpt lat="45.62326" lon="6.85073">
        <ele>1724</ele>
        <time>2019-04-22T06:05:51Z</time>
      </trkpt>
      <trkpt lat="45.62322" lon="6.85075">
        <ele>1723</ele>
        <time>2019-04-22T06:06:51Z</time>
      </trkpt>
      <trkpt lat="45.62317" lon="6.85081">
        <ele>1721</ele>
        <time>2019-04-22T06:07:51Z</time>
      </trkpt>
      <trkpt lat="45.62314" lon="6.85092">
        <ele>1721</ele>
        <time>2019-04-22T06:08:51Z</time>
      </trkpt>
      <trkpt lat="45.62307" lon="6.85155">
        <ele>1725</ele>
        <time>2019-04-22T06:09:51Z</time>
      </trkpt>
      <trkpt lat="45.62288" lon="6.85214">
        <ele>1726</ele>
        <time>2019-04-22T06:10:51Z</time>
      </trkpt>
      <trkpt lat="45.6227" lon="6.85263">
        <ele>1725</ele>
        <time>2019-04-22T06:11:51Z</time>
      </trkpt>
      <trkpt lat="45.62263" lon="6.85288">
        <ele>1723</ele>
        <time>2019-04-22T06:12:51Z</time>
      </trkpt>
      <trkpt lat="45.62253" lon="6.85354">
        <ele>1719</ele>
        <time>2019-04-22T06:13:51Z</time>
      </trkpt>
      <trkpt lat="45.62253" lon="6.8539">
        <ele>1718</ele>
        <time>2019-04-22T06:14:51Z</time>
      </trkpt>
      <trkpt lat="45.62256" lon="6.85427">
        <ele>1718</ele>
        <time>2019-04-22T06:15:51Z</time>
      </trkpt>
      <trkpt lat="45.62254" lon="6.8545">
        <ele>1718</ele>
        <time>2019-04-22T06:16:51Z</time>
      </trkpt>
      <trkpt lat="45.62247" lon="6.85476">
        <ele>1715</ele>
        <time>2019-04-22T06:17:51Z</time>
      </trkpt>
      <trkpt lat="45.6224" lon="6.85527">
        <ele>1714</ele>
        <time>2019-04-22T06:18:51Z</time>
      </trkpt>
      <trkpt lat="45.62238" lon="6.85536">
        <ele>1713</ele>
        <time>2019-04-22T06:19:51Z</time>
      </trkpt>
      <trkpt lat="45.6223" lon="6.85554">
        <ele>1711</ele>
        <time>2019-04-22T06:20:51Z</time>
      </trkpt>
      <trkpt lat="45.62203" lon="6.85593">
        <ele>1704</ele>
        <time>2019-04-22T06:21:51Z</time>
      </trkpt>
      <trkpt lat="45.62197" lon="6.85611">
        <ele>1703</ele>
        <time>2019-04-22T06:22:51Z</time>
      </trkpt>
      <trkpt lat="45.62193" lon="6.85632">
        <ele>1703</ele>
        <time>2019-04-22T06:23:51Z</time>
      </trkpt>
      <trkpt lat="45.62198" lon="6.85678">
        <ele>1709</ele>
        <time>2019-04-22T06:24:51Z</time>
      </trkpt>
      <trkpt lat="45.62194" lon="6.857">
        <ele>1709</ele>
        <time>2019-04-22T06:25:51Z</time>
      </trkpt>
      <trkpt lat="45.62187" lon="6.85712">
        <ele>1707</ele>
        <time>2019-04-22T06:26:51Z</time>
      </trkpt>
      <trkpt lat="45.62164" lon="6.85738">
        <ele>1700</ele>
        <time>2019-04-22T06:27:51Z</time>
      </trkpt>
      <trkpt lat="45.62149" lon="6.85757">
        <ele>1694</ele>
        <time>2019-04-22T06:28:51Z</time>
      </trkpt>
      <trkpt lat="45.62143" lon="6.85775">
        <ele>1693</ele>
        <time>2019-04-22T06:29:51Z</time>
      </trkpt>
      <trkpt lat="45.62123" lon="6.85907">
        <ele>1695</ele>
        <time>2019-04-22T06:30:51Z</time>
      </trkpt>
      <trkpt lat="45.62117" lon="6.85966">
        <ele>1694</ele>
        <time>2019-04-22T06:31:51Z</time>
      </trkpt>
      <trkpt lat="45.62112" lon="6.85976">
        <ele>1692</ele>
        <time>2019-04-22T06:32:51Z</time>
      </trkpt>
      <trkpt lat="45.62107" lon="6.85979">
        <ele>1691</ele>
        <time>2019-04-22T06:33:51Z</time>
      </trkpt>
      <trkpt lat="45.62102" lon="6.85977">
        <ele>1689</ele>
        <time>2019-04-22T06:34:51Z</time>
      </trkpt>
      <trkpt lat="45.62099" lon="6.8597">
        <ele>1687</ele>
        <time>2019-04-22T06:35:51Z</time>
      </trkpt>
      <trkpt lat="45.62099" lon="6.85962">
        <ele>1687</ele>
        <time>2019-04-22T06:36:51Z</time>
      </trkpt>
      <trkpt lat="45.62105" lon="6.85936">
        <ele>1689</ele>
        <time>2019-04-22T06:37:51Z</time>
      </trkpt>
      <trkpt lat="45.62113" lon="6.85876">
        <ele>1688</ele>
        <time>2019-04-22T06:38:51Z</time>
      </trkpt>
      <trkpt lat="45.62119" lon="6.85777">
        <ele>1681</ele>
        <time>2019-04-22T06:39:51Z</time>
      </trkpt>
      <trkpt lat="45.62125" lon="6.85756">
        <ele>1682</ele>
        <time>2019-04-22T06:40:51Z</time>
      </trkpt>
      <trkpt lat="45.62138" lon="6.85732">
        <ele>1686</ele>
        <time>2019-04-22T06:41:51Z</time>
      </trkpt>
      <trkpt lat="45.62145" lon="6.85713">
        <ele>1688</ele>
        <time>2019-04-22T06:42:51Z</time>
      </trkpt>
      <trkpt lat="45.62145" lon="6.85693">
        <ele>1686</ele>
        <time>2019-04-22T06:43:51Z</time>
      </trkpt>
      <trkpt lat="45.62139" lon="6.85664">
        <ele>1680</ele>
        <time>2019-04-22T06:44:51Z</time>
      </trkpt>
      <trkpt lat="45.6214" lon="6.85636">
        <ele>1679</ele>
        <time>2019-04-22T06:45:51Z</time>
      </trkpt>
      <trkpt lat="45.62169" lon="6.85507">
        <ele>1680</ele>
        <time>2019-04-22T06:46:51Z</time>
      </trkpt>
      <trkpt lat="45.62171" lon="6.85491">
        <ele>1680</ele>
        <time>2019-04-22T06:47:51Z</time>
      </trkpt>
      <trkpt lat="45.6217" lon="6.85477">
        <ele>1680</ele>
        <time>2019-04-22T06:48:51Z</time>
      </trkpt>
      <trkpt lat="45.62167" lon="6.85466">
        <ele>1678</ele>
        <time>2019-04-22T06:49:51Z</time>
      </trkpt>
      <trkpt lat="45.62153" lon="6.85434">
        <ele>1673</ele>
        <time>2019-04-22T06:50:51Z</time>
      </trkpt>
      <trkpt lat="45.62148" lon="6.85408">
        <ele>1671</ele>
        <time>2019-04-22T06:51:51Z</time>
      </trkpt>
      <trkpt lat="45.62145" lon="6.8536">
        <ele>1670</ele>
        <time>2019-04-22T06:52:51Z</time>
      </trkpt>
      <trkpt lat="45.62141" lon="6.85245">
        <ele>1669</ele>
        <time>2019-04-22T06:53:51Z</time>
      </trkpt>
      <trkpt lat="45.62142" lon="6.85229">
        <ele>1668</ele>
        <time>2019-04-22T06:54:51Z</time>
      </trkpt>
      <trkpt lat="45.62153" lon="6.85138">
        <ele>1664</ele>
        <time>2019-04-22T06:55:51Z</time>
      </trkpt>
      <trkpt lat="45.62158" lon="6.85115">
        <ele>1663</ele>
        <time>2019-04-22T06:56:51Z</time>
      </trkpt>
      <trkpt lat="45.62179" lon="6.85051">
        <ele>1665</ele>
        <time>2019-04-22T06:57:51Z</time>
      </trkpt>
      <trkpt lat="45.6218" lon="6.85034">
        <ele>1663</ele>
        <time>2019-04-22T06:58:51Z</time>
      </trkpt>
      <trkpt lat="45.62173" lon="6.84922">
        <ele>1653</ele>
        <time>2019-04-22T06:59:51Z</time>
      </trkpt>
      <trkpt lat="45.62172" lon="6.84891">
        <ele>1651</ele>
        <time>2019-04-22T07:00:51Z</time>
      </trkpt>
      <trkpt lat="45.62177" lon="6.84813">
        <ele>1651</ele>
        <time>2019-04-22T07:01:51Z</time>
      </trkpt>
      <trkpt lat="45.6217" lon="6.84654">
        <ele>1644</ele>
        <time>2019-04-22T07:02:51Z</time>
      </trkpt>
      <trkpt lat="45.62173" lon="6.84636">
        <ele>1642</ele>
        <time>2019-04-22T07:03:51Z</time>
      </trkpt>
      <trkpt lat="45.62179" lon="6.84622">
        <ele>1642</ele>
        <time>2019-04-22T07:04:51Z</time>
      </trkpt>
      <trkpt lat="45.62174" lon="6.8462">
        <ele>1640</ele>
        <time>2019-04-22T07:05:51Z</time>
      </trkpt>
      <trkpt lat="45.62168" lon="6.84622">
        <ele>1639</ele>
        <time>2019-04-22T07:06:51Z</time>
      </trkpt>
      <trkpt lat="45.62165" lon="6.84629">
        <ele>1638</ele>
        <time>2019-04-22T07:07:51Z</time>
      </trkpt>
      <trkpt lat="45.62126" lon="6.84761">
        <ele>1631</ele>
        <time>2019-04-22T07:08:51Z</time>
      </trkpt>
      <trkpt lat="45.62108" lon="6.84809">
        <ele>1625</ele>
        <time>2019-04-22T07:09:51Z</time>
      </trkpt>
      <trkpt lat="45.62098" lon="6.84845">
        <ele>1622</ele>
        <time>2019-04-22T07:10:51Z</time>
      </trkpt>
      <trkpt lat="45.62091" lon="6.84862">
        <ele>1620</ele>
        <time>2019-04-22T07:11:51Z</time>
      </trkpt>
      <trkpt lat="45.62087" lon="6.84881">
        <ele>1618</ele>
        <time>2019-04-22T07:12:51Z</time>
      </trkpt>
      <trkpt lat="45.62086" lon="6.84901">
        <ele>1618</ele>
        <time>2019-04-22T07:13:51Z</time>
      </trkpt>
      <trkpt lat="45.62087" lon="6.84956">
        <ele>1619</ele>
        <time>2019-04-22T07:14:51Z</time>
      </trkpt>
      <trkpt lat="45.62077" lon="6.84995">
        <ele>1615</ele>
        <time>2019-04-22T07:15:51Z</time>
      </trkpt>
      <trkpt lat="45.62077" lon="6.85026">
        <ele>1617</ele>
        <time>2019-04-22T07:16:51Z</time>
      </trkpt>
      <trkpt lat="45.62074" lon="6.85036">
        <ele>1616</ele>
        <time>2019-04-22T07:17:51Z</time>
      </trkpt>
      <trkpt lat="45.62069" lon="6.85044">
        <ele>1615</ele>
        <time>2019-04-22T07:18:51Z</time>
      </trkpt>
      <trkpt lat="45.62061" lon="6.85051">
        <ele>1612</ele>
        <time>2019-04-22T07:19:51Z</time>
      </trkpt>
      <trkpt lat="45.62038" lon="6.8506">
        <ele>1602</ele>
        <time>2019-04-22T07:20:51Z</time>
      </trkpt>
      <trkpt lat="45.62028" lon="6.85067">
        <ele>1597</ele>
        <time>2019-04-22T07:21:51Z</time>
      </trkpt>
      <trkpt lat="45.62024" lon="6.85077">
        <ele>1596</ele>
        <time>2019-04-22T07:22:51Z</time>
      </trkpt>
      <trkpt lat="45.62019" lon="6.85137">
        <ele>1599</ele>
        <time>2019-04-22T07:23:51Z</time>
      </trkpt>
      <trkpt lat="45.62016" lon="6.85151">
        <ele>1599</ele>
        <time>2019-04-22T07:24:51Z</time>
      </trkpt>
      <trkpt lat="45.62004" lon="6.8518">
        <ele>1596</ele>
        <time>2019-04-22T07:25:51Z</time>
      </trkpt>
      <trkpt lat="45.61986" lon="6.85216">
        <ele>1590</ele>
        <time>2019-04-22T07:26:51Z</time>
      </trkpt>
      <trkpt lat="45.61975" lon="6.85246">
        <ele>1587</ele>
        <time>2019-04-22T07:27:51Z</time>
      </trkpt>
      <trkpt lat="45.61967" lon="6.85278">
        <ele>1586</ele>
        <time>2019-04-22T07:28:51Z</time>
      </trkpt>
      <trkpt lat="45.61962" lon="6.85289">
        <ele>1584</ele>
        <time>2019-04-22T07:29:51Z</time>
      </trkpt>
      <trkpt lat="45.6195" lon="6.85339">
        <ele>1581</ele>
        <time>2019-04-22T07:30:51Z</time>
      </trkpt>
      <trkpt lat="45.61942" lon="6.85363">
        <ele>1579</ele>
        <time>2019-04-22T07:31:51Z</time>
      </trkpt>
      <trkpt lat="45.61928" lon="6.85394">
        <ele>1576</ele>
        <time>2019-04-22T07:32:51Z</time>
      </trkpt>
      <trkpt lat="45.61918" lon="6.85408">
        <ele>1573</ele>
        <time>2019-04-22T07:33:51Z</time>
      </trkpt>
      <trkpt lat="45.61909" lon="6.85425">
        <ele>1570</ele>
        <time>2019-04-22T07:34:51Z</time>
      </trkpt>
      <trkpt lat="45.61901" lon="6.85451">
        <ele>1569</ele>
        <time>2019-04-22T07:35:51Z</time>
      </trkpt>
      <trkpt lat="45.61884" lon="6.85535">
        <ele>1565</ele>
        <time>2019-04-22T07:36:51Z</time>
      </trkpt>
      <trkpt lat="45.61879" lon="6.85599">
        <ele>1564</ele>
        <time>2019-04-22T07:37:51Z</time>
      </trkpt>
      <trkpt lat="45.6187" lon="6.85635">
        <ele>1563</ele>
        <time>2019-04-22T07:38:51Z</time>
      </trkpt>
      <trkpt lat="45.61856" lon="6.85654">
        <ele>1559</ele>
        <time>2019-04-22T07:39:51Z</time>
      </trkpt>
      <trkpt lat="45.61826" lon="6.85675">
        <ele>1551</ele>
        <time>2019-04-22T07:40:51Z</time>
      </trkpt>
      <trkpt lat="45.61767" lon="6.85771">
        <ele>1543</ele>
        <time>2019-04-22T07:41:51Z</time>
      </trkpt>
      <trkpt lat="45.61736" lon="6.85808">
        <ele>1538</ele>
        <time>2019-04-22T07:42:51Z</time>
      </trkpt>
      <trkpt lat="45.61721" lon="6.85845">
        <ele>1537</ele>
        <time>2019-04-22T07:43:51Z</time>
      </trkpt>
      <trkpt lat="45.61701" lon="6.85868">
        <ele>1532</ele>
        <time>2019-04-22T07:44:51Z</time>
      </trkpt>
      <trkpt lat="45.61655" lon="6.85949">
        <ele>1522</ele>
        <time>2019-04-22T07:45:51Z</time>
      </trkpt>
      <trkpt lat="45.61645" lon="6.85975">
        <ele>1520</ele>
        <time>2019-04-22T07:46:51Z</time>
      </trkpt>
      <trkpt lat="45.61635" lon="6.86032">
        <ele>1518</ele>
        <time>2019-04-22T07:47:51Z</time>
      </trkpt>
      <trkpt lat="45.61619" lon="6.86077">
        <ele>1512</ele>
        <time>2019-04-22T07:48:51Z</time>
      </trkpt>
      <trkpt lat="45.61611" lon="6.86121">
        <ele>1509</ele>
        <time>2019-04-22T07:49:51Z</time>
      </trkpt>
      <trkpt lat="45.61607" lon="6.86172">
        <ele>1508</ele>
        <time>2019-04-22T07:50:51Z</time>
      </trkpt>
      <trkpt lat="45.61611" lon="6.86205">
        <ele>1510</ele>
        <time>2019-04-22T07:51:51Z</time>
      </trkpt>
      <trkpt lat="45.6161" lon="6.86232">
        <ele>1510</ele>
        <time>2019-04-22T07:52:51Z</time>
      </trkpt>
      <trkpt lat="45.6159" lon="6.86284">
        <ele>1503</ele>
        <time>2019-04-22T07:53:51Z</time>
      </trkpt>
      <trkpt lat="45.61583" lon="6.86291">
        <ele>1501</ele>
        <time>2019-04-22T07:54:51Z</time>
      </trkpt>
      <trkpt lat="45.61576" lon="6.86288">
        <ele>1500</ele>
        <time>2019-04-22T07:55:51Z</time>
      </trkpt>
      <trkpt lat="45.61582" lon="6.86217">
        <ele>1499</ele>
        <time>2019-04-22T07:56:51Z</time>
      </trkpt>
      <trkpt lat="45.61578" lon="6.86182">
        <ele>1498</ele>
        <time>2019-04-22T07:57:51Z</time>
      </trkpt>
      <trkpt lat="45.61557" lon="6.86118">
        <ele>1492</ele>
        <time>2019-04-22T07:58:51Z</time>
      </trkpt>
      <trkpt lat="45.61551" lon="6.86065">
        <ele>1488</ele>
        <time>2019-04-22T07:59:51Z</time>
      </trkpt>
      <trkpt lat="45.6154" lon="6.86013">
        <ele>1482</ele>
        <time>2019-04-22T08:00:51Z</time>
      </trkpt>
      <trkpt lat="45.61533" lon="6.85944">
        <ele>1476</ele>
        <time>2019-04-22T08:01:51Z</time>
      </trkpt>
      <trkpt lat="45.61531" lon="6.85867">
        <ele>1466</ele>
        <time>2019-04-22T08:02:51Z</time>
      </trkpt>
      <trkpt lat="45.61532" lon="6.85853">
        <ele>1465</ele>
        <time>2019-04-22T08:03:51Z</time>
      </trkpt>
      <trkpt lat="45.61534" lon="6.85841">
        <ele>1464</ele>
        <time>2019-04-22T08:04:51Z</time>
      </trkpt>
      <trkpt lat="45.61539" lon="6.85832">
        <ele>1464</ele>
        <time>2019-04-22T08:05:51Z</time>
      </trkpt>
      <trkpt lat="45.61547" lon="6.85829">
        <ele>1467</ele>
        <time>2019-04-22T08:06:51Z</time>
      </trkpt>
      <trkpt lat="45.61554" lon="6.8583">
        <ele>1470</ele>
        <time>2019-04-22T08:07:51Z</time>
      </trkpt>
      <trkpt lat="45.61564" lon="6.85827">
        <ele>1473</ele>
        <time>2019-04-22T08:08:51Z</time>
      </trkpt>
      <trkpt lat="45.6157" lon="6.85823">
        <ele>1475</ele>
        <time>2019-04-22T08:09:51Z</time>
      </trkpt>
      <trkpt lat="45.61577" lon="6.85813">
        <ele>1476</ele>
        <time>2019-04-22T08:10:51Z</time>
      </trkpt>
      <trkpt lat="45.61582" lon="6.85795">
        <ele>1475</ele>
        <time>2019-04-22T08:11:51Z</time>
      </trkpt>
      <trkpt lat="45.61591" lon="6.85747">
        <ele>1470</ele>
        <time>2019-04-22T08:12:51Z</time>
      </trkpt>
      <trkpt lat="45.61595" lon="6.85707">
        <ele>1470</ele>
        <time>2019-04-22T08:13:51Z</time>
      </trkpt>
      <trkpt lat="45.61587" lon="6.85654">
        <ele>1463</ele>
        <time>2019-04-22T08:14:51Z</time>
      </trkpt>
      <trkpt lat="45.6159" lon="6.85617">
        <ele>1460</ele>
        <time>2019-04-22T08:15:51Z</time>
      </trkpt>
      <trkpt lat="45.61617" lon="6.85505">
        <ele>1457</ele>
        <time>2019-04-22T08:16:51Z</time>
      </trkpt>
      <trkpt lat="45.6162" lon="6.85448">
        <ele>1450</ele>
        <time>2019-04-22T08:17:51Z</time>
      </trkpt>
      <trkpt lat="45.6165" lon="6.85344">
        <ele>1443</ele>
        <time>2019-04-22T08:18:51Z</time>
      </trkpt>
      <trkpt lat="45.61672" lon="6.85302">
        <ele>1444</ele>
        <time>2019-04-22T08:19:51Z</time>
      </trkpt>
      <trkpt lat="45.61688" lon="6.85246">
        <ele>1442</ele>
        <time>2019-04-22T08:20:51Z</time>
      </trkpt>
      <trkpt lat="45.61692" lon="6.85195">
        <ele>1440</ele>
        <time>2019-04-22T08:21:51Z</time>
      </trkpt>
      <trkpt lat="45.61689" lon="6.85185">
        <ele>1438</ele>
        <time>2019-04-22T08:22:51Z</time>
      </trkpt>
      <trkpt lat="45.61681" lon="6.85192">
        <ele>1434</ele>
        <time>2019-04-22T08:23:51Z</time>
      </trkpt>
      <trkpt lat="45.61677" lon="6.8523">
        <ele>1435</ele>
        <time>2019-04-22T08:24:51Z</time>
      </trkpt>
      <trkpt lat="45.61661" lon="6.85262">
        <ele>1430</ele>
        <time>2019-04-22T08:25:51Z</time>
      </trkpt>
      <trkpt lat="45.61649" lon="6.853">
        <ele>1432</ele>
        <time>2019-04-22T08:26:51Z</time>
      </trkpt>
      <trkpt lat="45.61608" lon="6.85358">
        <ele>1426</ele>
        <time>2019-04-22T08:27:51Z</time>
      </trkpt>
      <trkpt lat="45.61591" lon="6.85385">
        <ele>1425</ele>
        <time>2019-04-22T08:28:51Z</time>
      </trkpt>
      <trkpt lat="45.61569" lon="6.85397">
        <ele>1419</ele>
        <time>2019-04-22T08:29:51Z</time>
      </trkpt>
      <trkpt lat="45.61472" lon="6.85522">
        <ele>1411</ele>
        <time>2019-04-22T08:30:51Z</time>
      </trkpt>
      <trkpt lat="45.61436" lon="6.85552">
        <ele>1407</ele>
        <time>2019-04-22T08:31:51Z</time>
      </trkpt>
      <trkpt lat="45.61414" lon="6.8558">
        <ele>1405</ele>
        <time>2019-04-22T08:32:51Z</time>
      </trkpt>
      <trkpt lat="45.6141" lon="6.85611">
        <ele>1402</ele>
        <time>2019-04-22T08:33:51Z</time>
      </trkpt>
      <trkpt lat="45.61418" lon="6.85674">
        <ele>1403</ele>
        <time>2019-04-22T08:34:51Z</time>
      </trkpt>
      <trkpt lat="45.61445" lon="6.85754">
        <ele>1408</ele>
        <time>2019-04-22T08:35:51Z</time>
      </trkpt>
      <trkpt lat="45.61434" lon="6.85778">
        <ele>1408</ele>
        <time>2019-04-22T08:36:51Z</time>
      </trkpt>
      <trkpt lat="45.61376" lon="6.85814">
        <ele>1390</ele>
        <time>2019-04-22T08:37:51Z</time>
      </trkpt>
      <trkpt lat="45.61338" lon="6.85877">
        <ele>1379</ele>
        <time>2019-04-22T08:38:51Z</time>
      </trkpt>
      <trkpt lat="45.61326" lon="6.8594">
        <ele>1382</ele>
        <time>2019-04-22T08:39:51Z</time>
      </trkpt>
      <trkpt lat="45.61311" lon="6.85981">
        <ele>1381</ele>
        <time>2019-04-22T08:40:51Z</time>
      </trkpt>
      <trkpt lat="45.61282" lon="6.86025">
        <ele>1372</ele>
        <time>2019-04-22T08:41:51Z</time>
      </trkpt>
      <trkpt lat="45.61252" lon="6.86092">
        <ele>1359</ele>
        <time>2019-04-22T08:42:51Z</time>
      </trkpt>
      <trkpt lat="45.61258" lon="6.86106">
        <ele>1363</ele>
        <time>2019-04-22T08:43:51Z</time>
      </trkpt>
      <trkpt lat="45.61272" lon="6.86158">
        <ele>1373</ele>
        <time>2019-04-22T08:44:51Z</time>
      </trkpt>
      <trkpt lat="45.61277" lon="6.86194">
        <ele>1376</ele>
        <time>2019-04-22T08:45:51Z</time>
      </trkpt>
      <trkpt lat="45.61281" lon="6.86227">
        <ele>1378</ele>
        <time>2019-04-22T08:46:51Z</time>
      </trkpt>
      <trkpt lat="45.61281" lon="6.86253">
        <ele>1377</ele>
        <time>2019-04-22T08:47:51Z</time>
      </trkpt>
      <trkpt lat="45.61278" lon="6.86269">
        <ele>1375</ele>
        <time>2019-04-22T08:48:51Z</time>
      </trkpt>
      <trkpt lat="45.61278" lon="6.86281">
        <ele>1375</ele>
        <time>2019-04-22T08:49:51Z</time>
      </trkpt>
      <trkpt lat="45.61283" lon="6.86305">
        <ele>1379</ele>
        <time>2019-04-22T08:50:51Z</time>
      </trkpt>
      <trkpt lat="45.6132" lon="6.8639">
        <ele>1392</ele>
        <time>2019-04-22T08:51:51Z</time>
      </trkpt>
      <trkpt lat="45.61346" lon="6.86431">
        <ele>1397</ele>
        <time>2019-04-22T08:52:51Z</time>
      </trkpt>
      <trkpt lat="45.61368" lon="6.86459">
        <ele>1400</ele>
        <time>2019-04-22T08:53:51Z</time>
      </trkpt>
      <trkpt lat="45.61379" lon="6.86489">
        <ele>1397</ele>
        <time>2019-04-22T08:54:51Z</time>
      </trkpt>
      <trkpt lat="45.61381" lon="6.86511">
        <ele>1395</ele>
        <time>2019-04-22T08:55:51Z</time>
      </trkpt>
      <trkpt lat="45.61379" lon="6.86532">
        <ele>1393</ele>
        <time>2019-04-22T08:56:51Z</time>
      </trkpt>
      <trkpt lat="45.61375" lon="6.8655">
        <ele>1391</ele>
        <time>2019-04-22T08:57:51Z</time>
      </trkpt>
      <trkpt lat="45.61363" lon="6.86572">
        <ele>1387</ele>
        <time>2019-04-22T08:58:51Z</time>
      </trkpt>
      <trkpt lat="45.61356" lon="6.8658">
        <ele>1385</ele>
        <time>2019-04-22T08:59:51Z</time>
      </trkpt>
      <trkpt lat="45.61212" lon="6.86668">
        <ele>1378</ele>
        <time>2019-04-22T09:00:51Z</time>
      </trkpt>
      <trkpt lat="45.61186" lon="6.86675">
        <ele>1377</ele>
        <time>2019-04-22T09:01:51Z</time>
      </trkpt>
      <trkpt lat="45.61124" lon="6.86688">
        <ele>1372</ele>
        <time>2019-04-22T09:02:51Z</time>
      </trkpt>
      <trkpt lat="45.61096" lon="6.86701">
        <ele>1371</ele>
        <time>2019-04-22T09:03:51Z</time>
      </trkpt>
      <trkpt lat="45.61062" lon="6.8673">
        <ele>1367</ele>
        <time>2019-04-22T09:04:51Z</time>
      </trkpt>
      <trkpt lat="45.61028" lon="6.86774">
        <ele>1365</ele>
        <time>2019-04-22T09:05:51Z</time>
      </trkpt>
      <trkpt lat="45.61002" lon="6.8682">
        <ele>1366</ele>
        <time>2019-04-22T09:06:51Z</time>
      </trkpt>
      <trkpt lat="45.60992" lon="6.86843">
        <ele>1367</ele>
        <time>2019-04-22T09:07:51Z</time>
      </trkpt>
      <trkpt lat="45.60953" lon="6.86897">
        <ele>1366</ele>
        <time>2019-04-22T09:08:51Z</time>
      </trkpt>
      <trkpt lat="45.60921" lon="6.86916">
        <ele>1359</ele>
        <time>2019-04-22T09:09:51Z</time>
      </trkpt>
      <trkpt lat="45.60871" lon="6.86913">
        <ele>1339</ele>
        <time>2019-04-22T09:10:51Z</time>
      </trkpt>
      <trkpt lat="45.60853" lon="6.86919">
        <ele>1334</ele>
        <time>2019-04-22T09:11:51Z</time>
      </trkpt>
      <trkpt lat="45.60818" lon="6.86977">
        <ele>1335</ele>
        <time>2019-04-22T09:12:51Z</time>
      </trkpt>
      <trkpt lat="45.60803" lon="6.87007">
        <ele>1336</ele>
        <time>2019-04-22T09:13:51Z</time>
      </trkpt>
      <trkpt lat="45.60785" lon="6.87036">
        <ele>1337</ele>
        <time>2019-04-22T09:14:51Z</time>
      </trkpt>
      <trkpt lat="45.60766" lon="6.87061">
        <ele>1337</ele>
        <time>2019-04-22T09:15:51Z</time>
      </trkpt>
      <trkpt lat="45.60751" lon="6.87092">
        <ele>1341</ele>
        <time>2019-04-22T09:16:51Z</time>
      </trkpt>
      <trkpt lat="45.60735" lon="6.87115">
        <ele>1341</ele>
        <time>2019-04-22T09:17:51Z</time>
      </trkpt>
      <trkpt lat="45.60716" lon="6.87131">
        <ele>1337</ele>
        <time>2019-04-22T09:18:51Z</time>
      </trkpt>
      <trkpt lat="45.60687" lon="6.87149">
        <ele>1330</ele>
        <time>2019-04-22T09:19:51Z</time>
      </trkpt>
      <trkpt lat="45.60658" lon="6.87184">
        <ele>1329</ele>
        <time>2019-04-22T09:20:51Z</time>
      </trkpt>
      <trkpt lat="45.60629" lon="6.87214">
        <ele>1325</ele>
        <time>2019-04-22T09:21:51Z</time>
      </trkpt>
      <trkpt lat="45.60615" lon="6.87246">
        <ele>1327</ele>
        <time>2019-04-22T09:22:51Z</time>
      </trkpt>
      <trkpt lat="45.60581" lon="6.87295">
        <ele>1318</ele>
        <time>2019-04-22T09:23:51Z</time>
      </trkpt>
      <trkpt lat="45.60558" lon="6.87371">
        <ele>1319</ele>
        <time>2019-04-22T09:24:51Z</time>
      </trkpt>
      <trkpt lat="45.60532" lon="6.87415">
        <ele>1310</ele>
        <time>2019-04-22T09:25:51Z</time>
      </trkpt>
      <trkpt lat="45.60516" lon="6.87463">
        <ele>1302</ele>
        <time>2019-04-22T09:26:51Z</time>
      </trkpt>
      <trkpt lat="45.60512" lon="6.87503">
        <ele>1301</ele>
        <time>2019-04-22T09:27:51Z</time>
      </trkpt>
      <trkpt lat="45.60517" lon="6.87528">
        <ele>1305</ele>
        <time>2019-04-22T09:28:51Z</time>
      </trkpt>
      <trkpt lat="45.60518" lon="6.87573">
        <ele>1307</ele>
        <time>2019-04-22T09:29:51Z</time>
      </trkpt>
      <trkpt lat="45.60505" lon="6.8761">
        <ele>1309</ele>
        <time>2019-04-22T09:30:51Z</time>
      </trkpt>
      <trkpt lat="45.60483" lon="6.87629">
        <ele>1307</ele>
        <time>2019-04-22T09:31:51Z</time>
      </trkpt>
      <trkpt lat="45.60451" lon="6.87647">
        <ele>1301</ele>
        <time>2019-04-22T09:32:51Z</time>
      </trkpt>
      <trkpt lat="45.60395" lon="6.87665">
        <ele>1289</ele>
        <time>2019-04-22T09:33:51Z</time>
      </trkpt>
      <trkpt lat="45.60307" lon="6.87719">
        <ele>1283</ele>
        <time>2019-04-22T09:34:51Z</time>
      </trkpt>
      <trkpt lat="45.60284" lon="6.87719">
        <ele>1273</ele>
        <time>2019-04-22T09:35:51Z</time>
      </trkpt>
      <trkpt lat="45.60265" lon="6.87729">
        <ele>1268</ele>
        <time>2019-04-22T09:36:51Z</time>
      </trkpt>
      <trkpt lat="45.60247" lon="6.8776">
        <ele>1267</ele>
        <time>2019-04-22T09:37:51Z</time>
      </trkpt>
      <trkpt lat="45.60245" lon="6.87813">
        <ele>1267</ele>
        <time>2019-04-22T09:38:51Z</time>
      </trkpt>
      <trkpt lat="45.6025" lon="6.87878">
        <ele>1269</ele>
        <time>2019-04-22T09:39:51Z</time>
      </trkpt>
      <trkpt lat="45.60259" lon="6.87934">
        <ele>1273</ele>
        <time>2019-04-22T09:40:51Z</time>
      </trkpt>
      <trkpt lat="45.60274" lon="6.88012">
        <ele>1283</ele>
        <time>2019-04-22T09:41:51Z</time>
      </trkpt>
      <trkpt lat="45.60277" lon="6.88033">
        <ele>1285</ele>
        <time>2019-04-22T09:42:51Z</time>
      </trkpt>
      <trkpt lat="45.60272" lon="6.88044">
        <ele>1282</ele>
        <time>2019-04-22T09:43:51Z</time>
      </trkpt>
      <trkpt lat="45.60267" lon="6.88048">
        <ele>1279</ele>
        <time>2019-04-22T09:44:51Z</time>
      </trkpt>
      <trkpt lat="45.6026" lon="6.88049">
        <ele>1275</ele>
        <time>2019-04-22T09:45:51Z</time>
      </trkpt>
      <trkpt lat="45.60254" lon="6.88044">
        <ele>1271</ele>
        <time>2019-04-22T09:46:51Z</time>
      </trkpt>
      <trkpt lat="45.6025" lon="6.88034">
        <ele>1268</ele>
        <time>2019-04-22T09:47:51Z</time>
      </trkpt>
      <trkpt lat="45.60249" lon="6.88027">
        <ele>1267</ele>
        <time>2019-04-22T09:48:51Z</time>
      </trkpt>
      <trkpt lat="45.60252" lon="6.8799">
        <ele>1268</ele>
        <time>2019-04-22T09:49:51Z</time>
      </trkpt>
      <trkpt lat="45.60249" lon="6.8798">
        <ele>1267</ele>
        <time>2019-04-22T09:50:51Z</time>
      </trkpt>
      <trkpt lat="45.60244" lon="6.87975">
        <ele>1264</ele>
        <time>2019-04-22T09:51:51Z</time>
      </trkpt>
      <trkpt lat="45.60238" lon="6.87974">
        <ele>1262</ele>
        <time>2019-04-22T09:52:51Z</time>
      </trkpt>
      <trkpt lat="45.60234" lon="6.87976">
        <ele>1260</ele>
        <time>2019-04-22T09:53:51Z</time>
      </trkpt>
      <trkpt lat="45.60229" lon="6.87981">
        <ele>1258</ele>
        <time>2019-04-22T09:54:51Z</time>
      </trkpt>
      <trkpt lat="45.60223" lon="6.88003">
        <ele>1256</ele>
        <time>2019-04-22T09:55:51Z</time>
      </trkpt>
      <trkpt lat="45.60194" lon="6.88129">
        <ele>1254</ele>
        <time>2019-04-22T09:56:51Z</time>
      </trkpt>
      <trkpt lat="45.60185" lon="6.88157">
        <ele>1253</ele>
        <time>2019-04-22T09:57:51Z</time>
      </trkpt>
      <trkpt lat="45.60159" lon="6.88202">
        <ele>1242</ele>
        <time>2019-04-22T09:58:51Z</time>
      </trkpt>
      <trkpt lat="45.60156" lon="6.88215">
        <ele>1240</ele>
        <time>2019-04-22T09:59:51Z</time>
      </trkpt>
      <trkpt lat="45.60153" lon="6.88288">
        <ele>1236</ele>
        <time>2019-04-22T10:00:51Z</time>
      </trkpt>
      <trkpt lat="45.6015" lon="6.88329">
        <ele>1234</ele>
        <time>2019-04-22T10:01:51Z</time>
      </trkpt>
      <trkpt lat="45.60153" lon="6.88429">
        <ele>1233</ele>
        <time>2019-04-22T10:02:51Z</time>
      </trkpt>
      <trkpt lat="45.60137" lon="6.88536">
        <ele>1223</ele>
        <time>2019-04-22T10:03:51Z</time>
      </trkpt>
      <trkpt lat="45.60135" lon="6.88571">
        <ele>1221</ele>
        <time>2019-04-22T10:04:51Z</time>
      </trkpt>
      <trkpt lat="45.60131" lon="6.88592">
        <ele>1219</ele>
        <time>2019-04-22T10:05:51Z</time>
      </trkpt>
      <trkpt lat="45.60132" lon="6.88629">
        <ele>1217</ele>
        <time>2019-04-22T10:06:51Z</time>
      </trkpt>
      <trkpt lat="45.60128" lon="6.88662">
        <ele>1214</ele>
        <time>2019-04-22T10:07:51Z</time>
      </trkpt>
      <trkpt lat="45.6013" lon="6.88681">
        <ele>1214</ele>
        <time>2019-04-22T10:08:51Z</time>
      </trkpt>
      <trkpt lat="45.60144" lon="6.88757">
        <ele>1218</ele>
        <time>2019-04-22T10:09:51Z</time>
      </trkpt>
      <trkpt lat="45.60145" lon="6.88813">
        <ele>1217</ele>
        <time>2019-04-22T10:10:51Z</time>
      </trkpt>
      <trkpt lat="45.60144" lon="6.88825">
        <ele>1217</ele>
        <time>2019-04-22T10:11:51Z</time>
      </trkpt>
      <trkpt lat="45.60135" lon="6.88843">
        <ele>1216</ele>
        <time>2019-04-22T10:12:51Z</time>
      </trkpt>
      <trkpt lat="45.60115" lon="6.88848">
        <ele>1214</ele>
        <time>2019-04-22T10:13:51Z</time>
      </trkpt>
      <trkpt lat="45.60106" lon="6.88847">
        <ele>1213</ele>
        <time>2019-04-22T10:14:51Z</time>
      </trkpt>
      <trkpt lat="45.60086" lon="6.88804">
        <ele>1208</ele>
        <time>2019-04-22T10:15:51Z</time>
      </trkpt>
      <trkpt lat="45.60065" lon="6.88744">
        <ele>1205</ele>
        <time>2019-04-22T10:16:51Z</time>
      </trkpt>
      <trkpt lat="45.60057" lon="6.88731">
        <ele>1203</ele>
        <time>2019-04-22T10:17:51Z</time>
      </trkpt>
      <trkpt lat="45.60041" lon="6.88715">
        <ele>1201</ele>
        <time>2019-04-22T10:18:51Z</time>
      </trkpt>
      <trkpt lat="45.60014" lon="6.88698">
        <ele>1196</ele>
        <time>2019-04-22T10:19:51Z</time>
      </trkpt>
      <trkpt lat="45.60006" lon="6.88696">
        <ele>1195</ele>
        <time>2019-04-22T10:20:51Z</time>
      </trkpt>
      <trkpt lat="45.59998" lon="6.88698">
        <ele>1195</ele>
        <time>2019-04-22T10:21:51Z</time>
      </trkpt>
      <trkpt lat="45.59989" lon="6.88706">
        <ele>1196</ele>
        <time>2019-04-22T10:22:51Z</time>
      </trkpt>
      <trkpt lat="45.59981" lon="6.88727">
        <ele>1199</ele>
        <time>2019-04-22T10:23:51Z</time>
      </trkpt>
      <trkpt lat="45.59974" lon="6.88737">
        <ele>1201</ele>
        <time>2019-04-22T10:24:51Z</time>
      </trkpt>
      <trkpt lat="45.59968" lon="6.88742">
        <ele>1202</ele>
        <time>2019-04-22T10:25:51Z</time>
      </trkpt>
      <trkpt lat="45.59957" lon="6.88745">
        <ele>1203</ele>
        <time>2019-04-22T10:26:51Z</time>
      </trkpt>
      <trkpt lat="45.59905" lon="6.88715">
        <ele>1194</ele>
        <time>2019-04-22T10:27:51Z</time>
      </trkpt>
      <trkpt lat="45.59868" lon="6.887">
        <ele>1184</ele>
        <time>2019-04-22T10:28:51Z</time>
      </trkpt>
      <trkpt lat="45.59853" lon="6.88698">
        <ele>1182</ele>
        <time>2019-04-22T10:29:51Z</time>
      </trkpt>
      <trkpt lat="45.59796" lon="6.8872">
        <ele>1184</ele>
        <time>2019-04-22T10:30:51Z</time>
      </trkpt>
      <trkpt lat="45.59775" lon="6.88719">
        <ele>1183</ele>
        <time>2019-04-22T10:31:51Z</time>
      </trkpt>
      <trkpt lat="45.5975" lon="6.88707">
        <ele>1178</ele>
        <time>2019-04-22T10:32:51Z</time>
      </trkpt>
      <trkpt lat="45.59719" lon="6.88681">
        <ele>1172</ele>
        <time>2019-04-22T10:33:51Z</time>
      </trkpt>
      <trkpt lat="45.59691" lon="6.88661">
        <ele>1168</ele>
        <time>2019-04-22T10:34:51Z</time>
      </trkpt>
      <trkpt lat="45.59657" lon="6.88625">
        <ele>1161</ele>
        <time>2019-04-22T10:35:51Z</time>
      </trkpt>
      <trkpt lat="45.5963" lon="6.886">
        <ele>1157</ele>
        <time>2019-04-22T10:36:51Z</time>
      </trkpt>
      <trkpt lat="45.59623" lon="6.88591">
        <ele>1155</ele>
        <time>2019-04-22T10:37:51Z</time>
      </trkpt>
      <trkpt lat="45.59615" lon="6.8857">
        <ele>1149</ele>
        <time>2019-04-22T10:38:51Z</time>
      </trkpt>
      <trkpt lat="45.59604" lon="6.88557">
        <ele>1146</ele>
        <time>2019-04-22T10:39:51Z</time>
      </trkpt>
      <trkpt lat="45.59574" lon="6.88551">
        <ele>1145</ele>
        <time>2019-04-22T10:40:51Z</time>
      </trkpt>
      <trkpt lat="45.59538" lon="6.88555">
        <ele>1140</ele>
        <time>2019-04-22T10:41:51Z</time>
      </trkpt>
      <trkpt lat="45.59506" lon="6.88569">
        <ele>1139</ele>
        <time>2019-04-22T10:42:51Z</time>
      </trkpt>
      <trkpt lat="45.59477" lon="6.88579">
        <ele>1139</ele>
        <time>2019-04-22T10:43:51Z</time>
      </trkpt>
      <trkpt lat="45.5945" lon="6.88577">
        <ele>1136</ele>
        <time>2019-04-22T10:44:51Z</time>
      </trkpt>
      <trkpt lat="45.59421" lon="6.88568">
        <ele>1129</ele>
        <time>2019-04-22T10:45:51Z</time>
      </trkpt>
      <trkpt lat="45.59396" lon="6.88564">
        <ele>1126</ele>
        <time>2019-04-22T10:46:51Z</time>
      </trkpt>
      <trkpt lat="45.59383" lon="6.88566">
        <ele>1125</ele>
        <time>2019-04-22T10:47:51Z</time>
      </trkpt>
      <trkpt lat="45.59331" lon="6.88588">
        <ele>1128</ele>
        <time>2019-04-22T10:48:51Z</time>
      </trkpt>
      <trkpt lat="45.59314" lon="6.88587">
        <ele>1125</ele>
        <time>2019-04-22T10:49:51Z</time>
      </trkpt>
      <trkpt lat="45.59259" lon="6.88567">
        <ele>1110</ele>
        <time>2019-04-22T10:50:51Z</time>
      </trkpt>
      <trkpt lat="45.59244" lon="6.88564">
        <ele>1106</ele>
        <time>2019-04-22T10:51:51Z</time>
      </trkpt>
      <trkpt lat="45.5923" lon="6.88569">
        <ele>1105</ele>
        <time>2019-04-22T10:52:51Z</time>
      </trkpt>
      <trkpt lat="45.59203" lon="6.88585">
        <ele>1105</ele>
        <time>2019-04-22T10:53:51Z</time>
      </trkpt>
      <trkpt lat="45.59154" lon="6.88598">
        <ele>1100</ele>
        <time>2019-04-22T10:54:51Z</time>
      </trkpt>
      <trkpt lat="45.59075" lon="6.88637">
        <ele>1098</ele>
        <time>2019-04-22T10:55:51Z</time>
      </trkpt>
      <trkpt lat="45.59052" lon="6.88647">
        <ele>1102</ele>
        <time>2019-04-22T10:56:51Z</time>
      </trkpt>
      <trkpt lat="45.59042" lon="6.88645">
        <ele>1102</ele>
        <time>2019-04-22T10:57:51Z</time>
      </trkpt>
      <trkpt lat="45.59035" lon="6.88639">
        <ele>1101</ele>
        <time>2019-04-22T10:58:51Z</time>
      </trkpt>
      <trkpt lat="45.59029" lon="6.88629">
        <ele>1099</ele>
        <time>2019-04-22T10:59:51Z</time>
      </trkpt>
      <trkpt lat="45.5901" lon="6.88557">
        <ele>1084</ele>
        <time>2019-04-22T11:00:51Z</time>
      </trkpt>
      <trkpt lat="45.59001" lon="6.88545">
        <ele>1081</ele>
        <time>2019-04-22T11:01:51Z</time>
      </trkpt>
      <trkpt lat="45.58992" lon="6.88538">
        <ele>1080</ele>
        <time>2019-04-22T11:02:51Z</time>
      </trkpt>
      <trkpt lat="45.58958" lon="6.88531">
        <ele>1082</ele>
        <time>2019-04-22T11:03:51Z</time>
      </trkpt>
      <trkpt lat="45.58951" lon="6.88519">
        <ele>1080</ele>
        <time>2019-04-22T11:04:51Z</time>
      </trkpt>
      <trkpt lat="45.58938" lon="6.8847">
        <ele>1071</ele>
        <time>2019-04-22T11:05:51Z</time>
      </trkpt>
      <trkpt lat="45.58925" lon="6.88452">
        <ele>1070</ele>
        <time>2019-04-22T11:06:51Z</time>
      </trkpt>
      <trkpt lat="45.58906" lon="6.88434">
        <ele>1068</ele>
        <time>2019-04-22T11:07:51Z</time>
      </trkpt>
      <trkpt lat="45.58882" lon="6.88419">
        <ele>1065</ele>
        <time>2019-04-22T11:08:51Z</time>
      </trkpt>
      <trkpt lat="45.58853" lon="6.8841">
        <ele>1064</ele>
        <time>2019-04-22T11:09:51Z</time>
      </trkpt>
      <trkpt lat="45.58847" lon="6.88439">
        <ele>1069</ele>
        <time>2019-04-22T11:10:51Z</time>
      </trkpt>
      <trkpt lat="45.58831" lon="6.88459">
        <ele>1072</ele>
        <time>2019-04-22T11:11:51Z</time>
      </trkpt>
      <trkpt lat="45.58783" lon="6.88494">
        <ele>1080</ele>
        <time>2019-04-22T11:12:51Z</time>
      </trkpt>
      <trkpt lat="45.58765" lon="6.88496">
        <ele>1081</ele>
        <time>2019-04-22T11:13:51Z</time>
      </trkpt>
      <trkpt lat="45.58651" lon="6.88442">
        <ele>1083</ele>
        <time>2019-04-22T11:14:51Z</time>
      </trkpt>
      <trkpt lat="45.5863" lon="6.88439">
        <ele>1084</ele>
        <time>2019-04-22T11:15:51Z</time>
      </trkpt>
      <trkpt lat="45.58613" lon="6.88438">
        <ele>1084</ele>
        <time>2019-04-22T11:16:51Z</time>
      </trkpt>
      <trkpt lat="45.58599" lon="6.88446">
        <ele>1086</ele>
        <time>2019-04-22T11:17:51Z</time>
      </trkpt>
      <trkpt lat="45.58532" lon="6.88501">
        <ele>1098</ele>
        <time>2019-04-22T11:18:51Z</time>
      </trkpt>
      <trkpt lat="45.58506" lon="6.88513">
        <ele>1103</ele>
        <time>2019-04-22T11:19:51Z</time>
      </trkpt>
      <trkpt lat="45.58479" lon="6.88503">
        <ele>1103</ele>
        <time>2019-04-22T11:20:51Z</time>
      </trkpt>
      <trkpt lat="45.58394" lon="6.88489">
        <ele>1113</ele>
        <time>2019-04-22T11:21:51Z</time>
      </trkpt>
      <trkpt lat="45.5834" lon="6.88471">
        <ele>1123</ele>
        <time>2019-04-22T11:22:51Z</time>
      </trkpt>
      <trkpt lat="45.58289" lon="6.88435">
        <ele>1121</ele>
        <time>2019-04-22T11:23:51Z</time>
      </trkpt>
      <trkpt lat="45.58257" lon="6.88423">
        <ele>1126</ele>
        <time>2019-04-22T11:24:51Z</time>
      </trkpt>
      <trkpt lat="45.58205" lon="6.88419">
        <ele>1131</ele>
        <time>2019-04-22T11:25:51Z</time>
      </trkpt>
      <trkpt lat="45.58129" lon="6.88396">
        <ele>1135</ele>
        <time>2019-04-22T11:26:51Z</time>
      </trkpt>
      <trkpt lat="45.58075" lon="6.88387">
        <ele>1141</ele>
        <time>2019-04-22T11:27:51Z</time>
      </trkpt>
      <trkpt lat="45.58042" lon="6.88385">
        <ele>1143</ele>
        <time>2019-04-22T11:28:51Z</time>
      </trkpt>
      <trkpt lat="45.58015" lon="6.88392">
        <ele>1147</ele>
        <time>2019-04-22T11:29:51Z</time>
      </trkpt>
      <trkpt lat="45.57984" lon="6.88396">
        <ele>1156</ele>
        <time>2019-04-22T11:30:51Z</time>
      </trkpt>
      <trkpt lat="45.5796" lon="6.8839">
        <ele>1164</ele>
        <time>2019-04-22T11:31:51Z</time>
      </trkpt>
      <trkpt lat="45.57909" lon="6.88344">
        <ele>1165</ele>
        <time>2019-04-22T11:32:51Z</time>
      </trkpt>
      <trkpt lat="45.57869" lon="6.8828">
        <ele>1163</ele>
        <time>2019-04-22T11:33:51Z</time>
      </trkpt>
      <trkpt lat="45.57859" lon="6.88256">
        <ele>1158</ele>
        <time>2019-04-22T11:34:51Z</time>
      </trkpt>
      <trkpt lat="45.57857" lon="6.88232">
        <ele>1150</ele>
        <time>2019-04-22T11:35:51Z</time>
      </trkpt>
      <trkpt lat="45.57848" lon="6.88222">
        <ele>1150</ele>
        <time>2019-04-22T11:36:51Z</time>
      </trkpt>
      <trkpt lat="45.5784" lon="6.88222">
        <ele>1152</ele>
        <time>2019-04-22T11:37:51Z</time>
      </trkpt>
      <trkpt lat="45.57833" lon="6.88229">
        <ele>1157</ele>
        <time>2019-04-22T11:38:51Z</time>
      </trkpt>
      <trkpt lat="45.57831" lon="6.88245">
        <ele>1163</ele>
        <time>2019-04-22T11:39:51Z</time>
      </trkpt>
      <trkpt lat="45.57842" lon="6.88266">
        <ele>1168</ele>
        <time>2019-04-22T11:40:51Z</time>
      </trkpt>
      <trkpt lat="45.57918" lon="6.8839">
        <ele>1181</ele>
        <time>2019-04-22T11:41:51Z</time>
      </trkpt>
      <trkpt lat="45.57952" lon="6.88436">
        <ele>1184</ele>
        <time>2019-04-22T11:42:51Z</time>
      </trkpt>
      <trkpt lat="45.57967" lon="6.88445">
        <ele>1179</ele>
        <time>2019-04-22T11:43:51Z</time>
      </trkpt>
      <trkpt lat="45.57995" lon="6.88455">
        <ele>1169</ele>
        <time>2019-04-22T11:44:51Z</time>
      </trkpt>
      <trkpt lat="45.57999" lon="6.88468">
        <ele>1171</ele>
        <time>2019-04-22T11:45:51Z</time>
      </trkpt>
      <trkpt lat="45.57998" lon="6.8848">
        <ele>1175</ele>
        <time>2019-04-22T11:46:51Z</time>
      </trkpt>
      <trkpt lat="45.5799" lon="6.88486">
        <ele>1181</ele>
        <time>2019-04-22T11:47:51Z</time>
      </trkpt>
      <trkpt lat="45.57979" lon="6.88484">
        <ele>1186</ele>
        <time>2019-04-22T11:48:51Z</time>
      </trkpt>
      <trkpt lat="45.5795" lon="6.88465">
        <ele>1195</ele>
        <time>2019-04-22T11:49:51Z</time>
      </trkpt>
      <trkpt lat="45.57927" lon="6.88432">
        <ele>1194</ele>
        <time>2019-04-22T11:50:51Z</time>
      </trkpt>
      <trkpt lat="45.57852" lon="6.88336">
        <ele>1192</ele>
        <time>2019-04-22T11:51:51Z</time>
      </trkpt>
      <trkpt lat="45.57823" lon="6.88308">
        <ele>1192</ele>
        <time>2019-04-22T11:52:51Z</time>
      </trkpt>
      <trkpt lat="45.57786" lon="6.88295">
        <ele>1194</ele>
        <time>2019-04-22T11:53:51Z</time>
      </trkpt>
      <trkpt lat="45.57735" lon="6.88291">
        <ele>1200</ele>
        <time>2019-04-22T11:54:51Z</time>
      </trkpt>
      <trkpt lat="45.57688" lon="6.88316">
        <ele>1204</ele>
        <time>2019-04-22T11:55:51Z</time>
      </trkpt>
      <trkpt lat="45.57643" lon="6.88356">
        <ele>1209</ele>
        <time>2019-04-22T11:56:51Z</time>
      </trkpt>
      <trkpt lat="45.57625" lon="6.88401">
        <ele>1218</ele>
        <time>2019-04-22T11:57:51Z</time>
      </trkpt>
      <trkpt lat="45.57597" lon="6.88424">
        <ele>1222</ele>
        <time>2019-04-22T11:58:51Z</time>
      </trkpt>
      <trkpt lat="45.57564" lon="6.88438">
        <ele>1226</ele>
        <time>2019-04-22T11:59:51Z</time>
      </trkpt>
      <trkpt lat="45.57533" lon="6.88441">
        <ele>1227</ele>
        <time>2019-04-22T12:00:51Z</time>
      </trkpt>
      <trkpt lat="45.57487" lon="6.8843">
        <ele>1225</ele>
        <time>2019-04-22T12:01:51Z</time>
      </trkpt>
      <trkpt lat="45.57476" lon="6.88431">
        <ele>1226</ele>
        <time>2019-04-22T12:02:51Z</time>
      </trkpt>
      <trkpt lat="45.57454" lon="6.88439">
        <ele>1228</ele>
        <time>2019-04-22T12:03:51Z</time>
      </trkpt>
      <trkpt lat="45.57439" lon="6.88448">
        <ele>1230</ele>
        <time>2019-04-22T12:04:51Z</time>
      </trkpt>
      <trkpt lat="45.57412" lon="6.88474">
        <ele>1234</ele>
        <time>2019-04-22T12:05:51Z</time>
      </trkpt>
      <trkpt lat="45.57379" lon="6.8851">
        <ele>1239</ele>
        <time>2019-04-22T12:06:51Z</time>
      </trkpt>
      <trkpt lat="45.57362" lon="6.88523">
        <ele>1241</ele>
        <time>2019-04-22T12:07:51Z</time>
      </trkpt>
      <trkpt lat="45.57325" lon="6.8854">
        <ele>1242</ele>
        <time>2019-04-22T12:08:51Z</time>
      </trkpt>
      <trkpt lat="45.57307" lon="6.8857">
        <ele>1246</ele>
        <time>2019-04-22T12:09:51Z</time>
      </trkpt>
      <trkpt lat="45.57292" lon="6.886">
        <ele>1250</ele>
        <time>2019-04-22T12:10:51Z</time>
      </trkpt>
      <trkpt lat="45.57268" lon="6.88621">
        <ele>1254</ele>
        <time>2019-04-22T12:11:51Z</time>
      </trkpt>
      <trkpt lat="45.57186" lon="6.88641">
        <ele>1257</ele>
        <time>2019-04-22T12:12:51Z</time>
      </trkpt>
      <trkpt lat="45.57135" lon="6.88658">
        <ele>1255</ele>
        <time>2019-04-22T12:13:51Z</time>
      </trkpt>
      <trkpt lat="45.57081" lon="6.88689">
        <ele>1258</ele>
        <time>2019-04-22T12:14:51Z</time>
      </trkpt>
      <trkpt lat="45.57041" lon="6.88717">
        <ele>1254</ele>
        <time>2019-04-22T12:15:51Z</time>
      </trkpt>
      <trkpt lat="45.57007" lon="6.88756">
        <ele>1256</ele>
        <time>2019-04-22T12:16:51Z</time>
      </trkpt>
      <trkpt lat="45.56956" lon="6.8882">
        <ele>1271</ele>
        <time>2019-04-22T12:17:51Z</time>
      </trkpt>
      <trkpt lat="45.56937" lon="6.88841">
        <ele>1276</ele>
        <time>2019-04-22T12:18:51Z</time>
      </trkpt>
      <trkpt lat="45.56915" lon="6.88859">
        <ele>1279</ele>
        <time>2019-04-22T12:19:51Z</time>
      </trkpt>
      <trkpt lat="45.56769" lon="6.88937">
        <ele>1290</ele>
        <time>2019-04-22T12:20:51Z</time>
      </trkpt>
      <trkpt lat="45.56757" lon="6.8894">
        <ele>1289</ele>
        <time>2019-04-22T12:21:51Z</time>
      </trkpt>
      <trkpt lat="45.56709" lon="6.88935">
        <ele>1276</ele>
        <time>2019-04-22T12:22:51Z</time>
      </trkpt>
      <trkpt lat="45.56699" lon="6.88936">
        <ele>1274</ele>
        <time>2019-04-22T12:23:51Z</time>
      </trkpt>
      <trkpt lat="45.56692" lon="6.88941">
        <ele>1275</ele>
        <time>2019-04-22T12:24:51Z</time>
      </trkpt>
      <trkpt lat="45.5668" lon="6.88952">
        <ele>1278</ele>
        <time>2019-04-22T12:25:51Z</time>
      </trkpt>
      <trkpt lat="45.56651" lon="6.88998">
        <ele>1290</ele>
        <time>2019-04-22T12:26:51Z</time>
      </trkpt>
      <trkpt lat="45.56605" lon="6.8906">
        <ele>1300</ele>
        <time>2019-04-22T12:27:51Z</time>
      </trkpt>
      <trkpt lat="45.56587" lon="6.89081">
        <ele>1306</ele>
        <time>2019-04-22T12:28:51Z</time>
      </trkpt>
      <trkpt lat="45.56546" lon="6.89112">
        <ele>1309</ele>
        <time>2019-04-22T12:29:51Z</time>
      </trkpt>
      <trkpt lat="45.56512" lon="6.89131">
        <ele>1309</ele>
        <time>2019-04-22T12:30:51Z</time>
      </trkpt>
      <trkpt lat="45.56497" lon="6.89144">
        <ele>1312</ele>
        <time>2019-04-22T12:31:51Z</time>
      </trkpt>
      <trkpt lat="45.5647" lon="6.89168">
        <ele>1315</ele>
        <time>2019-04-22T12:32:51Z</time>
      </trkpt>
      <trkpt lat="45.56397" lon="6.89247">
        <ele>1337</ele>
        <time>2019-04-22T12:33:51Z</time>
      </trkpt>
      <trkpt lat="45.56381" lon="6.89259">
        <ele>1340</ele>
        <time>2019-04-22T12:34:51Z</time>
      </trkpt>
      <trkpt lat="45.56364" lon="6.89265">
        <ele>1339</ele>
        <time>2019-04-22T12:35:51Z</time>
      </trkpt>
      <trkpt lat="45.56316" lon="6.89277">
        <ele>1335</ele>
        <time>2019-04-22T12:36:51Z</time>
      </trkpt>
      <trkpt lat="45.56298" lon="6.89284">
        <ele>1336</ele>
        <time>2019-04-22T12:37:51Z</time>
      </trkpt>
      <trkpt lat="45.56252" lon="6.8932">
        <ele>1344</ele>
        <time>2019-04-22T12:38:51Z</time>
      </trkpt>
      <trkpt lat="45.56137" lon="6.89422">
        <ele>1345</ele>
        <time>2019-04-22T12:39:51Z</time>
      </trkpt>
      <trkpt lat="45.56112" lon="6.89438">
        <ele>1349</ele>
        <time>2019-04-22T12:40:51Z</time>
      </trkpt>
      <trkpt lat="45.56087" lon="6.89449">
        <ele>1349</ele>
        <time>2019-04-22T12:41:51Z</time>
      </trkpt>
      <trkpt lat="45.56057" lon="6.89458">
        <ele>1345</ele>
        <time>2019-04-22T12:42:51Z</time>
      </trkpt>
      <trkpt lat="45.5602" lon="6.89463">
        <ele>1338</ele>
        <time>2019-04-22T12:43:51Z</time>
      </trkpt>
      <trkpt lat="45.55995" lon="6.8947">
        <ele>1334</ele>
        <time>2019-04-22T12:44:51Z</time>
      </trkpt>
      <trkpt lat="45.55983" lon="6.89478">
        <ele>1333</ele>
        <time>2019-04-22T12:45:51Z</time>
      </trkpt>
      <trkpt lat="45.55969" lon="6.89494">
        <ele>1332</ele>
        <time>2019-04-22T12:46:51Z</time>
      </trkpt>
      <trkpt lat="45.55958" lon="6.89516">
        <ele>1333</ele>
        <time>2019-04-22T12:47:51Z</time>
      </trkpt>
      <trkpt lat="45.55923" lon="6.89614">
        <ele>1342</ele>
        <time>2019-04-22T12:48:51Z</time>
      </trkpt>
      <trkpt lat="45.55881" lon="6.89684">
        <ele>1345</ele>
        <time>2019-04-22T12:49:51Z</time>
      </trkpt>
      <trkpt lat="45.55866" lon="6.89707">
        <ele>1346</ele>
        <time>2019-04-22T12:50:51Z</time>
      </trkpt>
      <trkpt lat="45.55852" lon="6.89723">
        <ele>1344</ele>
        <time>2019-04-22T12:51:51Z</time>
      </trkpt>
      <trkpt lat="45.55838" lon="6.89734">
        <ele>1341</ele>
        <time>2019-04-22T12:52:51Z</time>
      </trkpt>
      <trkpt lat="45.55827" lon="6.89744">
        <ele>1339</ele>
        <time>2019-04-22T12:53:51Z</time>
      </trkpt>
      <trkpt lat="45.55819" lon="6.89758">
        <ele>1341</ele>
        <time>2019-04-22T12:54:51Z</time>
      </trkpt>
      <trkpt lat="45.55799" lon="6.89806">
        <ele>1350</ele>
        <time>2019-04-22T12:55:51Z</time>
      </trkpt>
      <trkpt lat="45.5578" lon="6.89834">
        <ele>1354</ele>
        <time>2019-04-22T12:56:51Z</time>
      </trkpt>
      <trkpt lat="45.5574" lon="6.89884">
        <ele>1352</ele>
        <time>2019-04-22T12:57:51Z</time>
      </trkpt>
      <trkpt lat="45.55731" lon="6.89899">
        <ele>1352</ele>
        <time>2019-04-22T12:58:51Z</time>
      </trkpt>
      <trkpt lat="45.55725" lon="6.89913">
        <ele>1352</ele>
        <time>2019-04-22T12:59:51Z</time>
      </trkpt>
      <trkpt lat="45.5571" lon="6.89937">
        <ele>1354</ele>
        <time>2019-04-22T13:00:51Z</time>
      </trkpt>
      <trkpt lat="45.55674" lon="6.89981">
        <ele>1353</ele>
        <time>2019-04-22T13:01:51Z</time>
      </trkpt>
      <trkpt lat="45.55604" lon="6.90081">
        <ele>1371</ele>
        <time>2019-04-22T13:02:51Z</time>
      </trkpt>
      <trkpt lat="45.55584" lon="6.90099">
        <ele>1378</ele>
        <time>2019-04-22T13:03:51Z</time>
      </trkpt>
      <trkpt lat="45.55562" lon="6.90114">
        <ele>1383</ele>
        <time>2019-04-22T13:04:51Z</time>
      </trkpt>
      <trkpt lat="45.5553" lon="6.90125">
        <ele>1377</ele>
        <time>2019-04-22T13:05:51Z</time>
      </trkpt>
      <trkpt lat="45.55459" lon="6.90158">
        <ele>1369</ele>
        <time>2019-04-22T13:06:51Z</time>
      </trkpt>
      <trkpt lat="45.55434" lon="6.90164">
        <ele>1366</ele>
        <time>2019-04-22T13:07:51Z</time>
      </trkpt>
      <trkpt lat="45.55334" lon="6.90159">
        <ele>1382</ele>
        <time>2019-04-22T13:08:51Z</time>
      </trkpt>
      <trkpt lat="45.55303" lon="6.90151">
        <ele>1375</ele>
        <time>2019-04-22T13:09:51Z</time>
      </trkpt>
      <trkpt lat="45.55286" lon="6.90149">
        <ele>1373</ele>
        <time>2019-04-22T13:10:51Z</time>
      </trkpt>
      <trkpt lat="45.55269" lon="6.90153">
        <ele>1374</ele>
        <time>2019-04-22T13:11:51Z</time>
      </trkpt>
      <trkpt lat="45.55254" lon="6.9016">
        <ele>1376</ele>
        <time>2019-04-22T13:12:51Z</time>
      </trkpt>
      <trkpt lat="45.55091" lon="6.90283">
        <ele>1392</ele>
        <time>2019-04-22T13:13:51Z</time>
      </trkpt>
      <trkpt lat="45.55065" lon="6.90308">
        <ele>1393</ele>
        <time>2019-04-22T13:14:51Z</time>
      </trkpt>
      <trkpt lat="45.55035" lon="6.90346">
        <ele>1397</ele>
        <time>2019-04-22T13:15:51Z</time>
      </trkpt>
      <trkpt lat="45.55005" lon="6.90382">
        <ele>1397</ele>
        <time>2019-04-22T13:16:51Z</time>
      </trkpt>
      <trkpt lat="45.54976" lon="6.90425">
        <ele>1400</ele>
        <time>2019-04-22T13:17:51Z</time>
      </trkpt>
      <trkpt lat="45.54863" lon="6.90617">
        <ele>1416</ele>
        <time>2019-04-22T13:18:51Z</time>
      </trkpt>
      <trkpt lat="45.54843" lon="6.9064">
        <ele>1418</ele>
        <time>2019-04-22T13:19:51Z</time>
      </trkpt>
      <trkpt lat="45.54759" lon="6.90705">
        <ele>1423</ele>
        <time>2019-04-22T13:20:51Z</time>
      </trkpt>
      <trkpt lat="45.54724" lon="6.90727">
        <ele>1426</ele>
        <time>2019-04-22T13:21:51Z</time>
      </trkpt>
      <trkpt lat="45.54699" lon="6.90738">
        <ele>1426</ele>
        <time>2019-04-22T13:22:51Z</time>
      </trkpt>
      <trkpt lat="45.54627" lon="6.90759">
        <ele>1419</ele>
        <time>2019-04-22T13:23:51Z</time>
      </trkpt>
      <trkpt lat="45.54576" lon="6.90781">
        <ele>1419</ele>
        <time>2019-04-22T13:24:51Z</time>
      </trkpt>
      <trkpt lat="45.54531" lon="6.90794">
        <ele>1418</ele>
        <time>2019-04-22T13:25:51Z</time>
      </trkpt>
      <trkpt lat="45.54488" lon="6.90819">
        <ele>1423</ele>
        <time>2019-04-22T13:26:51Z</time>
      </trkpt>
      <trkpt lat="45.54462" lon="6.90838">
        <ele>1427</ele>
        <time>2019-04-22T13:27:51Z</time>
      </trkpt>
      <trkpt lat="45.54435" lon="6.90853">
        <ele>1432</ele>
        <time>2019-04-22T13:28:51Z</time>
      </trkpt>
      <trkpt lat="45.54375" lon="6.90878">
        <ele>1432</ele>
        <time>2019-04-22T13:29:51Z</time>
      </trkpt>
      <trkpt lat="45.54354" lon="6.9089">
        <ele>1432</ele>
        <time>2019-04-22T13:30:51Z</time>
      </trkpt>
      <trkpt lat="45.54319" lon="6.90916">
        <ele>1436</ele>
        <time>2019-04-22T13:31:51Z</time>
      </trkpt>
      <trkpt lat="45.54275" lon="6.90953">
        <ele>1444</ele>
        <time>2019-04-22T13:32:51Z</time>
      </trkpt>
      <trkpt lat="45.54246" lon="6.90981">
        <ele>1447</ele>
        <time>2019-04-22T13:33:51Z</time>
      </trkpt>
      <trkpt lat="45.54177" lon="6.91059">
        <ele>1456</ele>
        <time>2019-04-22T13:34:51Z</time>
      </trkpt>
      <trkpt lat="45.54157" lon="6.91073">
        <ele>1457</ele>
        <time>2019-04-22T13:35:51Z</time>
      </trkpt>
      <trkpt lat="45.54126" lon="6.91091">
        <ele>1463</ele>
        <time>2019-04-22T13:36:51Z</time>
      </trkpt>
      <trkpt lat="45.54105" lon="6.911">
        <ele>1467</ele>
        <time>2019-04-22T13:37:51Z</time>
      </trkpt>
      <trkpt lat="45.54083" lon="6.91101">
        <ele>1466</ele>
        <time>2019-04-22T13:38:51Z</time>
      </trkpt>
      <trkpt lat="45.54067" lon="6.91098">
        <ele>1464</ele>
        <time>2019-04-22T13:39:51Z</time>
      </trkpt>
      <trkpt lat="45.54047" lon="6.91088">
        <ele>1457</ele>
        <time>2019-04-22T13:40:51Z</time>
      </trkpt>
      <trkpt lat="45.54028" lon="6.91082">
        <ele>1453</ele>
        <time>2019-04-22T13:41:51Z</time>
      </trkpt>
      <trkpt lat="45.54006" lon="6.91088">
        <ele>1456</ele>
        <time>2019-04-22T13:42:51Z</time>
      </trkpt>
      <trkpt lat="45.53988" lon="6.91101">
        <ele>1462</ele>
        <time>2019-04-22T13:43:51Z</time>
      </trkpt>
      <trkpt lat="45.53949" lon="6.91125">
        <ele>1470</ele>
        <time>2019-04-22T13:44:51Z</time>
      </trkpt>
      <trkpt lat="45.5392" lon="6.91148">
        <ele>1481</ele>
        <time>2019-04-22T13:45:51Z</time>
      </trkpt>
      <trkpt lat="45.53903" lon="6.91149">
        <ele>1479</ele>
        <time>2019-04-22T13:46:51Z</time>
      </trkpt>
      <trkpt lat="45.53863" lon="6.91142">
        <ele>1469</ele>
        <time>2019-04-22T13:47:51Z</time>
      </trkpt>
      <trkpt lat="45.5384" lon="6.91148">
        <ele>1470</ele>
        <time>2019-04-22T13:48:51Z</time>
      </trkpt>
      <trkpt lat="45.53803" lon="6.91167">
        <ele>1472</ele>
        <time>2019-04-22T13:49:51Z</time>
      </trkpt>
      <trkpt lat="45.5378" lon="6.91185">
        <ele>1471</ele>
        <time>2019-04-22T13:50:51Z</time>
      </trkpt>
      <trkpt lat="45.53704" lon="6.91278">
        <ele>1473</ele>
        <time>2019-04-22T13:51:51Z</time>
      </trkpt>
      <trkpt lat="45.53689" lon="6.913">
        <ele>1473</ele>
        <time>2019-04-22T13:52:51Z</time>
      </trkpt>
      <trkpt lat="45.5368" lon="6.91323">
        <ele>1477</ele>
        <time>2019-04-22T13:53:51Z</time>
      </trkpt>
      <trkpt lat="45.53656" lon="6.91412">
        <ele>1489</ele>
        <time>2019-04-22T13:54:51Z</time>
      </trkpt>
      <trkpt lat="45.53648" lon="6.91424">
        <ele>1493</ele>
        <time>2019-04-22T13:55:51Z</time>
      </trkpt>
      <trkpt lat="45.5364" lon="6.91434">
        <ele>1497</ele>
        <time>2019-04-22T13:56:51Z</time>
      </trkpt>
      <trkpt lat="45.53629" lon="6.91438">
        <ele>1499</ele>
        <time>2019-04-22T13:57:51Z</time>
      </trkpt>
      <trkpt lat="45.53617" lon="6.91439">
        <ele>1499</ele>
        <time>2019-04-22T13:58:51Z</time>
      </trkpt>
      <trkpt lat="45.53581" lon="6.91429">
        <ele>1491</ele>
        <time>2019-04-22T13:59:51Z</time>
      </trkpt>
      <trkpt lat="45.53566" lon="6.91432">
        <ele>1492</ele>
        <time>2019-04-22T14:00:51Z</time>
      </trkpt>
      <trkpt lat="45.53515" lon="6.91462">
        <ele>1501</ele>
        <time>2019-04-22T14:01:51Z</time>
      </trkpt>
      <trkpt lat="45.53504" lon="6.91461">
        <ele>1499</ele>
        <time>2019-04-22T14:02:51Z</time>
      </trkpt>
      <trkpt lat="45.53485" lon="6.91456">
        <ele>1495</ele>
        <time>2019-04-22T14:03:51Z</time>
      </trkpt>
      <trkpt lat="45.53464" lon="6.91459">
        <ele>1495</ele>
        <time>2019-04-22T14:04:51Z</time>
      </trkpt>
      <trkpt lat="45.534" lon="6.91486">
        <ele>1507</ele>
        <time>2019-04-22T14:05:51Z</time>
      </trkpt>
      <trkpt lat="45.53375" lon="6.91495">
        <ele>1513</ele>
        <time>2019-04-22T14:06:51Z</time>
      </trkpt>
      <trkpt lat="45.53329" lon="6.915">
        <ele>1518</ele>
        <time>2019-04-22T14:07:51Z</time>
      </trkpt>
      <trkpt lat="45.53235" lon="6.91516">
        <ele>1517</ele>
        <time>2019-04-22T14:08:51Z</time>
      </trkpt>
      <trkpt lat="45.53203" lon="6.91529">
        <ele>1520</ele>
        <time>2019-04-22T14:09:51Z</time>
      </trkpt>
      <trkpt lat="45.53195" lon="6.9154">
        <ele>1524</ele>
        <time>2019-04-22T14:10:51Z</time>
      </trkpt>
      <trkpt lat="45.53177" lon="6.91584">
        <ele>1544</ele>
        <time>2019-04-22T14:11:51Z</time>
      </trkpt>
      <trkpt lat="45.53165" lon="6.9159">
        <ele>1545</ele>
        <time>2019-04-22T14:12:51Z</time>
      </trkpt>
      <trkpt lat="45.53153" lon="6.91587">
        <ele>1548</ele>
        <time>2019-04-22T14:13:51Z</time>
      </trkpt>
      <trkpt lat="45.53137" lon="6.9157">
        <ele>1545</ele>
        <time>2019-04-22T14:14:51Z</time>
      </trkpt>
      <trkpt lat="45.53109" lon="6.91526">
        <ele>1533</ele>
        <time>2019-04-22T14:15:51Z</time>
      </trkpt>
      <trkpt lat="45.53096" lon="6.91512">
        <ele>1531</ele>
        <time>2019-04-22T14:16:51Z</time>
      </trkpt>
      <trkpt lat="45.53053" lon="6.91487">
        <ele>1534</ele>
        <time>2019-04-22T14:17:51Z</time>
      </trkpt>
      <trkpt lat="45.53031" lon="6.91478">
        <ele>1537</ele>
        <time>2019-04-22T14:18:51Z</time>
      </trkpt>
      <trkpt lat="45.5301" lon="6.91463">
        <ele>1538</ele>
        <time>2019-04-22T14:19:51Z</time>
      </trkpt>
      <trkpt lat="45.52956" lon="6.91406">
        <ele>1532</ele>
        <time>2019-04-22T14:20:51Z</time>
      </trkpt>
      <trkpt lat="45.52931" lon="6.91384">
        <ele>1533</ele>
        <time>2019-04-22T14:21:51Z</time>
      </trkpt>
      <trkpt lat="45.52903" lon="6.91368">
        <ele>1538</ele>
        <time>2019-04-22T14:22:51Z</time>
      </trkpt>
      <trkpt lat="45.52719" lon="6.91311">
        <ele>1567</ele>
        <time>2019-04-22T14:23:51Z</time>
      </trkpt>
      <trkpt lat="45.52647" lon="6.91281">
        <ele>1564</ele>
        <time>2019-04-22T14:24:51Z</time>
      </trkpt>
      <trkpt lat="45.52614" lon="6.91274">
        <ele>1565</ele>
        <time>2019-04-22T14:25:51Z</time>
      </trkpt>
      <trkpt lat="45.52559" lon="6.91268">
        <ele>1566</ele>
        <time>2019-04-22T14:26:51Z</time>
      </trkpt>
      <trkpt lat="45.52498" lon="6.91264">
        <ele>1564</ele>
        <time>2019-04-22T14:27:51Z</time>
      </trkpt>
      <trkpt lat="45.52476" lon="6.91265">
        <ele>1561</ele>
        <time>2019-04-22T14:28:51Z</time>
      </trkpt>
      <trkpt lat="45.52448" lon="6.91271">
        <ele>1560</ele>
        <time>2019-04-22T14:29:51Z</time>
      </trkpt>
      <trkpt lat="45.52418" lon="6.9128">
        <ele>1560</ele>
        <time>2019-04-22T14:30:51Z</time>
      </trkpt>
      <trkpt lat="45.52395" lon="6.91291">
        <ele>1560</ele>
        <time>2019-04-22T14:31:51Z</time>
      </trkpt>
      <trkpt lat="45.52309" lon="6.91349">
        <ele>1567</ele>
        <time>2019-04-22T14:32:51Z</time>
      </trkpt>
      <trkpt lat="45.52288" lon="6.91359">
        <ele>1570</ele>
        <time>2019-04-22T14:33:51Z</time>
      </trkpt>
      <trkpt lat="45.52193" lon="6.91391">
        <ele>1577</ele>
        <time>2019-04-22T14:34:51Z</time>
      </trkpt>
      <trkpt lat="45.52179" lon="6.91393">
        <ele>1577</ele>
        <time>2019-04-22T14:35:51Z</time>
      </trkpt>
      <trkpt lat="45.52158" lon="6.91391">
        <ele>1576</ele>
        <time>2019-04-22T14:36:51Z</time>
      </trkpt>
      <trkpt lat="45.52139" lon="6.91383">
        <ele>1575</ele>
        <time>2019-04-22T14:37:51Z</time>
      </trkpt>
      <trkpt lat="45.52123" lon="6.91369">
        <ele>1572</ele>
        <time>2019-04-22T14:38:51Z</time>
      </trkpt>
      <trkpt lat="45.52089" lon="6.91335">
        <ele>1568</ele>
        <time>2019-04-22T14:39:51Z</time>
      </trkpt>
      <trkpt lat="45.52071" lon="6.9133">
        <ele>1566</ele>
        <time>2019-04-22T14:40:51Z</time>
      </trkpt>
      <trkpt lat="45.52059" lon="6.9133">
        <ele>1564</ele>
        <time>2019-04-22T14:41:51Z</time>
      </trkpt>
      <trkpt lat="45.52047" lon="6.91335">
        <ele>1564</ele>
        <time>2019-04-22T14:42:51Z</time>
      </trkpt>
      <trkpt lat="45.52024" lon="6.9136">
        <ele>1567</ele>
        <time>2019-04-22T14:43:51Z</time>
      </trkpt>
      <trkpt lat="45.52006" lon="6.91392">
        <ele>1572</ele>
        <time>2019-04-22T14:44:51Z</time>
      </trkpt>
      <trkpt lat="45.5198" lon="6.91428">
        <ele>1578</ele>
        <time>2019-04-22T14:45:51Z</time>
      </trkpt>
      <trkpt lat="45.51935" lon="6.91469">
        <ele>1584</ele>
        <time>2019-04-22T14:46:51Z</time>
      </trkpt>
      <trkpt lat="45.51895" lon="6.91493">
        <ele>1587</ele>
        <time>2019-04-22T14:47:51Z</time>
      </trkpt>
      <trkpt lat="45.51803" lon="6.91539">
        <ele>1598</ele>
        <time>2019-04-22T14:48:51Z</time>
      </trkpt>
      <trkpt lat="45.51782" lon="6.91555">
        <ele>1601</ele>
        <time>2019-04-22T14:49:51Z</time>
      </trkpt>
      <trkpt lat="45.51761" lon="6.91577">
        <ele>1602</ele>
        <time>2019-04-22T14:50:51Z</time>
      </trkpt>
      <trkpt lat="45.51733" lon="6.9161">
        <ele>1611</ele>
        <time>2019-04-22T14:51:51Z</time>
      </trkpt>
      <trkpt lat="45.51704" lon="6.91624">
        <ele>1618</ele>
        <time>2019-04-22T14:52:51Z</time>
      </trkpt>
      <trkpt lat="45.51675" lon="6.9163">
        <ele>1623</ele>
        <time>2019-04-22T14:53:51Z</time>
      </trkpt>
      <trkpt lat="45.51652" lon="6.91631">
        <ele>1622</ele>
        <time>2019-04-22T14:54:51Z</time>
      </trkpt>
      <trkpt lat="45.51601" lon="6.91641">
        <ele>1623</ele>
        <time>2019-04-22T14:55:51Z</time>
      </trkpt>
      <trkpt lat="45.51554" lon="6.91654">
        <ele>1624</ele>
        <time>2019-04-22T14:56:51Z</time>
      </trkpt>
      <trkpt lat="45.51515" lon="6.91669">
        <ele>1623</ele>
        <time>2019-04-22T14:57:51Z</time>
      </trkpt>
      <trkpt lat="45.51475" lon="6.91688">
        <ele>1628</ele>
        <time>2019-04-22T14:58:51Z</time>
      </trkpt>
      <trkpt lat="45.51432" lon="6.91714">
        <ele>1635</ele>
        <time>2019-04-22T14:59:51Z</time>
      </trkpt>
      <trkpt lat="45.51404" lon="6.91734">
        <ele>1638</ele>
        <time>2019-04-22T15:00:51Z</time>
      </trkpt>
      <trkpt lat="45.51372" lon="6.91769">
        <ele>1640</ele>
        <time>2019-04-22T15:01:51Z</time>
      </trkpt>
      <trkpt lat="45.5129" lon="6.91882">
        <ele>1648</ele>
        <time>2019-04-22T15:02:51Z</time>
      </trkpt>
      <trkpt lat="45.51144" lon="6.92069">
        <ele>1657</ele>
        <time>2019-04-22T15:03:51Z</time>
      </trkpt>
      <trkpt lat="45.51093" lon="6.92137">
        <ele>1661</ele>
        <time>2019-04-22T15:04:51Z</time>
      </trkpt>
      <trkpt lat="45.51054" lon="6.922">
        <ele>1668</ele>
        <time>2019-04-22T15:05:51Z</time>
      </trkpt>
      <trkpt lat="45.5103" lon="6.92244">
        <ele>1672</ele>
        <time>2019-04-22T15:06:51Z</time>
      </trkpt>
      <trkpt lat="45.5099" lon="6.9235">
        <ele>1690</ele>
        <time>2019-04-22T15:07:51Z</time>
      </trkpt>
      <trkpt lat="45.50969" lon="6.9239">
        <ele>1696</ele>
        <time>2019-04-22T15:08:51Z</time>
      </trkpt>
      <trkpt lat="45.50941" lon="6.92422">
        <ele>1694</ele>
        <time>2019-04-22T15:09:51Z</time>
      </trkpt>
      <trkpt lat="45.50907" lon="6.92453">
        <ele>1699</ele>
        <time>2019-04-22T15:10:51Z</time>
      </trkpt>
      <trkpt lat="45.50879" lon="6.92471">
        <ele>1702</ele>
        <time>2019-04-22T15:11:51Z</time>
      </trkpt>
      <trkpt lat="45.50842" lon="6.9249">
        <ele>1705</ele>
        <time>2019-04-22T15:12:51Z</time>
      </trkpt>
      <trkpt lat="45.50782" lon="6.92517">
        <ele>1701</ele>
        <time>2019-04-22T15:13:51Z</time>
      </trkpt>
      <trkpt lat="45.50756" lon="6.9253">
        <ele>1699</ele>
        <time>2019-04-22T15:14:51Z</time>
      </trkpt>
      <trkpt lat="45.50742" lon="6.92545">
        <ele>1701</ele>
        <time>2019-04-22T15:15:51Z</time>
      </trkpt>
      <trkpt lat="45.50726" lon="6.92569">
        <ele>1708</ele>
        <time>2019-04-22T15:16:51Z</time>
      </trkpt>
      <trkpt lat="45.50684" lon="6.92639">
        <ele>1725</ele>
        <time>2019-04-22T15:17:51Z</time>
      </trkpt>
      <trkpt lat="45.50672" lon="6.92656">
        <ele>1729</ele>
        <time>2019-04-22T15:18:51Z</time>
      </trkpt>
      <trkpt lat="45.50619" lon="6.9271">
        <ele>1732</ele>
        <time>2019-04-22T15:19:51Z</time>
      </trkpt>
      <trkpt lat="45.50526" lon="6.92825">
        <ele>1735</ele>
        <time>2019-04-22T15:20:51Z</time>
      </trkpt>
      <trkpt lat="45.50453" lon="6.92919">
        <ele>1749</ele>
        <time>2019-04-22T15:21:51Z</time>
      </trkpt>
      <trkpt lat="45.50374" lon="6.92985">
        <ele>1754</ele>
        <time>2019-04-22T15:22:51Z</time>
      </trkpt>
      <trkpt lat="45.50298" lon="6.93016">
        <ele>1756</ele>
        <time>2019-04-22T15:23:51Z</time>
      </trkpt>
      <trkpt lat="45.50259" lon="6.9302">
        <ele>1756</ele>
        <time>2019-04-22T15:24:51Z</time>
      </trkpt>
      <trkpt lat="45.50204" lon="6.93017">
        <ele>1751</ele>
        <time>2019-04-22T15:25:51Z</time>
      </trkpt>
      <trkpt lat="45.50182" lon="6.93022">
        <ele>1753</ele>
        <time>2019-04-22T15:26:51Z</time>
      </trkpt>
      <trkpt lat="45.50122" lon="6.93055">
        <ele>1768</ele>
        <time>2019-04-22T15:27:51Z</time>
      </trkpt>
      <trkpt lat="45.50043" lon="6.93086">
        <ele>1774</ele>
        <time>2019-04-22T15:28:51Z</time>
      </trkpt>
      <trkpt lat="45.49946" lon="6.93144">
        <ele>1786</ele>
        <time>2019-04-22T15:29:51Z</time>
      </trkpt>
      <trkpt lat="45.49835" lon="6.93196">
        <ele>1783</ele>
        <time>2019-04-22T15:30:51Z</time>
      </trkpt>
      <trkpt lat="45.49818" lon="6.9321">
        <ele>1782</ele>
        <time>2019-04-22T15:31:51Z</time>
      </trkpt>
      <trkpt lat="45.49791" lon="6.9324">
        <ele>1787</ele>
        <time>2019-04-22T15:32:51Z</time>
      </trkpt>
      <trkpt lat="45.49757" lon="6.93271">
        <ele>1791</ele>
        <time>2019-04-22T15:33:51Z</time>
      </trkpt>
      <trkpt lat="45.49738" lon="6.93295">
        <ele>1795</ele>
        <time>2019-04-22T15:34:51Z</time>
      </trkpt>
      <trkpt lat="45.49715" lon="6.93316">
        <ele>1796</ele>
        <time>2019-04-22T15:35:51Z</time>
      </trkpt>
      <trkpt lat="45.49672" lon="6.93352">
        <ele>1797</ele>
        <time>2019-04-22T15:36:51Z</time>
      </trkpt>
      <trkpt lat="45.49581" lon="6.93406">
        <ele>1769</ele>
        <time>2019-04-22T15:37:51Z</time>
      </trkpt>
      <trkpt lat="45.49562" lon="6.9342">
        <ele>1773</ele>
        <time>2019-04-22T15:38:51Z</time>
      </trkpt>
      <trkpt lat="45.49543" lon="6.93441">
        <ele>1779</ele>
        <time>2019-04-22T15:39:51Z</time>
      </trkpt>
      <trkpt lat="45.4953" lon="6.93466">
        <ele>1788</ele>
        <time>2019-04-22T15:40:51Z</time>
      </trkpt>
      <trkpt lat="45.49514" lon="6.93507">
        <ele>1803</ele>
        <time>2019-04-22T15:41:51Z</time>
      </trkpt>
      <trkpt lat="45.49389" lon="6.93686">
        <ele>1809</ele>
        <time>2019-04-22T15:42:51Z</time>
      </trkpt>
      <trkpt lat="45.49321" lon="6.93846">
        <ele>1830</ele>
        <time>2019-04-22T15:43:51Z</time>
      </trkpt>
      <trkpt lat="45.49233" lon="6.9401">
        <ele>1864</ele>
        <time>2019-04-22T15:44:51Z</time>
      </trkpt>
      <trkpt lat="45.49144" lon="6.94111">
        <ele>1853</ele>
        <time>2019-04-22T15:45:51Z</time>
      </trkpt>
      <trkpt lat="45.49014" lon="6.94182">
        <ele>1825</ele>
        <time>2019-04-22T15:46:51Z</time>
      </trkpt>
      <trkpt lat="45.48874" lon="6.94263">
        <ele>1822</ele>
        <time>2019-04-22T15:47:51Z</time>
      </trkpt>
      <trkpt lat="45.48727" lon="6.94331">
        <ele>1817</ele>
        <time>2019-04-22T15:48:51Z</time>
      </trkpt>
      <trkpt lat="45.48589" lon="6.94412">
        <ele>1815</ele>
        <time>2019-04-22T15:49:51Z</time>
      </trkpt>
      <trkpt lat="45.48495" lon="6.94472">
        <ele>1820</ele>
        <time>2019-04-22T15:50:51Z</time>
      </trkpt>
      <trkpt lat="45.48444" lon="6.94501">
        <ele>1822</ele>
        <time>2019-04-22T15:51:51Z</time>
      </trkpt>
      <trkpt lat="45.4834" lon="6.94519">
        <ele>1826</ele>
        <time>2019-04-22T15:52:51Z</time>
      </trkpt>
      <trkpt lat="45.48249" lon="6.9454">
        <ele>1816</ele>
        <time>2019-04-22T15:53:51Z</time>
      </trkpt>
      <trkpt lat="45.48184" lon="6.94566">
        <ele>1814</ele>
        <time>2019-04-22T15:54:51Z</time>
      </trkpt>
      <trkpt lat="45.48101" lon="6.9461">
        <ele>1815</ele>
        <time>2019-04-22T15:55:51Z</time>
      </trkpt>
      <trkpt lat="45.48037" lon="6.9465">
        <ele>1802</ele>
        <time>2019-04-22T15:56:51Z</time>
      </trkpt>
      <trkpt lat="45.48003" lon="6.94692">
        <ele>1800</ele>
        <time>2019-04-22T15:57:51Z</time>
      </trkpt>
      <trkpt lat="45.47951" lon="6.948">
        <ele>1807</ele>
        <time>2019-04-22T15:58:51Z</time>
      </trkpt>
      <trkpt lat="45.47901" lon="6.94872">
        <ele>1806</ele>
        <time>2019-04-22T15:59:51Z</time>
      </trkpt>
      <trkpt lat="45.47849" lon="6.94934">
        <ele>1807</ele>
        <time>2019-04-22T16:00:51Z</time>
      </trkpt>
      <trkpt lat="45.47793" lon="6.94986">
        <ele>1813</ele>
        <time>2019-04-22T16:01:51Z</time>
      </trkpt>
      <trkpt lat="45.47746" lon="6.95027">
        <ele>1811</ele>
        <time>2019-04-22T16:02:51Z</time>
      </trkpt>
      <trkpt lat="45.47735" lon="6.95035">
        <ele>1814</ele>
        <time>2019-04-22T16:03:51Z</time>
      </trkpt>
      <trkpt lat="45.47722" lon="6.95039">
        <ele>1815</ele>
        <time>2019-04-22T16:04:51Z</time>
      </trkpt>
      <trkpt lat="45.47709" lon="6.95037">
        <ele>1814</ele>
        <time>2019-04-22T16:05:51Z</time>
      </trkpt>
      <trkpt lat="45.47692" lon="6.95022">
        <ele>1811</ele>
        <time>2019-04-22T16:06:51Z</time>
      </trkpt>
      <trkpt lat="45.47685" lon="6.9501">
        <ele>1808</ele>
        <time>2019-04-22T16:07:51Z</time>
      </trkpt>
      <trkpt lat="45.47671" lon="6.9496">
        <ele>1800</ele>
        <time>2019-04-22T16:08:51Z</time>
      </trkpt>
      <trkpt lat="45.47664" lon="6.94945">
        <ele>1799</ele>
        <time>2019-04-22T16:09:51Z</time>
      </trkpt>
      <trkpt lat="45.4765" lon="6.9493">
        <ele>1798</ele>
        <time>2019-04-22T16:10:51Z</time>
      </trkpt>
      <trkpt lat="45.47639" lon="6.94924">
        <ele>1798</ele>
        <time>2019-04-22T16:11:51Z</time>
      </trkpt>
      <trkpt lat="45.47609" lon="6.94915">
        <ele>1799</ele>
        <time>2019-04-22T16:12:51Z</time>
      </trkpt>
      <trkpt lat="45.47584" lon="6.94914">
        <ele>1801</ele>
        <time>2019-04-22T16:13:51Z</time>
      </trkpt>
      <trkpt lat="45.47522" lon="6.94918">
        <ele>1809</ele>
        <time>2019-04-22T16:14:51Z</time>
      </trkpt>
      <trkpt lat="45.47512" lon="6.94916">
        <ele>1809</ele>
        <time>2019-04-22T16:15:51Z</time>
      </trkpt>
      <trkpt lat="45.47485" lon="6.9489">
        <ele>1800</ele>
        <time>2019-04-22T16:16:51Z</time>
      </trkpt>
      <trkpt lat="45.47463" lon="6.94861">
        <ele>1788</ele>
        <time>2019-04-22T16:17:51Z</time>
      </trkpt>
      <trkpt lat="45.47444" lon="6.94856">
        <ele>1785</ele>
        <time>2019-04-22T16:18:51Z</time>
      </trkpt>
      <trkpt lat="45.47425" lon="6.94857">
        <ele>1784</ele>
        <time>2019-04-22T16:19:51Z</time>
      </trkpt>
      <trkpt lat="45.47413" lon="6.94867">
        <ele>1785</ele>
        <time>2019-04-22T16:20:51Z</time>
      </trkpt>
      <trkpt lat="45.47402" lon="6.94884">
        <ele>1786</ele>
        <time>2019-04-22T16:21:51Z</time>
      </trkpt>
      <trkpt lat="45.47392" lon="6.94915">
        <ele>1790</ele>
        <time>2019-04-22T16:22:51Z</time>
      </trkpt>
      <trkpt lat="45.47355" lon="6.95134">
        <ele>1858</ele>
        <time>2019-04-22T16:23:51Z</time>
      </trkpt>
      <trkpt lat="45.47323" lon="6.95215">
        <ele>1856</ele>
        <time>2019-04-22T16:24:51Z</time>
      </trkpt>
      <trkpt lat="45.47242" lon="6.95302">
        <ele>1811</ele>
        <time>2019-04-22T16:25:51Z</time>
      </trkpt>
      <trkpt lat="45.47204" lon="6.95352">
        <ele>1802</ele>
        <time>2019-04-22T16:26:51Z</time>
      </trkpt>
      <trkpt lat="45.47193" lon="6.95387">
        <ele>1805</ele>
        <time>2019-04-22T16:27:51Z</time>
      </trkpt>
      <trkpt lat="45.47033" lon="6.95744">
        <ele>1841</ele>
        <time>2019-04-22T16:28:51Z</time>
      </trkpt>
      <trkpt lat="45.4693" lon="6.95884">
        <ele>1858</ele>
        <time>2019-04-22T16:29:51Z</time>
      </trkpt>
      <trkpt lat="45.46881" lon="6.95938">
        <ele>1864</ele>
        <time>2019-04-22T16:30:51Z</time>
      </trkpt>
      <trkpt lat="45.46851" lon="6.95955">
        <ele>1855</ele>
        <time>2019-04-22T16:31:51Z</time>
      </trkpt>
      <trkpt lat="45.46818" lon="6.95962">
        <ele>1842</ele>
        <time>2019-04-22T16:32:51Z</time>
      </trkpt>
      <trkpt lat="45.46776" lon="6.9596">
        <ele>1827</ele>
        <time>2019-04-22T16:33:51Z</time>
      </trkpt>
      <trkpt lat="45.46753" lon="6.95955">
        <ele>1819</ele>
        <time>2019-04-22T16:34:51Z</time>
      </trkpt>
      <trkpt lat="45.4673" lon="6.95954">
        <ele>1813</ele>
        <time>2019-04-22T16:35:51Z</time>
      </trkpt>
      <trkpt lat="45.46716" lon="6.95959">
        <ele>1811</ele>
        <time>2019-04-22T16:36:51Z</time>
      </trkpt>
      <trkpt lat="45.46701" lon="6.95969">
        <ele>1809</ele>
        <time>2019-04-22T16:37:51Z</time>
      </trkpt>
      <trkpt lat="45.46677" lon="6.95991">
        <ele>1806</ele>
        <time>2019-04-22T16:38:51Z</time>
      </trkpt>
      <trkpt lat="45.46653" lon="6.96017">
        <ele>1808</ele>
        <time>2019-04-22T16:39:51Z</time>
      </trkpt>
      <trkpt lat="45.466" lon="6.96089">
        <ele>1811</ele>
        <time>2019-04-22T16:40:51Z</time>
      </trkpt>
      <trkpt lat="45.46563" lon="6.96141">
        <ele>1811</ele>
        <time>2019-04-22T16:41:51Z</time>
      </trkpt>
      <trkpt lat="45.4651" lon="6.96195">
        <ele>1807</ele>
        <time>2019-04-22T16:42:51Z</time>
      </trkpt>
      <trkpt lat="45.46405" lon="6.96283">
        <ele>1809</ele>
        <time>2019-04-22T16:43:51Z</time>
      </trkpt>
      <trkpt lat="45.46367" lon="6.9632">
        <ele>1810</ele>
        <time>2019-04-22T16:44:51Z</time>
      </trkpt>
      <trkpt lat="45.46333" lon="6.96374">
        <ele>1807</ele>
        <time>2019-04-22T16:45:51Z</time>
      </trkpt>
      <trkpt lat="45.46294" lon="6.96414">
        <ele>1805</ele>
        <time>2019-04-22T16:46:51Z</time>
      </trkpt>
      <trkpt lat="45.46282" lon="6.96422">
        <ele>1804</ele>
        <time>2019-04-22T16:47:51Z</time>
      </trkpt>
      <trkpt lat="45.46276" lon="6.96413">
        <ele>1803</ele>
        <time>2019-04-22T16:48:51Z</time>
      </trkpt>
      <trkpt lat="45.46269" lon="6.96413">
        <ele>1802</ele>
        <time>2019-04-22T16:49:51Z</time>
      </trkpt>
      <trkpt lat="45.46263" lon="6.9642">
        <ele>1801</ele>
        <time>2019-04-22T16:50:51Z</time>
      </trkpt>
      <trkpt lat="45.46263" lon="6.9643">
        <ele>1803</ele>
        <time>2019-04-22T16:51:51Z</time>
      </trkpt>
      <trkpt lat="45.46122" lon="6.96505">
        <ele>1801</ele>
        <time>2019-04-22T16:52:51Z</time>
      </trkpt>
      <trkpt lat="45.45973" lon="6.96623">
        <ele>1800</ele>
        <time>2019-04-22T16:53:51Z</time>
      </trkpt>
      <trkpt lat="45.45967" lon="6.96617">
        <ele>1800</ele>
        <time>2019-04-22T16:54:51Z</time>
      </trkpt>
      <trkpt lat="45.4596" lon="6.96618">
        <ele>1800</ele>
        <time>2019-04-22T16:55:51Z</time>
      </trkpt>
      <trkpt lat="45.45956" lon="6.96626">
        <ele>1800</ele>
        <time>2019-04-22T16:56:51Z</time>
      </trkpt>
      <trkpt lat="45.45957" lon="6.96636">
        <ele>1800</ele>
        <time>2019-04-22T16:57:51Z</time>
      </trkpt>
      <trkpt lat="45.45545" lon="6.9696">
        <ele>1805</ele>
        <time>2019-04-22T16:58:51Z</time>
      </trkpt>
      <trkpt lat="45.45464" lon="6.97042">
        <ele>1809</ele>
        <time>2019-04-22T16:59:51Z</time>
      </trkpt>
      <trkpt lat="45.45435" lon="6.97084">
        <ele>1810</ele>
        <time>2019-04-22T17:00:51Z</time>
      </trkpt>
      <trkpt lat="45.45406" lon="6.97131">
        <ele>1810</ele>
        <time>2019-04-22T17:01:51Z</time>
      </trkpt>
      <trkpt lat="45.45351" lon="6.97234">
        <ele>1814</ele>
        <time>2019-04-22T17:02:51Z</time>
      </trkpt>
      <trkpt lat="45.45307" lon="6.97307">
        <ele>1815</ele>
        <time>2019-04-22T17:03:51Z</time>
      </trkpt>
      <trkpt lat="45.45268" lon="6.97359">
        <ele>1817</ele>
        <time>2019-04-22T17:04:51Z</time>
      </trkpt>
      <trkpt lat="45.45214" lon="6.97415">
        <ele>1820</ele>
        <time>2019-04-22T17:05:51Z</time>
      </trkpt>
      <trkpt lat="45.4518" lon="6.97458">
        <ele>1821</ele>
        <time>2019-04-22T17:06:51Z</time>
      </trkpt>
      <trkpt lat="45.45151" lon="6.9749">
        <ele>1820</ele>
        <time>2019-04-22T17:07:51Z</time>
      </trkpt>
      <trkpt lat="45.45108" lon="6.97566">
        <ele>1821</ele>
        <time>2019-04-22T17:08:51Z</time>
      </trkpt>
      <trkpt lat="45.45054" lon="6.9768">
        <ele>1824</ele>
        <time>2019-04-22T17:09:51Z</time>
      </trkpt>
      <trkpt lat="45.45039" lon="6.97707">
        <ele>1825</ele>
        <time>2019-04-22T17:10:51Z</time>
      </trkpt>
      <trkpt lat="45.4503" lon="6.97717">
        <ele>1825</ele>
        <time>2019-04-22T17:11:51Z</time>
      </trkpt>
      <trkpt lat="45.45016" lon="6.97729">
        <ele>1826</ele>
        <time>2019-04-22T17:12:51Z</time>
      </trkpt>
      <trkpt lat="45.4501" lon="6.97722">
        <ele>1826</ele>
        <time>2019-04-22T17:13:51Z</time>
      </trkpt>
      <trkpt lat="45.45006" lon="6.97721">
        <ele>1826</ele>
        <time>2019-04-22T17:14:51Z</time>
      </trkpt>
      <trkpt lat="45.44998" lon="6.97726">
        <ele>1826</ele>
        <time>2019-04-22T17:15:51Z</time>
      </trkpt>
      <trkpt lat="45.44995" lon="6.97737">
        <ele>1826</ele>
        <time>2019-04-22T17:16:51Z</time>
      </trkpt>
      <trkpt lat="45.44998" lon="6.97748">
        <ele>1826</ele>
        <time>2019-04-22T17:17:51Z</time>
      </trkpt>
      <trkpt lat="45.45" lon="6.97751">
        <ele>1826</ele>
        <time>2019-04-22T17:18:51Z</time>
      </trkpt>
      <trkpt lat="45.449" lon="6.97988">
        <ele>1837</ele>
        <time>2019-04-22T17:19:51Z</time>
      </trkpt>
      <trkpt lat="45.44892" lon="6.97987">
        <ele>1837</ele>
        <time>2019-04-22T17:20:51Z</time>
      </trkpt>
      <trkpt lat="45.44887" lon="6.97994">
        <ele>1838</ele>
        <time>2019-04-22T17:21:51Z</time>
      </trkpt>
      <trkpt lat="45.44885" lon="6.98002">
        <ele>1838</ele>
        <time>2019-04-22T17:22:51Z</time>
      </trkpt>
      <trkpt lat="45.44887" lon="6.98009">
        <ele>1838</ele>
        <time>2019-04-22T17:23:51Z</time>
      </trkpt>
      <trkpt lat="45.44892" lon="6.98014">
        <ele>1838</ele>
        <time>2019-04-22T17:24:51Z</time>
      </trkpt>
      <trkpt lat="45.44862" lon="6.98084">
        <ele>1837</ele>
        <time>2019-04-22T17:25:51Z</time>
      </trkpt>
      <trkpt lat="45.44823" lon="6.98168">
        <ele>1838</ele>
        <time>2019-04-22T17:26:51Z</time>
      </trkpt>
      <trkpt lat="45.44733" lon="6.98453">
        <ele>1843</ele>
        <time>2019-04-22T17:27:51Z</time>
      </trkpt>
      <trkpt lat="45.44696" lon="6.98563">
        <ele>1846</ele>
        <time>2019-04-22T17:28:51Z</time>
      </trkpt>
      <trkpt lat="45.44671" lon="6.98644">
        <ele>1849</ele>
        <time>2019-04-22T17:29:51Z</time>
      </trkpt>
      <trkpt lat="45.44662" lon="6.98686">
        <ele>1851</ele>
        <time>2019-04-22T17:30:51Z</time>
      </trkpt>
      <trkpt lat="45.44655" lon="6.98789">
        <ele>1853</ele>
        <time>2019-04-22T17:31:51Z</time>
      </trkpt>
      <trkpt lat="45.44649" lon="6.98792">
        <ele>1853</ele>
        <time>2019-04-22T17:32:51Z</time>
      </trkpt>
      <trkpt lat="45.44647" lon="6.98798">
        <ele>1853</ele>
        <time>2019-04-22T17:33:51Z</time>
      </trkpt>
      <trkpt lat="45.44647" lon="6.98805">
        <ele>1853</ele>
        <time>2019-04-22T17:34:51Z</time>
      </trkpt>
      <trkpt lat="45.44649" lon="6.9881">
        <ele>1853</ele>
        <time>2019-04-22T17:35:51Z</time>
      </trkpt>
      <trkpt lat="45.44654" lon="6.98814">
        <ele>1853</ele>
        <time>2019-04-22T17:36:51Z</time>
      </trkpt>
      <trkpt lat="45.44658" lon="6.98814">
        <ele>1853</ele>
        <time>2019-04-22T17:37:51Z</time>
      </trkpt>
      <trkpt lat="45.44674" lon="6.98911">
        <ele>1852</ele>
        <time>2019-04-22T17:38:51Z</time>
      </trkpt>
      <trkpt lat="45.44715" lon="6.99149">
        <ele>1856</ele>
        <time>2019-04-22T17:39:51Z</time>
      </trkpt>
      <trkpt lat="45.44736" lon="6.99306">
        <ele>1861</ele>
        <time>2019-04-22T17:40:51Z</time>
      </trkpt>
      <trkpt lat="45.44739" lon="6.99354">
        <ele>1862</ele>
        <time>2019-04-22T17:41:51Z</time>
      </trkpt>
      <trkpt lat="45.44738" lon="6.99424">
        <ele>1863</ele>
        <time>2019-04-22T17:42:51Z</time>
      </trkpt>
      <trkpt lat="45.44738" lon="6.9973">
        <ele>1873</ele>
        <time>2019-04-22T17:43:51Z</time>
      </trkpt>
      <trkpt lat="45.4475" lon="6.99881">
        <ele>1879</ele>
        <time>2019-04-22T17:44:51Z</time>
      </trkpt>
      <trkpt lat="45.44783" lon="7.0005">
        <ele>1895</ele>
        <time>2019-04-22T17:45:51Z</time>
      </trkpt>
      <trkpt lat="45.44787" lon="7.00145">
        <ele>1900</ele>
        <time>2019-04-22T17:46:51Z</time>
      </trkpt>
      <trkpt lat="45.44818" lon="7.00325">
        <ele>1903</ele>
        <time>2019-04-22T17:47:51Z</time>
      </trkpt>
      <trkpt lat="45.44827" lon="7.00586">
        <ele>1910</ele>
        <time>2019-04-22T17:48:51Z</time>
      </trkpt>
      <trkpt lat="45.4483" lon="7.00634">
        <ele>1911</ele>
        <time>2019-04-22T17:49:51Z</time>
      </trkpt>
      <trkpt lat="45.44839" lon="7.00674">
        <ele>1913</ele>
        <time>2019-04-22T17:50:51Z</time>
      </trkpt>
      <trkpt lat="45.44873" lon="7.00758">
        <ele>1923</ele>
        <time>2019-04-22T17:51:51Z</time>
      </trkpt>
      <trkpt lat="45.44963" lon="7.00959">
        <ele>1935</ele>
        <time>2019-04-22T17:52:51Z</time>
      </trkpt>
      <trkpt lat="45.44979" lon="7.00983">
        <ele>1937</ele>
        <time>2019-04-22T17:53:51Z</time>
      </trkpt>
      <trkpt lat="45.44986" lon="7.00998">
        <ele>1937</ele>
        <time>2019-04-22T17:54:51Z</time>
      </trkpt>
      <trkpt lat="45.45014" lon="7.01039">
        <ele>1940</ele>
        <time>2019-04-22T17:55:51Z</time>
      </trkpt>
      <trkpt lat="45.45029" lon="7.01064">
        <ele>1941</ele>
        <time>2019-04-22T17:56:51Z</time>
      </trkpt>
      <trkpt lat="45.45039" lon="7.01084">
        <ele>1942</ele>
        <time>2019-04-22T17:57:51Z</time>
      </trkpt>
      <trkpt lat="45.45049" lon="7.01109">
        <ele>1944</ele>
        <time>2019-04-22T17:58:51Z</time>
      </trkpt>
      <trkpt lat="45.45055" lon="7.01129">
        <ele>1945</ele>
        <time>2019-04-22T17:59:51Z</time>
      </trkpt>
      <trkpt lat="45.45055" lon="7.01147">
        <ele>1945</ele>
        <time>2019-04-22T18:00:51Z</time>
      </trkpt>
      <trkpt lat="45.45057" lon="7.01156">
        <ele>1946</ele>
        <time>2019-04-22T18:01:51Z</time>
      </trkpt>
      <trkpt lat="45.45067" lon="7.01181">
        <ele>1948</ele>
        <time>2019-04-22T18:02:51Z</time>
      </trkpt>
      <trkpt lat="45.45083" lon="7.01259">
        <ele>1952</ele>
        <time>2019-04-22T18:03:51Z</time>
      </trkpt>
      <trkpt lat="45.45111" lon="7.01336">
        <ele>1959</ele>
        <time>2019-04-22T18:04:51Z</time>
      </trkpt>
      <trkpt lat="45.45258" lon="7.01726">
        <ele>1984</ele>
        <time>2019-04-22T18:05:51Z</time>
      </trkpt>
      <trkpt lat="45.4527" lon="7.01773">
        <ele>1988</ele>
        <time>2019-04-22T18:06:51Z</time>
      </trkpt>
      <trkpt lat="45.45299" lon="7.01951">
        <ele>2000</ele>
        <time>2019-04-22T18:07:51Z</time>
      </trkpt>
      <trkpt lat="45.45302" lon="7.01979">
        <ele>2001</ele>
        <time>2019-04-22T18:08:51Z</time>
      </trkpt>
      <trkpt lat="45.453" lon="7.01998">
        <ele>2001</ele>
        <time>2019-04-22T18:09:51Z</time>
      </trkpt>
      <trkpt lat="45.45271" lon="7.02084">
        <ele>2002</ele>
        <time>2019-04-22T18:10:51Z</time>
      </trkpt>
      <trkpt lat="45.45259" lon="7.02129">
        <ele>2002</ele>
        <time>2019-04-22T18:11:51Z</time>
      </trkpt>
      <trkpt lat="45.45261" lon="7.02152">
        <ele>2004</ele>
        <time>2019-04-22T18:12:51Z</time>
      </trkpt>
      <trkpt lat="45.45266" lon="7.0217">
        <ele>2007</ele>
        <time>2019-04-22T18:13:51Z</time>
      </trkpt>
      <trkpt lat="45.45267" lon="7.02193">
        <ele>2010</ele>
        <time>2019-04-22T18:14:51Z</time>
      </trkpt>
      <trkpt lat="45.45263" lon="7.02215">
        <ele>2012</ele>
        <time>2019-04-22T18:15:51Z</time>
      </trkpt>
      <trkpt lat="45.45253" lon="7.02244">
        <ele>2014</ele>
        <time>2019-04-22T18:16:51Z</time>
      </trkpt>
      <trkpt lat="45.45226" lon="7.0228">
        <ele>2014</ele>
        <time>2019-04-22T18:17:51Z</time>
      </trkpt>
      <trkpt lat="45.45178" lon="7.02298">
        <ele>2010</ele>
        <time>2019-04-22T18:18:51Z</time>
      </trkpt>
      <trkpt lat="45.45152" lon="7.02341">
        <ele>2018</ele>
        <time>2019-04-22T18:19:51Z</time>
      </trkpt>
      <trkpt lat="45.45143" lon="7.02374">
        <ele>2023</ele>
        <time>2019-04-22T18:20:51Z</time>
      </trkpt>
      <trkpt lat="45.45143" lon="7.0241">
        <ele>2026</ele>
        <time>2019-04-22T18:21:51Z</time>
      </trkpt>
      <trkpt lat="45.45148" lon="7.02438">
        <ele>2026</ele>
        <time>2019-04-22T18:22:51Z</time>
      </trkpt>
      <trkpt lat="45.45247" lon="7.02706">
        <ele>2035</ele>
        <time>2019-04-22T18:23:51Z</time>
      </trkpt>
      <trkpt lat="45.4525" lon="7.02729">
        <ele>2035</ele>
        <time>2019-04-22T18:24:51Z</time>
      </trkpt>
      <trkpt lat="45.45258" lon="7.02833">
        <ele>2031</ele>
        <time>2019-04-22T18:25:51Z</time>
      </trkpt>
      <trkpt lat="45.45264" lon="7.02866">
        <ele>2032</ele>
        <time>2019-04-22T18:26:51Z</time>
      </trkpt>
      <trkpt lat="45.45376" lon="7.03152">
        <ele>2044</ele>
        <time>2019-04-22T18:27:51Z</time>
      </trkpt>
      <trkpt lat="45.45386" lon="7.03167">
        <ele>2045</ele>
        <time>2019-04-22T18:28:51Z</time>
      </trkpt>
      <trkpt lat="45.4539" lon="7.03189">
        <ele>2045</ele>
        <time>2019-04-22T18:29:51Z</time>
      </trkpt>
      <trkpt lat="45.45469" lon="7.03346">
        <ele>2053</ele>
        <time>2019-04-22T18:30:51Z</time>
      </trkpt>
      <trkpt lat="45.4548" lon="7.03401">
        <ele>2052</ele>
        <time>2019-04-22T18:31:51Z</time>
      </trkpt>
      <trkpt lat="45.45487" lon="7.03418">
        <ele>2051</ele>
        <time>2019-04-22T18:32:51Z</time>
      </trkpt>
      <trkpt lat="45.45487" lon="7.03436">
        <ele>2051</ele>
        <time>2019-04-22T18:33:51Z</time>
      </trkpt>
      <trkpt lat="45.45497" lon="7.0349">
        <ele>2051</ele>
        <time>2019-04-22T18:34:51Z</time>
      </trkpt>
      <trkpt lat="45.45496" lon="7.03603">
        <ele>2053</ele>
        <time>2019-04-22T18:35:51Z</time>
      </trkpt>
      <trkpt lat="45.45491" lon="7.03641">
        <ele>2053</ele>
        <time>2019-04-22T18:36:51Z</time>
      </trkpt>
      <trkpt lat="45.45482" lon="7.03658">
        <ele>2053</ele>
        <time>2019-04-22T18:37:51Z</time>
      </trkpt>
      <trkpt lat="45.45465" lon="7.03669">
        <ele>2054</ele>
        <time>2019-04-22T18:38:51Z</time>
      </trkpt>
      <trkpt lat="45.45414" lon="7.03664">
        <ele>2055</ele>
        <time>2019-04-22T18:39:51Z</time>
      </trkpt>
      <trkpt lat="45.45403" lon="7.0366">
        <ele>2059</ele>
        <time>2019-04-22T18:40:51Z</time>
      </trkpt>
      <trkpt lat="45.45394" lon="7.03651">
        <ele>2061</ele>
        <time>2019-04-22T18:41:51Z</time>
      </trkpt>
      <trkpt lat="45.45359" lon="7.03586">
        <ele>2066</ele>
        <time>2019-04-22T18:42:51Z</time>
      </trkpt>
      <trkpt lat="45.45348" lon="7.03561">
        <ele>2065</ele>
        <time>2019-04-22T18:43:51Z</time>
      </trkpt>
      <trkpt lat="45.45346" lon="7.03527">
        <ele>2062</ele>
        <time>2019-04-22T18:44:51Z</time>
      </trkpt>
      <trkpt lat="45.4534" lon="7.03516">
        <ele>2062</ele>
        <time>2019-04-22T18:45:51Z</time>
      </trkpt>
      <trkpt lat="45.45333" lon="7.03512">
        <ele>2063</ele>
        <time>2019-04-22T18:46:51Z</time>
      </trkpt>
      <trkpt lat="45.45325" lon="7.0352">
        <ele>2067</ele>
        <time>2019-04-22T18:47:51Z</time>
      </trkpt>
      <trkpt lat="45.45322" lon="7.03531">
        <ele>2069</ele>
        <time>2019-04-22T18:48:51Z</time>
      </trkpt>
      <trkpt lat="45.45327" lon="7.03545">
        <ele>2069</ele>
        <time>2019-04-22T18:49:51Z</time>
      </trkpt>
      <trkpt lat="45.45339" lon="7.03573">
        <ele>2069</ele>
        <time>2019-04-22T18:50:51Z</time>
      </trkpt>
      <trkpt lat="45.45377" lon="7.03771">
        <ele>2078</ele>
        <time>2019-04-22T18:51:51Z</time>
      </trkpt>
      <trkpt lat="45.45383" lon="7.03831">
        <ele>2080</ele>
        <time>2019-04-22T18:52:51Z</time>
      </trkpt>
      <trkpt lat="45.45379" lon="7.03922">
        <ele>2091</ele>
        <time>2019-04-22T18:53:51Z</time>
      </trkpt>
      <trkpt lat="45.45385" lon="7.03942">
        <ele>2091</ele>
        <time>2019-04-22T18:54:51Z</time>
      </trkpt>
      <trkpt lat="45.45397" lon="7.0396">
        <ele>2089</ele>
        <time>2019-04-22T18:55:51Z</time>
      </trkpt>
      <trkpt lat="45.45397" lon="7.0397">
        <ele>2091</ele>
        <time>2019-04-22T18:56:51Z</time>
      </trkpt>
      <trkpt lat="45.45391" lon="7.03981">
        <ele>2094</ele>
        <time>2019-04-22T18:57:51Z</time>
      </trkpt>
      <trkpt lat="45.45382" lon="7.03979">
        <ele>2097</ele>
        <time>2019-04-22T18:58:51Z</time>
      </trkpt>
      <trkpt lat="45.45375" lon="7.03969">
        <ele>2098</ele>
        <time>2019-04-22T18:59:51Z</time>
      </trkpt>
      <trkpt lat="45.45353" lon="7.03846">
        <ele>2093</ele>
        <time>2019-04-22T19:00:51Z</time>
      </trkpt>
      <trkpt lat="45.45316" lon="7.03742">
        <ele>2104</ele>
        <time>2019-04-22T19:01:51Z</time>
      </trkpt>
      <trkpt lat="45.45239" lon="7.03571">
        <ele>2109</ele>
        <time>2019-04-22T19:02:51Z</time>
      </trkpt>
      <trkpt lat="45.45206" lon="7.03476">
        <ele>2112</ele>
        <time>2019-04-22T19:03:51Z</time>
      </trkpt>
      <trkpt lat="45.45155" lon="7.03399">
        <ele>2128</ele>
        <time>2019-04-22T19:04:51Z</time>
      </trkpt>
      <trkpt lat="45.45103" lon="7.03233">
        <ele>2134</ele>
        <time>2019-04-22T19:05:51Z</time>
      </trkpt>
      <trkpt lat="45.45069" lon="7.0316">
        <ele>2141</ele>
        <time>2019-04-22T19:06:51Z</time>
      </trkpt>
      <trkpt lat="45.45041" lon="7.03074">
        <ele>2138</ele>
        <time>2019-04-22T19:07:51Z</time>
      </trkpt>
      <trkpt lat="45.45009" lon="7.03031">
        <ele>2151</ele>
        <time>2019-04-22T19:08:51Z</time>
      </trkpt>
      <trkpt lat="45.44974" lon="7.02939">
        <ele>2152</ele>
        <time>2019-04-22T19:09:51Z</time>
      </trkpt>
      <trkpt lat="45.44951" lon="7.0286">
        <ele>2152</ele>
        <time>2019-04-22T19:10:51Z</time>
      </trkpt>
      <trkpt lat="45.44913" lon="7.02769">
        <ele>2160</ele>
        <time>2019-04-22T19:11:51Z</time>
      </trkpt>
      <trkpt lat="45.44875" lon="7.02622">
        <ele>2169</ele>
        <time>2019-04-22T19:12:51Z</time>
      </trkpt>
      <trkpt lat="45.44842" lon="7.02519">
        <ele>2177</ele>
        <time>2019-04-22T19:13:51Z</time>
      </trkpt>
      <trkpt lat="45.44828" lon="7.02482">
        <ele>2178</ele>
        <time>2019-04-22T19:14:51Z</time>
      </trkpt>
      <trkpt lat="45.44795" lon="7.02422">
        <ele>2184</ele>
        <time>2019-04-22T19:15:51Z</time>
      </trkpt>
      <trkpt lat="45.44784" lon="7.02381">
        <ele>2183</ele>
        <time>2019-04-22T19:16:51Z</time>
      </trkpt>
      <trkpt lat="45.44698" lon="7.02208">
        <ele>2198</ele>
        <time>2019-04-22T19:17:51Z</time>
      </trkpt>
      <trkpt lat="45.44578" lon="7.02029">
        <ele>2214</ele>
        <time>2019-04-22T19:18:51Z</time>
      </trkpt>
      <trkpt lat="45.44534" lon="7.01947">
        <ele>2219</ele>
        <time>2019-04-22T19:19:51Z</time>
      </trkpt>
      <trkpt lat="45.44512" lon="7.01876">
        <ele>2215</ele>
        <time>2019-04-22T19:20:51Z</time>
      </trkpt>
      <trkpt lat="45.44502" lon="7.01856">
        <ele>2215</ele>
        <time>2019-04-22T19:21:51Z</time>
      </trkpt>
      <trkpt lat="45.44493" lon="7.01848">
        <ele>2217</ele>
        <time>2019-04-22T19:22:51Z</time>
      </trkpt>
      <trkpt lat="45.4448" lon="7.01862">
        <ele>2224</ele>
        <time>2019-04-22T19:23:51Z</time>
      </trkpt>
      <trkpt lat="45.44498" lon="7.01898">
        <ele>2226</ele>
        <time>2019-04-22T19:24:51Z</time>
      </trkpt>
      <trkpt lat="45.44522" lon="7.01981">
        <ele>2232</ele>
        <time>2019-04-22T19:25:51Z</time>
      </trkpt>
      <trkpt lat="45.44558" lon="7.02087">
        <ele>2233</ele>
        <time>2019-04-22T19:26:51Z</time>
      </trkpt>
      <trkpt lat="45.44578" lon="7.02184">
        <ele>2243</ele>
        <time>2019-04-22T19:27:51Z</time>
      </trkpt>
      <trkpt lat="45.44643" lon="7.02298">
        <ele>2242</ele>
        <time>2019-04-22T19:28:51Z</time>
      </trkpt>
      <trkpt lat="45.4468" lon="7.02401">
        <ele>2245</ele>
        <time>2019-04-22T19:29:51Z</time>
      </trkpt>
      <trkpt lat="45.44681" lon="7.0241">
        <ele>2246</ele>
        <time>2019-04-22T19:30:51Z</time>
      </trkpt>
      <trkpt lat="45.44678" lon="7.02419">
        <ele>2249</ele>
        <time>2019-04-22T19:31:51Z</time>
      </trkpt>
      <trkpt lat="45.44667" lon="7.02417">
        <ele>2255</ele>
        <time>2019-04-22T19:32:51Z</time>
      </trkpt>
      <trkpt lat="45.44626" lon="7.0232">
        <ele>2256</ele>
        <time>2019-04-22T19:33:51Z</time>
      </trkpt>
      <trkpt lat="45.44542" lon="7.02231">
        <ele>2269</ele>
        <time>2019-04-22T19:34:51Z</time>
      </trkpt>
      <trkpt lat="45.4452" lon="7.02196">
        <ele>2272</ele>
        <time>2019-04-22T19:35:51Z</time>
      </trkpt>
      <trkpt lat="45.44514" lon="7.02174">
        <ele>2271</ele>
        <time>2019-04-22T19:36:51Z</time>
      </trkpt>
      <trkpt lat="45.4448" lon="7.02104">
        <ele>2275</ele>
        <time>2019-04-22T19:37:51Z</time>
      </trkpt>
      <trkpt lat="45.44402" lon="7.01977">
        <ele>2284</ele>
        <time>2019-04-22T19:38:51Z</time>
      </trkpt>
      <trkpt lat="45.44375" lon="7.01942">
        <ele>2285</ele>
        <time>2019-04-22T19:39:51Z</time>
      </trkpt>
      <trkpt lat="45.44304" lon="7.01885">
        <ele>2300</ele>
        <time>2019-04-22T19:40:51Z</time>
      </trkpt>
      <trkpt lat="45.44276" lon="7.01849">
        <ele>2310</ele>
        <time>2019-04-22T19:41:51Z</time>
      </trkpt>
      <trkpt lat="45.44274" lon="7.01832">
        <ele>2310</ele>
        <time>2019-04-22T19:42:51Z</time>
      </trkpt>
      <trkpt lat="45.44292" lon="7.01767">
        <ele>2298</ele>
        <time>2019-04-22T19:43:51Z</time>
      </trkpt>
      <trkpt lat="45.44293" lon="7.01749">
        <ele>2296</ele>
        <time>2019-04-22T19:44:51Z</time>
      </trkpt>
      <trkpt lat="45.44283" lon="7.01711">
        <ele>2292</ele>
        <time>2019-04-22T19:45:51Z</time>
      </trkpt>
      <trkpt lat="45.44249" lon="7.01676">
        <ele>2299</ele>
        <time>2019-04-22T19:46:51Z</time>
      </trkpt>
      <trkpt lat="45.44197" lon="7.01675">
        <ele>2309</ele>
        <time>2019-04-22T19:47:51Z</time>
      </trkpt>
      <trkpt lat="45.44187" lon="7.01667">
        <ele>2310</ele>
        <time>2019-04-22T19:48:51Z</time>
      </trkpt>
      <trkpt lat="45.44178" lon="7.01648">
        <ele>2312</ele>
        <time>2019-04-22T19:49:51Z</time>
      </trkpt>
      <trkpt lat="45.44177" lon="7.01614">
        <ele>2312</ele>
        <time>2019-04-22T19:50:51Z</time>
      </trkpt>
      <trkpt lat="45.44179" lon="7.0157">
        <ele>2312</ele>
        <time>2019-04-22T19:51:51Z</time>
      </trkpt>
      <trkpt lat="45.44183" lon="7.01517">
        <ele>2311</ele>
        <time>2019-04-22T19:52:51Z</time>
      </trkpt>
      <trkpt lat="45.44197" lon="7.01461">
        <ele>2306</ele>
        <time>2019-04-22T19:53:51Z</time>
      </trkpt>
      <trkpt lat="45.44211" lon="7.01376">
        <ele>2309</ele>
        <time>2019-04-22T19:54:51Z</time>
      </trkpt>
      <trkpt lat="45.44211" lon="7.01351">
        <ele>2313</ele>
        <time>2019-04-22T19:55:51Z</time>
      </trkpt>
      <trkpt lat="45.44193" lon="7.01238">
        <ele>2329</ele>
        <time>2019-04-22T19:56:51Z</time>
      </trkpt>
      <trkpt lat="45.44193" lon="7.01214">
        <ele>2330</ele>
        <time>2019-04-22T19:57:51Z</time>
      </trkpt>
      <trkpt lat="45.44196" lon="7.01167">
        <ele>2329</ele>
        <time>2019-04-22T19:58:51Z</time>
      </trkpt>
      <trkpt lat="45.44191" lon="7.01134">
        <ele>2327</ele>
        <time>2019-04-22T19:59:51Z</time>
      </trkpt>
      <trkpt lat="45.44158" lon="7.01014">
        <ele>2324</ele>
        <time>2019-04-22T20:00:51Z</time>
      </trkpt>
      <trkpt lat="45.44146" lon="7.00955">
        <ele>2328</ele>
        <time>2019-04-22T20:01:51Z</time>
      </trkpt>
      <trkpt lat="45.44138" lon="7.00889">
        <ele>2326</ele>
        <time>2019-04-22T20:02:51Z</time>
      </trkpt>
      <trkpt lat="45.44132" lon="7.00858">
        <ele>2324</ele>
        <time>2019-04-22T20:03:51Z</time>
      </trkpt>
      <trkpt lat="45.44093" lon="7.00767">
        <ele>2327</ele>
        <time>2019-04-22T20:04:51Z</time>
      </trkpt>
      <trkpt lat="45.44037" lon="7.00664">
        <ele>2332</ele>
        <time>2019-04-22T20:05:51Z</time>
      </trkpt>
      <trkpt lat="45.44007" lon="7.00625">
        <ele>2333</ele>
        <time>2019-04-22T20:06:51Z</time>
      </trkpt>
      <trkpt lat="45.43946" lon="7.00579">
        <ele>2346</ele>
        <time>2019-04-22T20:07:51Z</time>
      </trkpt>
      <trkpt lat="45.439" lon="7.00526">
        <ele>2341</ele>
        <time>2019-04-22T20:08:51Z</time>
      </trkpt>
      <trkpt lat="45.43822" lon="7.00482">
        <ele>2346</ele>
        <time>2019-04-22T20:09:51Z</time>
      </trkpt>
      <trkpt lat="45.43751" lon="7.0043">
        <ele>2350</ele>
        <time>2019-04-22T20:10:51Z</time>
      </trkpt>
      <trkpt lat="45.43725" lon="7.00427">
        <ele>2360</ele>
        <time>2019-04-22T20:11:51Z</time>
      </trkpt>
      <trkpt lat="45.437" lon="7.00408">
        <ele>2363</ele>
        <time>2019-04-22T20:12:51Z</time>
      </trkpt>
      <trkpt lat="45.43643" lon="7.00338">
        <ele>2363</ele>
        <time>2019-04-22T20:13:51Z</time>
      </trkpt>
      <trkpt lat="45.43618" lon="7.00292">
        <ele>2361</ele>
        <time>2019-04-22T20:14:51Z</time>
      </trkpt>
      <trkpt lat="45.43523" lon="7.00229">
        <ele>2371</ele>
        <time>2019-04-22T20:15:51Z</time>
      </trkpt>
      <trkpt lat="45.4345" lon="7.0022">
        <ele>2384</ele>
        <time>2019-04-22T20:16:51Z</time>
      </trkpt>
      <trkpt lat="45.43407" lon="7.00202">
        <ele>2385</ele>
        <time>2019-04-22T20:17:51Z</time>
      </trkpt>
      <trkpt lat="45.4337" lon="7.00257">
        <ele>2402</ele>
        <time>2019-04-22T20:18:51Z</time>
      </trkpt>
      <trkpt lat="45.43352" lon="7.00259">
        <ele>2404</ele>
        <time>2019-04-22T20:19:51Z</time>
      </trkpt>
      <trkpt lat="45.433" lon="7.00229">
        <ele>2401</ele>
        <time>2019-04-22T20:20:51Z</time>
      </trkpt>
      <trkpt lat="45.43222" lon="7.00208">
        <ele>2408</ele>
        <time>2019-04-22T20:21:51Z</time>
      </trkpt>
      <trkpt lat="45.43199" lon="7.0018">
        <ele>2407</ele>
        <time>2019-04-22T20:22:51Z</time>
      </trkpt>
      <trkpt lat="45.43175" lon="7.00169">
        <ele>2410</ele>
        <time>2019-04-22T20:23:51Z</time>
      </trkpt>
      <trkpt lat="45.4315" lon="7.0017">
        <ele>2417</ele>
        <time>2019-04-22T20:24:51Z</time>
      </trkpt>
      <trkpt lat="45.43118" lon="7.0019">
        <ele>2429</ele>
        <time>2019-04-22T20:25:51Z</time>
      </trkpt>
      <trkpt lat="45.43116" lon="7.00213">
        <ele>2432</ele>
        <time>2019-04-22T20:26:51Z</time>
      </trkpt>
      <trkpt lat="45.43119" lon="7.00245">
        <ele>2433</ele>
        <time>2019-04-22T20:27:51Z</time>
      </trkpt>
      <trkpt lat="45.43126" lon="7.00269">
        <ele>2435</ele>
        <time>2019-04-22T20:28:51Z</time>
      </trkpt>
      <trkpt lat="45.43141" lon="7.00282">
        <ele>2432</ele>
        <time>2019-04-22T20:29:51Z</time>
      </trkpt>
      <trkpt lat="45.43156" lon="7.00292">
        <ele>2428</ele>
        <time>2019-04-22T20:30:51Z</time>
      </trkpt>
      <trkpt lat="45.43216" lon="7.00292">
        <ele>2423</ele>
        <time>2019-04-22T20:31:51Z</time>
      </trkpt>
      <trkpt lat="45.43286" lon="7.00336">
        <ele>2429</ele>
        <time>2019-04-22T20:32:51Z</time>
      </trkpt>
      <trkpt lat="45.43352" lon="7.0033">
        <ele>2423</ele>
        <time>2019-04-22T20:33:51Z</time>
      </trkpt>
      <trkpt lat="45.4336" lon="7.00333">
        <ele>2424</ele>
        <time>2019-04-22T20:34:51Z</time>
      </trkpt>
      <trkpt lat="45.4336" lon="7.00348">
        <ele>2427</ele>
        <time>2019-04-22T20:35:51Z</time>
      </trkpt>
      <trkpt lat="45.43366" lon="7.00365">
        <ele>2430</ele>
        <time>2019-04-22T20:36:51Z</time>
      </trkpt>
      <trkpt lat="45.43414" lon="7.00441">
        <ele>2441</ele>
        <time>2019-04-22T20:37:51Z</time>
      </trkpt>
      <trkpt lat="45.43453" lon="7.00484">
        <ele>2447</ele>
        <time>2019-04-22T20:38:51Z</time>
      </trkpt>
      <trkpt lat="45.43505" lon="7.00506">
        <ele>2450</ele>
        <time>2019-04-22T20:39:51Z</time>
      </trkpt>
      <trkpt lat="45.43571" lon="7.00517">
        <ele>2447</ele>
        <time>2019-04-22T20:40:51Z</time>
      </trkpt>
      <trkpt lat="45.43606" lon="7.00551">
        <ele>2452</ele>
        <time>2019-04-22T20:41:51Z</time>
      </trkpt>
      <trkpt lat="45.43636" lon="7.00575">
        <ele>2455</ele>
        <time>2019-04-22T20:42:51Z</time>
      </trkpt>
      <trkpt lat="45.43716" lon="7.00631">
        <ele>2450</ele>
        <time>2019-04-22T20:43:51Z</time>
      </trkpt>
      <trkpt lat="45.43719" lon="7.00639">
        <ele>2452</ele>
        <time>2019-04-22T20:44:51Z</time>
      </trkpt>
      <trkpt lat="45.43718" lon="7.00649">
        <ele>2456</ele>
        <time>2019-04-22T20:45:51Z</time>
      </trkpt>
      <trkpt lat="45.43708" lon="7.00653">
        <ele>2461</ele>
        <time>2019-04-22T20:46:51Z</time>
      </trkpt>
      <trkpt lat="45.43689" lon="7.00637">
        <ele>2462</ele>
        <time>2019-04-22T20:47:51Z</time>
      </trkpt>
      <trkpt lat="45.43569" lon="7.00574">
        <ele>2467</ele>
        <time>2019-04-22T20:48:51Z</time>
      </trkpt>
      <trkpt lat="45.43516" lon="7.00581">
        <ele>2475</ele>
        <time>2019-04-22T20:49:51Z</time>
      </trkpt>
      <trkpt lat="45.43471" lon="7.00601">
        <ele>2485</ele>
        <time>2019-04-22T20:50:51Z</time>
      </trkpt>
      <trkpt lat="45.43423" lon="7.00598">
        <ele>2485</ele>
        <time>2019-04-22T20:51:51Z</time>
      </trkpt>
      <trkpt lat="45.43419" lon="7.00607">
        <ele>2488</ele>
        <time>2019-04-22T20:52:51Z</time>
      </trkpt>
      <trkpt lat="45.43421" lon="7.00616">
        <ele>2491</ele>
        <time>2019-04-22T20:53:51Z</time>
      </trkpt>
      <trkpt lat="45.43483" lon="7.00632">
        <ele>2495</ele>
        <time>2019-04-22T20:54:51Z</time>
      </trkpt>
      <trkpt lat="45.43502" lon="7.00619">
        <ele>2490</ele>
        <time>2019-04-22T20:55:51Z</time>
      </trkpt>
      <trkpt lat="45.43533" lon="7.00618">
        <ele>2487</ele>
        <time>2019-04-22T20:56:51Z</time>
      </trkpt>
      <trkpt lat="45.43569" lon="7.00656">
        <ele>2497</ele>
        <time>2019-04-22T20:57:51Z</time>
      </trkpt>
      <trkpt lat="45.43609" lon="7.00676">
        <ele>2497</ele>
        <time>2019-04-22T20:58:51Z</time>
      </trkpt>
      <trkpt lat="45.43674" lon="7.00773">
        <ele>2510</ele>
        <time>2019-04-22T20:59:51Z</time>
      </trkpt>
      <trkpt lat="45.43712" lon="7.0084">
        <ele>2519</ele>
        <time>2019-04-22T21:00:51Z</time>
      </trkpt>
      <trkpt lat="45.43794" lon="7.00913">
        <ele>2508</ele>
        <time>2019-04-22T21:01:51Z</time>
      </trkpt>
      <trkpt lat="45.43827" lon="7.00956">
        <ele>2509</ele>
        <time>2019-04-22T21:02:51Z</time>
      </trkpt>
      <trkpt lat="45.43843" lon="7.00983">
        <ele>2513</ele>
        <time>2019-04-22T21:03:51Z</time>
      </trkpt>
      <trkpt lat="45.43858" lon="7.01019">
        <ele>2517</ele>
        <time>2019-04-22T21:04:51Z</time>
      </trkpt>
      <trkpt lat="45.43858" lon="7.01046">
        <ele>2520</ele>
        <time>2019-04-22T21:05:51Z</time>
      </trkpt>
      <trkpt lat="45.4384" lon="7.01047">
        <ele>2522</ele>
        <time>2019-04-22T21:06:51Z</time>
      </trkpt>
      <trkpt lat="45.43819" lon="7.01032">
        <ele>2526</ele>
        <time>2019-04-22T21:07:51Z</time>
      </trkpt>
      <trkpt lat="45.43805" lon="7.01029">
        <ele>2530</ele>
        <time>2019-04-22T21:08:51Z</time>
      </trkpt>
      <trkpt lat="45.4379" lon="7.01044">
        <ele>2535</ele>
        <time>2019-04-22T21:09:51Z</time>
      </trkpt>
      <trkpt lat="45.43762" lon="7.01108">
        <ele>2541</ele>
        <time>2019-04-22T21:10:51Z</time>
      </trkpt>
      <trkpt lat="45.43743" lon="7.01163">
        <ele>2540</ele>
        <time>2019-04-22T21:11:51Z</time>
      </trkpt>
      <trkpt lat="45.43722" lon="7.01186">
        <ele>2547</ele>
        <time>2019-04-22T21:12:51Z</time>
      </trkpt>
      <trkpt lat="45.43712" lon="7.01207">
        <ele>2549</ele>
        <time>2019-04-22T21:13:51Z</time>
      </trkpt>
      <trkpt lat="45.43712" lon="7.01235">
        <ele>2548</ele>
        <time>2019-04-22T21:14:51Z</time>
      </trkpt>
      <trkpt lat="45.43702" lon="7.01264">
        <ele>2548</ele>
        <time>2019-04-22T21:15:51Z</time>
      </trkpt>
      <trkpt lat="45.43687" lon="7.01283">
        <ele>2550</ele>
        <time>2019-04-22T21:16:51Z</time>
      </trkpt>
      <trkpt lat="45.43622" lon="7.01379">
        <ele>2549</ele>
        <time>2019-04-22T21:17:51Z</time>
      </trkpt>
      <trkpt lat="45.43607" lon="7.01389">
        <ele>2551</ele>
        <time>2019-04-22T21:18:51Z</time>
      </trkpt>
      <trkpt lat="45.4359" lon="7.01389">
        <ele>2554</ele>
        <time>2019-04-22T21:19:51Z</time>
      </trkpt>
      <trkpt lat="45.43557" lon="7.01379">
        <ele>2562</ele>
        <time>2019-04-22T21:20:51Z</time>
      </trkpt>
      <trkpt lat="45.43489" lon="7.01445">
        <ele>2564</ele>
        <time>2019-04-22T21:21:51Z</time>
      </trkpt>
      <trkpt lat="45.43384" lon="7.01525">
        <ele>2578</ele>
        <time>2019-04-22T21:22:51Z</time>
      </trkpt>
      <trkpt lat="45.43318" lon="7.0166">
        <ele>2578</ele>
        <time>2019-04-22T21:23:51Z</time>
      </trkpt>
      <trkpt lat="45.43298" lon="7.0171">
        <ele>2575</ele>
        <time>2019-04-22T21:24:51Z</time>
      </trkpt>
      <trkpt lat="45.4328" lon="7.01732">
        <ele>2576</ele>
        <time>2019-04-22T21:25:51Z</time>
      </trkpt>
      <trkpt lat="45.43235" lon="7.01773">
        <ele>2581</ele>
        <time>2019-04-22T21:26:51Z</time>
      </trkpt>
      <trkpt lat="45.43185" lon="7.01824">
        <ele>2582</ele>
        <time>2019-04-22T21:27:51Z</time>
      </trkpt>
      <trkpt lat="45.43153" lon="7.01841">
        <ele>2587</ele>
        <time>2019-04-22T21:28:51Z</time>
      </trkpt>
      <trkpt lat="45.43042" lon="7.01907">
        <ele>2602</ele>
        <time>2019-04-22T21:29:51Z</time>
      </trkpt>
      <trkpt lat="45.42898" lon="7.02107">
        <ele>2610</ele>
        <time>2019-04-22T21:30:51Z</time>
      </trkpt>
      <trkpt lat="45.42881" lon="7.02122">
        <ele>2611</ele>
        <time>2019-04-22T21:31:51Z</time>
      </trkpt>
      <trkpt lat="45.4286" lon="7.02133">
        <ele>2614</ele>
        <time>2019-04-22T21:32:51Z</time>
      </trkpt>
      <trkpt lat="45.4268" lon="7.02213">
        <ele>2627</ele>
        <time>2019-04-22T21:33:51Z</time>
      </trkpt>
      <trkpt lat="45.42635" lon="7.02247">
        <ele>2631</ele>
        <time>2019-04-22T21:34:51Z</time>
      </trkpt>
      <trkpt lat="45.42596" lon="7.02272">
        <ele>2634</ele>
        <time>2019-04-22T21:35:51Z</time>
      </trkpt>
      <trkpt lat="45.42523" lon="7.02265">
        <ele>2641</ele>
        <time>2019-04-22T21:36:51Z</time>
      </trkpt>
      <trkpt lat="45.42423" lon="7.02278">
        <ele>2650</ele>
        <time>2019-04-22T21:37:51Z</time>
      </trkpt>
      <trkpt lat="45.42394" lon="7.02291">
        <ele>2655</ele>
        <time>2019-04-22T21:38:51Z</time>
      </trkpt>
      <trkpt lat="45.42375" lon="7.02313">
        <ele>2657</ele>
        <time>2019-04-22T21:39:51Z</time>
      </trkpt>
      <trkpt lat="45.42363" lon="7.02333">
        <ele>2657</ele>
        <time>2019-04-22T21:40:51Z</time>
      </trkpt>
      <trkpt lat="45.42358" lon="7.02356">
        <ele>2658</ele>
        <time>2019-04-22T21:41:51Z</time>
      </trkpt>
      <trkpt lat="45.4236" lon="7.02386">
        <ele>2659</ele>
        <time>2019-04-22T21:42:51Z</time>
      </trkpt>
      <trkpt lat="45.42371" lon="7.02446">
        <ele>2658</ele>
        <time>2019-04-22T21:43:51Z</time>
      </trkpt>
      <trkpt lat="45.42371" lon="7.02473">
        <ele>2660</ele>
        <time>2019-04-22T21:44:51Z</time>
      </trkpt>
      <trkpt lat="45.42367" lon="7.02515">
        <ele>2663</ele>
        <time>2019-04-22T21:45:51Z</time>
      </trkpt>
      <trkpt lat="45.4236" lon="7.0253">
        <ele>2665</ele>
        <time>2019-04-22T21:46:51Z</time>
      </trkpt>
      <trkpt lat="45.42342" lon="7.026">
        <ele>2670</ele>
        <time>2019-04-22T21:47:51Z</time>
      </trkpt>
      <trkpt lat="45.42338" lon="7.02628">
        <ele>2674</ele>
        <time>2019-04-22T21:48:51Z</time>
      </trkpt>
      <trkpt lat="45.42345" lon="7.02659">
        <ele>2676</ele>
        <time>2019-04-22T21:49:51Z</time>
      </trkpt>
      <trkpt lat="45.42346" lon="7.02681">
        <ele>2677</ele>
        <time>2019-04-22T21:50:51Z</time>
      </trkpt>
      <trkpt lat="45.42343" lon="7.02696">
        <ele>2678</ele>
        <time>2019-04-22T21:51:51Z</time>
      </trkpt>
      <trkpt lat="45.42313" lon="7.02775">
        <ele>2684</ele>
        <time>2019-04-22T21:52:51Z</time>
      </trkpt>
      <trkpt lat="45.42282" lon="7.02832">
        <ele>2689</ele>
        <time>2019-04-22T21:53:51Z</time>
      </trkpt>
      <trkpt lat="45.42247" lon="7.02876">
        <ele>2696</ele>
        <time>2019-04-22T21:54:51Z</time>
      </trkpt>
      <trkpt lat="45.42232" lon="7.02881">
        <ele>2698</ele>
        <time>2019-04-22T21:55:51Z</time>
      </trkpt>
      <trkpt lat="45.42221" lon="7.02878">
        <ele>2698</ele>
        <time>2019-04-22T21:56:51Z</time>
      </trkpt>
      <trkpt lat="45.42215" lon="7.02874">
        <ele>2699</ele>
        <time>2019-04-22T21:57:51Z</time>
      </trkpt>
      <trkpt lat="45.4212" lon="7.02755">
        <ele>2704</ele>
        <time>2019-04-22T21:58:51Z</time>
      </trkpt>
      <trkpt lat="45.42109" lon="7.02745">
        <ele>2705</ele>
        <time>2019-04-22T21:59:51Z</time>
      </trkpt>
      <trkpt lat="45.42099" lon="7.02743">
        <ele>2705</ele>
        <time>2019-04-22T22:00:51Z</time>
      </trkpt>
      <trkpt lat="45.4209" lon="7.02745">
        <ele>2705</ele>
        <time>2019-04-22T22:01:51Z</time>
      </trkpt>
      <trkpt lat="45.42083" lon="7.02753">
        <ele>2706</ele>
        <time>2019-04-22T22:02:51Z</time>
      </trkpt>
      <trkpt lat="45.42076" lon="7.02769">
        <ele>2708</ele>
        <time>2019-04-22T22:03:51Z</time>
      </trkpt>
      <trkpt lat="45.42046" lon="7.02849">
        <ele>2714</ele>
        <time>2019-04-22T22:04:51Z</time>
      </trkpt>
      <trkpt lat="45.4204" lon="7.0286">
        <ele>2716</ele>
        <time>2019-04-22T22:05:51Z</time>
      </trkpt>
      <trkpt lat="45.4203" lon="7.02872">
        <ele>2718</ele>
        <time>2019-04-22T22:06:51Z</time>
      </trkpt>
      <trkpt lat="45.42022" lon="7.02877">
        <ele>2719</ele>
        <time>2019-04-22T22:07:51Z</time>
      </trkpt>
      <trkpt lat="45.42016" lon="7.02881">
        <ele>2719</ele>
        <time>2019-04-22T22:08:51Z</time>
      </trkpt>
      <trkpt lat="45.41996" lon="7.02883">
        <ele>2721</ele>
        <time>2019-04-22T22:09:51Z</time>
      </trkpt>
      <trkpt lat="45.41885" lon="7.0287">
        <ele>2730</ele>
        <time>2019-04-22T22:10:51Z</time>
      </trkpt>
      <trkpt lat="45.41874" lon="7.02874">
        <ele>2731</ele>
        <time>2019-04-22T22:11:51Z</time>
      </trkpt>
      <trkpt lat="45.41869" lon="7.02881">
        <ele>2732</ele>
        <time>2019-04-22T22:12:51Z</time>
      </trkpt>
      <trkpt lat="45.41869" lon="7.02888">
        <ele>2733</ele>
        <time>2019-04-22T22:13:51Z</time>
      </trkpt>
      <trkpt lat="45.41871" lon="7.02894">
        <ele>2733</ele>
        <time>2019-04-22T22:14:51Z</time>
      </trkpt>
      <trkpt lat="45.41878" lon="7.02901">
        <ele>2733</ele>
        <time>2019-04-22T22:15:51Z</time>
      </trkpt>
      <trkpt lat="45.41896" lon="7.02903">
        <ele>2732</ele>
        <time>2019-04-22T22:16:51Z</time>
      </trkpt>
      <trkpt lat="45.41902" lon="7.02908">
        <ele>2732</ele>
        <time>2019-04-22T22:17:51Z</time>
      </trkpt>
      <trkpt lat="45.41908" lon="7.02917">
        <ele>2732</ele>
        <time>2019-04-22T22:18:51Z</time>
      </trkpt>
      <trkpt lat="45.41929" lon="7.02967">
        <ele>2740</ele>
        <time>2019-04-22T22:19:51Z</time>
      </trkpt>
      <trkpt lat="45.41936" lon="7.02987">
        <ele>2743</ele>
        <time>2019-04-22T22:20:51Z</time>
      </trkpt>
      <trkpt lat="45.41939" lon="7.03005">
        <ele>2747</ele>
        <time>2019-04-22T22:21:51Z</time>
      </trkpt>
      <trkpt lat="45.41938" lon="7.03013">
        <ele>2748</ele>
        <time>2019-04-22T22:22:51Z</time>
      </trkpt>
      <trkpt lat="45.41934" lon="7.03019">
        <ele>2750</ele>
        <time>2019-04-22T22:23:51Z</time>
      </trkpt>
      <trkpt lat="45.41926" lon="7.03019">
        <ele>2750</ele>
        <time>2019-04-22T22:24:51Z</time>
      </trkpt>
      <trkpt lat="45.4192" lon="7.03009">
        <ele>2748</ele>
        <time>2019-04-22T22:25:51Z</time>
      </trkpt>
      <trkpt lat="45.41914" lon="7.02989">
        <ele>2744</ele>
        <time>2019-04-22T22:26:51Z</time>
      </trkpt>
      <trkpt lat="45.41909" lon="7.02981">
        <ele>2743</ele>
        <time>2019-04-22T22:27:51Z</time>
      </trkpt>
      <trkpt lat="45.419" lon="7.02972">
        <ele>2742</ele>
        <time>2019-04-22T22:28:51Z</time>
      </trkpt>
      <trkpt lat="45.41879" lon="7.02967">
        <ele>2743</ele>
        <time>2019-04-22T22:29:51Z</time>
      </trkpt>
      <trkpt lat="45.41867" lon="7.02972">
        <ele>2745</ele>
        <time>2019-04-22T22:30:51Z</time>
      </trkpt>
      <trkpt lat="45.41856" lon="7.02984">
        <ele>2748</ele>
        <time>2019-04-22T22:31:51Z</time>
      </trkpt>
      <trkpt lat="45.41823" lon="7.03032">
        <ele>2756</ele>
        <time>2019-04-22T22:32:51Z</time>
      </trkpt>
      <trkpt lat="45.41806" lon="7.03043">
        <ele>2758</ele>
        <time>2019-04-22T22:33:51Z</time>
      </trkpt>
      <trkpt lat="45.41739" lon="7.0306">
        <ele>2761</ele>
        <time>2019-04-22T22:34:51Z</time>
      </trkpt>
      <trkpt lat="45.41724" lon="7.03068">
        <ele>2762</ele>
        <time>2019-04-22T22:35:51Z</time>
      </trkpt>
      <trkpt lat="45.41719" lon="7.03073">
        <ele>2762</ele>
        <time>2019-04-22T22:36:51Z</time>
      </trkpt>
      <trkpt lat="45.41711" lon="7.03083">
        <ele>2762</ele>
        <time>2019-04-22T22:37:51Z</time>
      </trkpt>
      <trkpt lat="45.41704" lon="7.03098">
        <ele>2761</ele>
        <time>2019-04-22T22:38:51Z</time>
      </trkpt>
      <trkpt lat="45.41697" lon="7.03121">
        <ele>2759</ele>
        <time>2019-04-22T22:39:51Z</time>
      </trkpt>
      <trkpt lat="45.41694" lon="7.03134">
        <ele>2758</ele>
        <time>2019-04-22T22:40:51Z</time>
      </trkpt>
      <trkpt lat="45.41694" lon="7.03148">
        <ele>2757</ele>
        <time>2019-04-22T22:41:51Z</time>
      </trkpt>
      <trkpt lat="45.41695" lon="7.03164">
        <ele>2756</ele>
        <time>2019-04-22T22:42:51Z</time>
      </trkpt>
      <trkpt lat="45.417" lon="7.03176">
        <ele>2753</ele>
        <time>2019-04-22T22:43:51Z</time>
      </trkpt>
      <trkpt lat="45.41708" lon="7.03187">
        <ele>2751</ele>
        <time>2019-04-22T22:44:51Z</time>
      </trkpt>
      <trkpt lat="45.41722" lon="7.03196">
        <ele>2750</ele>
        <time>2019-04-22T22:45:51Z</time>
      </trkpt>
      <trkpt lat="45.41773" lon="7.03208">
        <ele>2753</ele>
        <time>2019-04-22T22:46:51Z</time>
      </trkpt>
      <trkpt lat="45.41785" lon="7.03216">
        <ele>2752</ele>
        <time>2019-04-22T22:47:51Z</time>
      </trkpt>
      <trkpt lat="45.41807" lon="7.03238">
        <ele>2751</ele>
        <time>2019-04-22T22:48:51Z</time>
      </trkpt>
      <trkpt lat="45.41836" lon="7.03258">
        <ele>2751</ele>
        <time>2019-04-22T22:49:51Z</time>
      </trkpt>
      <trkpt lat="45.41859" lon="7.0327">
        <ele>2752</ele>
        <time>2019-04-22T22:50:51Z</time>
      </trkpt>
      <trkpt lat="45.41873" lon="7.03283">
        <ele>2752</ele>
        <time>2019-04-22T22:51:51Z</time>
      </trkpt>
      <trkpt lat="45.41881" lon="7.03307">
        <ele>2749</ele>
        <time>2019-04-22T22:52:51Z</time>
      </trkpt>
      <trkpt lat="45.41899" lon="7.03456">
        <ele>2729</ele>
        <time>2019-04-22T22:53:51Z</time>
      </trkpt>
      <trkpt lat="45.41906" lon="7.03487">
        <ele>2724</ele>
        <time>2019-04-22T22:54:51Z</time>
      </trkpt>
      <trkpt lat="45.4191" lon="7.03498">
        <ele>2723</ele>
        <time>2019-04-22T22:55:51Z</time>
      </trkpt>
      <trkpt lat="45.41915" lon="7.03511">
        <ele>2722</ele>
        <time>2019-04-22T22:56:51Z</time>
      </trkpt>
      <trkpt lat="45.41973" lon="7.03604">
        <ele>2718</ele>
        <time>2019-04-22T22:57:51Z</time>
      </trkpt>
      <trkpt lat="45.41993" lon="7.03633">
        <ele>2716</ele>
        <time>2019-04-22T22:58:51Z</time>
      </trkpt>
      <trkpt lat="45.42043" lon="7.03693">
        <ele>2718</ele>
        <time>2019-04-22T22:59:51Z</time>
      </trkpt>
      <trkpt lat="45.4207" lon="7.03733">
        <ele>2720</ele>
        <time>2019-04-22T23:00:51Z</time>
      </trkpt>
      <trkpt lat="45.42074" lon="7.03745">
        <ele>2719</ele>
        <time>2019-04-22T23:01:51Z</time>
      </trkpt>
      <trkpt lat="45.42074" lon="7.03751">
        <ele>2717</ele>
        <time>2019-04-22T23:02:51Z</time>
      </trkpt>
      <trkpt lat="45.42072" lon="7.03754">
        <ele>2716</ele>
        <time>2019-04-22T23:03:51Z</time>
      </trkpt>
      <trkpt lat="45.42067" lon="7.03759">
        <ele>2714</ele>
        <time>2019-04-22T23:04:51Z</time>
      </trkpt>
      <trkpt lat="45.4206" lon="7.03758">
        <ele>2711</ele>
        <time>2019-04-22T23:05:51Z</time>
      </trkpt>
      <trkpt lat="45.42053" lon="7.03753">
        <ele>2709</ele>
        <time>2019-04-22T23:06:51Z</time>
      </trkpt>
      <trkpt lat="45.42035" lon="7.03719">
        <ele>2710</ele>
        <time>2019-04-22T23:07:51Z</time>
      </trkpt>
      <trkpt lat="45.42027" lon="7.03706">
        <ele>2709</ele>
        <time>2019-04-22T23:08:51Z</time>
      </trkpt>
      <trkpt lat="45.42014" lon="7.03692">
        <ele>2708</ele>
        <time>2019-04-22T23:09:51Z</time>
      </trkpt>
      <trkpt lat="45.4198" lon="7.03662">
        <ele>2703</ele>
        <time>2019-04-22T23:10:51Z</time>
      </trkpt>
      <trkpt lat="45.41966" lon="7.03653">
        <ele>2701</ele>
        <time>2019-04-22T23:11:51Z</time>
      </trkpt>
      <trkpt lat="45.41929" lon="7.03635">
        <ele>2694</ele>
        <time>2019-04-22T23:12:51Z</time>
      </trkpt>
      <trkpt lat="45.41919" lon="7.03627">
        <ele>2692</ele>
        <time>2019-04-22T23:13:51Z</time>
      </trkpt>
      <trkpt lat="45.41862" lon="7.03574">
        <ele>2687</ele>
        <time>2019-04-22T23:14:51Z</time>
      </trkpt>
      <trkpt lat="45.41844" lon="7.03552">
        <ele>2687</ele>
        <time>2019-04-22T23:15:51Z</time>
      </trkpt>
      <trkpt lat="45.41824" lon="7.03534">
        <ele>2686</ele>
        <time>2019-04-22T23:16:51Z</time>
      </trkpt>
      <trkpt lat="45.41803" lon="7.03518">
        <ele>2684</ele>
        <time>2019-04-22T23:17:51Z</time>
      </trkpt>
      <trkpt lat="45.41791" lon="7.03513">
        <ele>2682</ele>
        <time>2019-04-22T23:18:51Z</time>
      </trkpt>
      <trkpt lat="45.41758" lon="7.03514">
        <ele>2672</ele>
        <time>2019-04-22T23:19:51Z</time>
      </trkpt>
      <trkpt lat="45.41748" lon="7.03511">
        <ele>2670</ele>
        <time>2019-04-22T23:20:51Z</time>
      </trkpt>
      <trkpt lat="45.4174" lon="7.03507">
        <ele>2669</ele>
        <time>2019-04-22T23:21:51Z</time>
      </trkpt>
      <trkpt lat="45.41715" lon="7.03489">
        <ele>2665</ele>
        <time>2019-04-22T23:22:51Z</time>
      </trkpt>
      <trkpt lat="45.41705" lon="7.03479">
        <ele>2664</ele>
        <time>2019-04-22T23:23:51Z</time>
      </trkpt>
      <trkpt lat="45.41685" lon="7.03442">
        <ele>2665</ele>
        <time>2019-04-22T23:24:51Z</time>
      </trkpt>
      <trkpt lat="45.41669" lon="7.03423">
        <ele>2664</ele>
        <time>2019-04-22T23:25:51Z</time>
      </trkpt>
      <trkpt lat="45.41654" lon="7.03408">
        <ele>2663</ele>
        <time>2019-04-22T23:26:51Z</time>
      </trkpt>
      <trkpt lat="45.41617" lon="7.03392">
        <ele>2656</ele>
        <time>2019-04-22T23:27:51Z</time>
      </trkpt>
      <trkpt lat="45.41555" lon="7.03352">
        <ele>2646</ele>
        <time>2019-04-22T23:28:51Z</time>
      </trkpt>
      <trkpt lat="45.41547" lon="7.03343">
        <ele>2645</ele>
        <time>2019-04-22T23:29:51Z</time>
      </trkpt>
      <trkpt lat="45.4153" lon="7.0331">
        <ele>2651</ele>
        <time>2019-04-22T23:30:51Z</time>
      </trkpt>
      <trkpt lat="45.41523" lon="7.03302">
        <ele>2651</ele>
        <time>2019-04-22T23:31:51Z</time>
      </trkpt>
      <trkpt lat="45.41473" lon="7.03267">
        <ele>2642</ele>
        <time>2019-04-22T23:32:51Z</time>
      </trkpt>
      <trkpt lat="45.41453" lon="7.03249">
        <ele>2638</ele>
        <time>2019-04-22T23:33:51Z</time>
      </trkpt>
      <trkpt lat="45.41436" lon="7.0323">
        <ele>2634</ele>
        <time>2019-04-22T23:34:51Z</time>
      </trkpt>
      <trkpt lat="45.41417" lon="7.03201">
        <ele>2631</ele>
        <time>2019-04-22T23:35:51Z</time>
      </trkpt>
      <trkpt lat="45.41386" lon="7.03143">
        <ele>2629</ele>
        <time>2019-04-22T23:36:51Z</time>
      </trkpt>
      <trkpt lat="45.41354" lon="7.03079">
        <ele>2626</ele>
        <time>2019-04-22T23:37:51Z</time>
      </trkpt>
      <trkpt lat="45.41315" lon="7.03027">
        <ele>2619</ele>
        <time>2019-04-22T23:38:51Z</time>
      </trkpt>
      <trkpt lat="45.41267" lon="7.02985">
        <ele>2610</ele>
        <time>2019-04-22T23:39:51Z</time>
      </trkpt>
      <trkpt lat="45.41243" lon="7.0297">
        <ele>2605</ele>
        <time>2019-04-22T23:40:51Z</time>
      </trkpt>
      <trkpt lat="45.41169" lon="7.02931">
        <ele>2592</ele>
        <time>2019-04-22T23:41:51Z</time>
      </trkpt>
      <trkpt lat="45.41138" lon="7.02919">
        <ele>2587</ele>
        <time>2019-04-22T23:42:51Z</time>
      </trkpt>
      <trkpt lat="45.41122" lon="7.02911">
        <ele>2584</ele>
        <time>2019-04-22T23:43:51Z</time>
      </trkpt>
      <trkpt lat="45.41108" lon="7.02898">
        <ele>2583</ele>
        <time>2019-04-22T23:44:51Z</time>
      </trkpt>
      <trkpt lat="45.41077" lon="7.02861">
        <ele>2581</ele>
        <time>2019-04-22T23:45:51Z</time>
      </trkpt>
      <trkpt lat="45.41034" lon="7.02801">
        <ele>2577</ele>
        <time>2019-04-22T23:46:51Z</time>
      </trkpt>
      <trkpt lat="45.41019" lon="7.02784">
        <ele>2575</ele>
        <time>2019-04-22T23:47:51Z</time>
      </trkpt>
      <trkpt lat="45.41001" lon="7.0277">
        <ele>2571</ele>
        <time>2019-04-22T23:48:51Z</time>
      </trkpt>
      <trkpt lat="45.40961" lon="7.02755">
        <ele>2566</ele>
        <time>2019-04-22T23:49:51Z</time>
      </trkpt>
      <trkpt lat="45.40944" lon="7.02757">
        <ele>2562</ele>
        <time>2019-04-22T23:50:51Z</time>
      </trkpt>
      <trkpt lat="45.40928" lon="7.02763">
        <ele>2558</ele>
        <time>2019-04-22T23:51:51Z</time>
      </trkpt>
      <trkpt lat="45.40896" lon="7.02787">
        <ele>2551</ele>
        <time>2019-04-22T23:52:51Z</time>
      </trkpt>
      <trkpt lat="45.40878" lon="7.02796">
        <ele>2549</ele>
        <time>2019-04-22T23:53:51Z</time>
      </trkpt>
      <trkpt lat="45.4086" lon="7.02798">
        <ele>2547</ele>
        <time>2019-04-22T23:54:51Z</time>
      </trkpt>
      <trkpt lat="45.40843" lon="7.02795">
        <ele>2547</ele>
        <time>2019-04-22T23:55:51Z</time>
      </trkpt>
      <trkpt lat="45.40813" lon="7.02779">
        <ele>2546</ele>
        <time>2019-04-22T23:56:51Z</time>
      </trkpt>
      <trkpt lat="45.40795" lon="7.02774">
        <ele>2544</ele>
        <time>2019-04-22T23:57:51Z</time>
      </trkpt>
      <trkpt lat="45.40754" lon="7.02784">
        <ele>2536</ele>
        <time>2019-04-22T23:58:51Z</time>
      </trkpt>
      <trkpt lat="45.4074" lon="7.02783">
        <ele>2535</ele>
        <time>2019-04-22T23:59:51Z</time>
      </trkpt>
      <trkpt lat="45.40709" lon="7.0277">
        <ele>2536</ele>
        <time>2019-04-23T00:00:51Z</time>
      </trkpt>
      <trkpt lat="45.40695" lon="7.02769">
        <ele>2536</ele>
        <time>2019-04-23T00:01:51Z</time>
      </trkpt>
      <trkpt lat="45.40674" lon="7.0277">
        <ele>2535</ele>
        <time>2019-04-23T00:02:51Z</time>
      </trkpt>
      <trkpt lat="45.4065" lon="7.02783">
        <ele>2532</ele>
        <time>2019-04-23T00:03:51Z</time>
      </trkpt>
      <trkpt lat="45.40638" lon="7.02797">
        <ele>2530</ele>
        <time>2019-04-23T00:04:51Z</time>
      </trkpt>
      <trkpt lat="45.40627" lon="7.02817">
        <ele>2528</ele>
        <time>2019-04-23T00:05:51Z</time>
      </trkpt>
      <trkpt lat="45.40599" lon="7.0289">
        <ele>2530</ele>
        <time>2019-04-23T00:06:51Z</time>
      </trkpt>
      <trkpt lat="45.40593" lon="7.029">
        <ele>2530</ele>
        <time>2019-04-23T00:07:51Z</time>
      </trkpt>
      <trkpt lat="45.40584" lon="7.02906">
        <ele>2530</ele>
        <time>2019-04-23T00:08:51Z</time>
      </trkpt>
      <trkpt lat="45.40564" lon="7.02912">
        <ele>2526</ele>
        <time>2019-04-23T00:09:51Z</time>
      </trkpt>
      <trkpt lat="45.40551" lon="7.0292">
        <ele>2524</ele>
        <time>2019-04-23T00:10:51Z</time>
      </trkpt>
      <trkpt lat="45.40539" lon="7.02933">
        <ele>2523</ele>
        <time>2019-04-23T00:11:51Z</time>
      </trkpt>
      <trkpt lat="45.40519" lon="7.02959">
        <ele>2520</ele>
        <time>2019-04-23T00:12:51Z</time>
      </trkpt>
      <trkpt lat="45.40482" lon="7.03013">
        <ele>2511</ele>
        <time>2019-04-23T00:13:51Z</time>
      </trkpt>
      <trkpt lat="45.40476" lon="7.03031">
        <ele>2512</ele>
        <time>2019-04-23T00:14:51Z</time>
      </trkpt>
      <trkpt lat="45.40474" lon="7.03051">
        <ele>2514</ele>
        <time>2019-04-23T00:15:51Z</time>
      </trkpt>
      <trkpt lat="45.40476" lon="7.03066">
        <ele>2518</ele>
        <time>2019-04-23T00:16:51Z</time>
      </trkpt>
      <trkpt lat="45.40483" lon="7.03087">
        <ele>2525</ele>
        <time>2019-04-23T00:17:51Z</time>
      </trkpt>
      <trkpt lat="45.40484" lon="7.03102">
        <ele>2529</ele>
        <time>2019-04-23T00:18:51Z</time>
      </trkpt>
      <trkpt lat="45.4048" lon="7.03122">
        <ele>2531</ele>
        <time>2019-04-23T00:19:51Z</time>
      </trkpt>
      <trkpt lat="45.40468" lon="7.0315">
        <ele>2529</ele>
        <time>2019-04-23T00:20:51Z</time>
      </trkpt>
      <trkpt lat="45.40432" lon="7.03208">
        <ele>2524</ele>
        <time>2019-04-23T00:21:51Z</time>
      </trkpt>
      <trkpt lat="45.40419" lon="7.03217">
        <ele>2519</ele>
        <time>2019-04-23T00:22:51Z</time>
      </trkpt>
      <trkpt lat="45.40406" lon="7.0322">
        <ele>2514</ele>
        <time>2019-04-23T00:23:51Z</time>
      </trkpt>
      <trkpt lat="45.40387" lon="7.03229">
        <ele>2507</ele>
        <time>2019-04-23T00:24:51Z</time>
      </trkpt>
      <trkpt lat="45.40329" lon="7.03283">
        <ele>2499</ele>
        <time>2019-04-23T00:25:51Z</time>
      </trkpt>
      <trkpt lat="45.40312" lon="7.03306">
        <ele>2502</ele>
        <time>2019-04-23T00:26:51Z</time>
      </trkpt>
      <trkpt lat="45.40299" lon="7.03328">
        <ele>2504</ele>
        <time>2019-04-23T00:27:51Z</time>
      </trkpt>
      <trkpt lat="45.40292" lon="7.03353">
        <ele>2505</ele>
        <time>2019-04-23T00:28:51Z</time>
      </trkpt>
      <trkpt lat="45.40253" lon="7.03505">
        <ele>2505</ele>
        <time>2019-04-23T00:29:51Z</time>
      </trkpt>
      <trkpt lat="45.40244" lon="7.03531">
        <ele>2506</ele>
        <time>2019-04-23T00:30:51Z</time>
      </trkpt>
      <trkpt lat="45.40234" lon="7.03547">
        <ele>2503</ele>
        <time>2019-04-23T00:31:51Z</time>
      </trkpt>
      <trkpt lat="45.40221" lon="7.03562">
        <ele>2497</ele>
        <time>2019-04-23T00:32:51Z</time>
      </trkpt>
      <trkpt lat="45.40196" lon="7.03581">
        <ele>2483</ele>
        <time>2019-04-23T00:33:51Z</time>
      </trkpt>
      <trkpt lat="45.4016" lon="7.03611">
        <ele>2464</ele>
        <time>2019-04-23T00:34:51Z</time>
      </trkpt>
      <trkpt lat="45.40154" lon="7.0362">
        <ele>2462</ele>
        <time>2019-04-23T00:35:51Z</time>
      </trkpt>
      <trkpt lat="45.4015" lon="7.03631">
        <ele>2462</ele>
        <time>2019-04-23T00:36:51Z</time>
      </trkpt>
      <trkpt lat="45.40154" lon="7.03666">
        <ele>2472</ele>
        <time>2019-04-23T00:37:51Z</time>
      </trkpt>
      <trkpt lat="45.40152" lon="7.03769">
        <ele>2499</ele>
        <time>2019-04-23T00:38:51Z</time>
      </trkpt>
      <trkpt lat="45.40148" lon="7.03785">
        <ele>2500</ele>
        <time>2019-04-23T00:39:51Z</time>
      </trkpt>
      <trkpt lat="45.40138" lon="7.03797">
        <ele>2495</ele>
        <time>2019-04-23T00:40:51Z</time>
      </trkpt>
      <trkpt lat="45.40124" lon="7.0381">
        <ele>2487</ele>
        <time>2019-04-23T00:41:51Z</time>
      </trkpt>
      <trkpt lat="45.40118" lon="7.0382">
        <ele>2485</ele>
        <time>2019-04-23T00:42:51Z</time>
      </trkpt>
      <trkpt lat="45.40112" lon="7.0385">
        <ele>2486</ele>
        <time>2019-04-23T00:43:51Z</time>
      </trkpt>
      <trkpt lat="45.401" lon="7.0388">
        <ele>2480</ele>
        <time>2019-04-23T00:44:51Z</time>
      </trkpt>
      <trkpt lat="45.40098" lon="7.0389">
        <ele>2480</ele>
        <time>2019-04-23T00:45:51Z</time>
      </trkpt>
      <trkpt lat="45.40102" lon="7.03917">
        <ele>2488</ele>
        <time>2019-04-23T00:46:51Z</time>
      </trkpt>
      <trkpt lat="45.40101" lon="7.03939">
        <ele>2491</ele>
        <time>2019-04-23T00:47:51Z</time>
      </trkpt>
      <trkpt lat="45.40085" lon="7.0397">
        <ele>2481</ele>
        <time>2019-04-23T00:48:51Z</time>
      </trkpt>
      <trkpt lat="45.40077" lon="7.0401">
        <ele>2480</ele>
        <time>2019-04-23T00:49:51Z</time>
      </trkpt>
      <trkpt lat="45.40061" lon="7.04102">
        <ele>2484</ele>
        <time>2019-04-23T00:50:51Z</time>
      </trkpt>
      <trkpt lat="45.40061" lon="7.04135">
        <ele>2490</ele>
        <time>2019-04-23T00:51:51Z</time>
      </trkpt>
      <trkpt lat="45.40059" lon="7.04157">
        <ele>2493</ele>
        <time>2019-04-23T00:52:51Z</time>
      </trkpt>
      <trkpt lat="45.40053" lon="7.04185">
        <ele>2495</ele>
        <time>2019-04-23T00:53:51Z</time>
      </trkpt>
      <trkpt lat="45.40045" lon="7.04206">
        <ele>2494</ele>
        <time>2019-04-23T00:54:51Z</time>
      </trkpt>
      <trkpt lat="45.40037" lon="7.04222">
        <ele>2492</ele>
        <time>2019-04-23T00:55:51Z</time>
      </trkpt>
      <trkpt lat="45.40027" lon="7.04231">
        <ele>2488</ele>
        <time>2019-04-23T00:56:51Z</time>
      </trkpt>
      <trkpt lat="45.40011" lon="7.04242">
        <ele>2481</ele>
        <time>2019-04-23T00:57:51Z</time>
      </trkpt>
      <trkpt lat="45.39986" lon="7.04252">
        <ele>2472</ele>
        <time>2019-04-23T00:58:51Z</time>
      </trkpt>
      <trkpt lat="45.39974" lon="7.04264">
        <ele>2472</ele>
        <time>2019-04-23T00:59:51Z</time>
      </trkpt>
      <trkpt lat="45.39948" lon="7.04312">
        <ele>2476</ele>
        <time>2019-04-23T01:00:51Z</time>
      </trkpt>
      <trkpt lat="45.3993" lon="7.04335">
        <ele>2477</ele>
        <time>2019-04-23T01:01:51Z</time>
      </trkpt>
      <trkpt lat="45.39923" lon="7.0434">
        <ele>2477</ele>
        <time>2019-04-23T01:02:51Z</time>
      </trkpt>
      <trkpt lat="45.39896" lon="7.04341">
        <ele>2475</ele>
        <time>2019-04-23T01:03:51Z</time>
      </trkpt>
      <trkpt lat="45.39879" lon="7.04339">
        <ele>2475</ele>
        <time>2019-04-23T01:04:51Z</time>
      </trkpt>
      <trkpt lat="45.39865" lon="7.04335">
        <ele>2474</ele>
        <time>2019-04-23T01:05:51Z</time>
      </trkpt>
      <trkpt lat="45.39836" lon="7.04319">
        <ele>2468</ele>
        <time>2019-04-23T01:06:51Z</time>
      </trkpt>
      <trkpt lat="45.39794" lon="7.04312">
        <ele>2467</ele>
        <time>2019-04-23T01:07:51Z</time>
      </trkpt>
      <trkpt lat="45.39779" lon="7.04306">
        <ele>2465</ele>
        <time>2019-04-23T01:08:51Z</time>
      </trkpt>
      <trkpt lat="45.39744" lon="7.04281">
        <ele>2456</ele>
        <time>2019-04-23T01:09:51Z</time>
      </trkpt>
      <trkpt lat="45.39727" lon="7.04272">
        <ele>2453</ele>
        <time>2019-04-23T01:10:51Z</time>
      </trkpt>
      <trkpt lat="45.39698" lon="7.04263">
        <ele>2451</ele>
        <time>2019-04-23T01:11:51Z</time>
      </trkpt>
      <trkpt lat="45.39659" lon="7.04258">
        <ele>2449</ele>
        <time>2019-04-23T01:12:51Z</time>
      </trkpt>
      <trkpt lat="45.39629" lon="7.04257">
        <ele>2442</ele>
        <time>2019-04-23T01:13:51Z</time>
      </trkpt>
      <trkpt lat="45.39602" lon="7.0426">
        <ele>2436</ele>
        <time>2019-04-23T01:14:51Z</time>
      </trkpt>
      <trkpt lat="45.3955" lon="7.04275">
        <ele>2425</ele>
        <time>2019-04-23T01:15:51Z</time>
      </trkpt>
      <trkpt lat="45.39543" lon="7.04281">
        <ele>2425</ele>
        <time>2019-04-23T01:16:51Z</time>
      </trkpt>
      <trkpt lat="45.39476" lon="7.04379">
        <ele>2429</ele>
        <time>2019-04-23T01:17:51Z</time>
      </trkpt>
      <trkpt lat="45.39458" lon="7.04396">
        <ele>2427</ele>
        <time>2019-04-23T01:18:51Z</time>
      </trkpt>
      <trkpt lat="45.39446" lon="7.04404">
        <ele>2424</ele>
        <time>2019-04-23T01:19:51Z</time>
      </trkpt>
      <trkpt lat="45.39433" lon="7.04408">
        <ele>2420</ele>
        <time>2019-04-23T01:20:51Z</time>
      </trkpt>
      <trkpt lat="45.3941" lon="7.04407">
        <ele>2412</ele>
        <time>2019-04-23T01:21:51Z</time>
      </trkpt>
      <trkpt lat="45.39393" lon="7.04415">
        <ele>2411</ele>
        <time>2019-04-23T01:22:51Z</time>
      </trkpt>
      <trkpt lat="45.39351" lon="7.0444">
        <ele>2408</ele>
        <time>2019-04-23T01:23:51Z</time>
      </trkpt>
      <trkpt lat="45.39332" lon="7.04458">
        <ele>2408</ele>
        <time>2019-04-23T01:24:51Z</time>
      </trkpt>
      <trkpt lat="45.39309" lon="7.04489">
        <ele>2407</ele>
        <time>2019-04-23T01:25:51Z</time>
      </trkpt>
      <trkpt lat="45.39293" lon="7.04502">
        <ele>2406</ele>
        <time>2019-04-23T01:26:51Z</time>
      </trkpt>
      <trkpt lat="45.39245" lon="7.04532">
        <ele>2398</ele>
        <time>2019-04-23T01:27:51Z</time>
      </trkpt>
      <trkpt lat="45.39238" lon="7.04542">
        <ele>2398</ele>
        <time>2019-04-23T01:28:51Z</time>
      </trkpt>
      <trkpt lat="45.39211" lon="7.04591">
        <ele>2400</ele>
        <time>2019-04-23T01:29:51Z</time>
      </trkpt>
      <trkpt lat="45.39201" lon="7.04601">
        <ele>2400</ele>
        <time>2019-04-23T01:30:51Z</time>
      </trkpt>
      <trkpt lat="45.39193" lon="7.04605">
        <ele>2399</ele>
        <time>2019-04-23T01:31:51Z</time>
      </trkpt>
      <trkpt lat="45.39162" lon="7.04609">
        <ele>2390</ele>
        <time>2019-04-23T01:32:51Z</time>
      </trkpt>
      <trkpt lat="45.39136" lon="7.0462">
        <ele>2387</ele>
        <time>2019-04-23T01:33:51Z</time>
      </trkpt>
      <trkpt lat="45.39126" lon="7.04627">
        <ele>2386</ele>
        <time>2019-04-23T01:34:51Z</time>
      </trkpt>
      <trkpt lat="45.39117" lon="7.04637">
        <ele>2386</ele>
        <time>2019-04-23T01:35:51Z</time>
      </trkpt>
      <trkpt lat="45.39095" lon="7.04671">
        <ele>2388</ele>
        <time>2019-04-23T01:36:51Z</time>
      </trkpt>
      <trkpt lat="45.39084" lon="7.04685">
        <ele>2387</ele>
        <time>2019-04-23T01:37:51Z</time>
      </trkpt>
      <trkpt lat="45.39075" lon="7.047">
        <ele>2388</ele>
        <time>2019-04-23T01:38:51Z</time>
      </trkpt>
      <trkpt lat="45.39041" lon="7.04748">
        <ele>2384</ele>
        <time>2019-04-23T01:39:51Z</time>
      </trkpt>
      <trkpt lat="45.39034" lon="7.04753">
        <ele>2383</ele>
        <time>2019-04-23T01:40:51Z</time>
      </trkpt>
      <trkpt lat="45.39022" lon="7.04754">
        <ele>2378</ele>
        <time>2019-04-23T01:41:51Z</time>
      </trkpt>
      <trkpt lat="45.39011" lon="7.04753">
        <ele>2374</ele>
        <time>2019-04-23T01:42:51Z</time>
      </trkpt>
      <trkpt lat="45.38997" lon="7.04747">
        <ele>2368</ele>
        <time>2019-04-23T01:43:51Z</time>
      </trkpt>
      <trkpt lat="45.38985" lon="7.04739">
        <ele>2364</ele>
        <time>2019-04-23T01:44:51Z</time>
      </trkpt>
      <trkpt lat="45.38974" lon="7.04729">
        <ele>2361</ele>
        <time>2019-04-23T01:45:51Z</time>
      </trkpt>
      <trkpt lat="45.38965" lon="7.04714">
        <ele>2357</ele>
        <time>2019-04-23T01:46:51Z</time>
      </trkpt>
      <trkpt lat="45.38962" lon="7.04703">
        <ele>2355</ele>
        <time>2019-04-23T01:47:51Z</time>
      </trkpt>
      <trkpt lat="45.38963" lon="7.0469">
        <ele>2354</ele>
        <time>2019-04-23T01:48:51Z</time>
      </trkpt>
      <trkpt lat="45.38965" lon="7.04681">
        <ele>2353</ele>
        <time>2019-04-23T01:49:51Z</time>
      </trkpt>
      <trkpt lat="45.38971" lon="7.04669">
        <ele>2354</ele>
        <time>2019-04-23T01:50:51Z</time>
      </trkpt>
      <trkpt lat="45.38997" lon="7.04635">
        <ele>2355</ele>
        <time>2019-04-23T01:51:51Z</time>
      </trkpt>
      <trkpt lat="45.39018" lon="7.04599">
        <ele>2351</ele>
        <time>2019-04-23T01:52:51Z</time>
      </trkpt>
      <trkpt lat="45.3905" lon="7.0456">
        <ele>2348</ele>
        <time>2019-04-23T01:53:51Z</time>
      </trkpt>
      <trkpt lat="45.39076" lon="7.04522">
        <ele>2345</ele>
        <time>2019-04-23T01:54:51Z</time>
      </trkpt>
      <trkpt lat="45.39109" lon="7.0446">
        <ele>2336</ele>
        <time>2019-04-23T01:55:51Z</time>
      </trkpt>
      <trkpt lat="45.39121" lon="7.04442">
        <ele>2335</ele>
        <time>2019-04-23T01:56:51Z</time>
      </trkpt>
      <trkpt lat="45.39145" lon="7.04419">
        <ele>2338</ele>
        <time>2019-04-23T01:57:51Z</time>
      </trkpt>
      <trkpt lat="45.39155" lon="7.04407">
        <ele>2337</ele>
        <time>2019-04-23T01:58:51Z</time>
      </trkpt>
      <trkpt lat="45.39175" lon="7.04368">
        <ele>2327</ele>
        <time>2019-04-23T01:59:51Z</time>
      </trkpt>
      <trkpt lat="45.39186" lon="7.04353">
        <ele>2325</ele>
        <time>2019-04-23T02:00:51Z</time>
      </trkpt>
      <trkpt lat="45.39231" lon="7.04317">
        <ele>2325</ele>
        <time>2019-04-23T02:01:51Z</time>
      </trkpt>
      <trkpt lat="45.39271" lon="7.0428">
        <ele>2321</ele>
        <time>2019-04-23T02:02:51Z</time>
      </trkpt>
      <trkpt lat="45.3931" lon="7.04234">
        <ele>2314</ele>
        <time>2019-04-23T02:03:51Z</time>
      </trkpt>
      <trkpt lat="45.39371" lon="7.04167">
        <ele>2306</ele>
        <time>2019-04-23T02:04:51Z</time>
      </trkpt>
      <trkpt lat="45.39442" lon="7.04095">
        <ele>2294</ele>
        <time>2019-04-23T02:05:51Z</time>
      </trkpt>
      <trkpt lat="45.39486" lon="7.04055">
        <ele>2288</ele>
        <time>2019-04-23T02:06:51Z</time>
      </trkpt>
      <trkpt lat="45.39515" lon="7.04034">
        <ele>2286</ele>
        <time>2019-04-23T02:07:51Z</time>
      </trkpt>
      <trkpt lat="45.39607" lon="7.0398">
        <ele>2284</ele>
        <time>2019-04-23T02:08:51Z</time>
      </trkpt>
      <trkpt lat="45.39632" lon="7.03967">
        <ele>2284</ele>
        <time>2019-04-23T02:09:51Z</time>
      </trkpt>
      <trkpt lat="45.39666" lon="7.03961">
        <ele>2288</ele>
        <time>2019-04-23T02:10:51Z</time>
      </trkpt>
      <trkpt lat="45.39671" lon="7.03957">
        <ele>2288</ele>
        <time>2019-04-23T02:11:51Z</time>
      </trkpt>
      <trkpt lat="45.39673" lon="7.0395">
        <ele>2287</ele>
        <time>2019-04-23T02:12:51Z</time>
      </trkpt>
      <trkpt lat="45.39672" lon="7.03943">
        <ele>2285</ele>
        <time>2019-04-23T02:13:51Z</time>
      </trkpt>
      <trkpt lat="45.39665" lon="7.03936">
        <ele>2282</ele>
        <time>2019-04-23T02:14:51Z</time>
      </trkpt>
      <trkpt lat="45.39623" lon="7.03938">
        <ele>2275</ele>
        <time>2019-04-23T02:15:51Z</time>
      </trkpt>
      <trkpt lat="45.39596" lon="7.03946">
        <ele>2272</ele>
        <time>2019-04-23T02:16:51Z</time>
      </trkpt>
      <trkpt lat="45.39537" lon="7.03971">
        <ele>2270</ele>
        <time>2019-04-23T02:17:51Z</time>
      </trkpt>
      <trkpt lat="45.39488" lon="7.03987">
        <ele>2265</ele>
        <time>2019-04-23T02:18:51Z</time>
      </trkpt>
      <trkpt lat="45.39405" lon="7.04001">
        <ele>2256</ele>
        <time>2019-04-23T02:19:51Z</time>
      </trkpt>
      <trkpt lat="45.39348" lon="7.04014">
        <ele>2249</ele>
        <time>2019-04-23T02:20:51Z</time>
      </trkpt>
      <trkpt lat="45.39326" lon="7.04022">
        <ele>2246</ele>
        <time>2019-04-23T02:21:51Z</time>
      </trkpt>
      <trkpt lat="45.39313" lon="7.04037">
        <ele>2245</ele>
        <time>2019-04-23T02:22:51Z</time>
      </trkpt>
      <trkpt lat="45.39301" lon="7.04078">
        <ele>2250</ele>
        <time>2019-04-23T02:23:51Z</time>
      </trkpt>
      <trkpt lat="45.39295" lon="7.04086">
        <ele>2251</ele>
        <time>2019-04-23T02:24:51Z</time>
      </trkpt>
      <trkpt lat="45.39287" lon="7.04091">
        <ele>2251</ele>
        <time>2019-04-23T02:25:51Z</time>
      </trkpt>
      <trkpt lat="45.39206" lon="7.0413">
        <ele>2242</ele>
        <time>2019-04-23T02:26:51Z</time>
      </trkpt>
      <trkpt lat="45.3917" lon="7.04144">
        <ele>2236</ele>
        <time>2019-04-23T02:27:51Z</time>
      </trkpt>
      <trkpt lat="45.39121" lon="7.04163">
        <ele>2228</ele>
        <time>2019-04-23T02:28:51Z</time>
      </trkpt>
      <trkpt lat="45.39039" lon="7.04188">
        <ele>2215</ele>
        <time>2019-04-23T02:29:51Z</time>
      </trkpt>
      <trkpt lat="45.3901" lon="7.04201">
        <ele>2212</ele>
        <time>2019-04-23T02:30:51Z</time>
      </trkpt>
      <trkpt lat="45.39001" lon="7.04209">
        <ele>2212</ele>
        <time>2019-04-23T02:31:51Z</time>
      </trkpt>
      <trkpt lat="45.38984" lon="7.0423">
        <ele>2213</ele>
        <time>2019-04-23T02:32:51Z</time>
      </trkpt>
      <trkpt lat="45.38973" lon="7.04239">
        <ele>2212</ele>
        <time>2019-04-23T02:33:51Z</time>
      </trkpt>
      <trkpt lat="45.38938" lon="7.04257">
        <ele>2207</ele>
        <time>2019-04-23T02:34:51Z</time>
      </trkpt>
      <trkpt lat="45.38923" lon="7.04267">
        <ele>2205</ele>
        <time>2019-04-23T02:35:51Z</time>
      </trkpt>
      <trkpt lat="45.38882" lon="7.04304">
        <ele>2202</ele>
        <time>2019-04-23T02:36:51Z</time>
      </trkpt>
      <trkpt lat="45.38865" lon="7.04323">
        <ele>2201</ele>
        <time>2019-04-23T02:37:51Z</time>
      </trkpt>
      <trkpt lat="45.38782" lon="7.04392">
        <ele>2192</ele>
        <time>2019-04-23T02:38:51Z</time>
      </trkpt>
      <trkpt lat="45.38723" lon="7.04431">
        <ele>2184</ele>
        <time>2019-04-23T02:39:51Z</time>
      </trkpt>
      <trkpt lat="45.3868" lon="7.04477">
        <ele>2182</ele>
        <time>2019-04-23T02:40:51Z</time>
      </trkpt>
      <trkpt lat="45.38645" lon="7.04497">
        <ele>2176</ele>
        <time>2019-04-23T02:41:51Z</time>
      </trkpt>
      <trkpt lat="45.38626" lon="7.04513">
        <ele>2174</ele>
        <time>2019-04-23T02:42:51Z</time>
      </trkpt>
      <trkpt lat="45.38602" lon="7.04534">
        <ele>2171</ele>
        <time>2019-04-23T02:43:51Z</time>
      </trkpt>
      <trkpt lat="45.38586" lon="7.04566">
        <ele>2171</ele>
        <time>2019-04-23T02:44:51Z</time>
      </trkpt>
      <trkpt lat="45.38576" lon="7.04581">
        <ele>2171</ele>
        <time>2019-04-23T02:45:51Z</time>
      </trkpt>
      <trkpt lat="45.38562" lon="7.04592">
        <ele>2170</ele>
        <time>2019-04-23T02:46:51Z</time>
      </trkpt>
      <trkpt lat="45.38547" lon="7.046">
        <ele>2168</ele>
        <time>2019-04-23T02:47:51Z</time>
      </trkpt>
      <trkpt lat="45.38529" lon="7.04606">
        <ele>2165</ele>
        <time>2019-04-23T02:48:51Z</time>
      </trkpt>
      <trkpt lat="45.38514" lon="7.04607">
        <ele>2162</ele>
        <time>2019-04-23T02:49:51Z</time>
      </trkpt>
      <trkpt lat="45.38507" lon="7.04606">
        <ele>2160</ele>
        <time>2019-04-23T02:50:51Z</time>
      </trkpt>
      <trkpt lat="45.385" lon="7.04598">
        <ele>2157</ele>
        <time>2019-04-23T02:51:51Z</time>
      </trkpt>
      <trkpt lat="45.38497" lon="7.0459">
        <ele>2155</ele>
        <time>2019-04-23T02:52:51Z</time>
      </trkpt>
      <trkpt lat="45.38498" lon="7.0458">
        <ele>2154</ele>
        <time>2019-04-23T02:53:51Z</time>
      </trkpt>
      <trkpt lat="45.38501" lon="7.0457">
        <ele>2154</ele>
        <time>2019-04-23T02:54:51Z</time>
      </trkpt>
      <trkpt lat="45.38512" lon="7.04549">
        <ele>2154</ele>
        <time>2019-04-23T02:55:51Z</time>
      </trkpt>
      <trkpt lat="45.38523" lon="7.04515">
        <ele>2153</ele>
        <time>2019-04-23T02:56:51Z</time>
      </trkpt>
      <trkpt lat="45.38529" lon="7.04484">
        <ele>2150</ele>
        <time>2019-04-23T02:57:51Z</time>
      </trkpt>
      <trkpt lat="45.38539" lon="7.04403">
        <ele>2143</ele>
        <time>2019-04-23T02:58:51Z</time>
      </trkpt>
      <trkpt lat="45.38547" lon="7.04349">
        <ele>2141</ele>
        <time>2019-04-23T02:59:51Z</time>
      </trkpt>
      <trkpt lat="45.38547" lon="7.04335">
        <ele>2140</ele>
        <time>2019-04-23T03:00:51Z</time>
      </trkpt>
      <trkpt lat="45.38545" lon="7.04318">
        <ele>2139</ele>
        <time>2019-04-23T03:01:51Z</time>
      </trkpt>
      <trkpt lat="45.38538" lon="7.04303">
        <ele>2137</ele>
        <time>2019-04-23T03:02:51Z</time>
      </trkpt>
      <trkpt lat="45.38528" lon="7.04292">
        <ele>2136</ele>
        <time>2019-04-23T03:03:51Z</time>
      </trkpt>
      <trkpt lat="45.38509" lon="7.04279">
        <ele>2135</ele>
        <time>2019-04-23T03:04:51Z</time>
      </trkpt>
      <trkpt lat="45.38476" lon="7.04262">
        <ele>2139</ele>
        <time>2019-04-23T03:05:51Z</time>
      </trkpt>
      <trkpt lat="45.3847" lon="7.04263">
        <ele>2141</ele>
        <time>2019-04-23T03:06:51Z</time>
      </trkpt>
      <trkpt lat="45.38457" lon="7.0427">
        <ele>2143</ele>
        <time>2019-04-23T03:07:51Z</time>
      </trkpt>
      <trkpt lat="45.38449" lon="7.04282">
        <ele>2144</ele>
        <time>2019-04-23T03:08:51Z</time>
      </trkpt>
      <trkpt lat="45.38423" lon="7.04328">
        <ele>2143</ele>
        <time>2019-04-23T03:09:51Z</time>
      </trkpt>
      <trkpt lat="45.38357" lon="7.04454">
        <ele>2140</ele>
        <time>2019-04-23T03:10:51Z</time>
      </trkpt>
      <trkpt lat="45.3835" lon="7.04464">
        <ele>2139</ele>
        <time>2019-04-23T03:11:51Z</time>
      </trkpt>
      <trkpt lat="45.38322" lon="7.04494">
        <ele>2140</ele>
        <time>2019-04-23T03:12:51Z</time>
      </trkpt>
      <trkpt lat="45.38302" lon="7.04527">
        <ele>2144</ele>
        <time>2019-04-23T03:13:51Z</time>
      </trkpt>
      <trkpt lat="45.38265" lon="7.04609">
        <ele>2134</ele>
        <time>2019-04-23T03:14:51Z</time>
      </trkpt>
      <trkpt lat="45.38257" lon="7.04623">
        <ele>2132</ele>
        <time>2019-04-23T03:15:51Z</time>
      </trkpt>
      <trkpt lat="45.38249" lon="7.04633">
        <ele>2131</ele>
        <time>2019-04-23T03:16:51Z</time>
      </trkpt>
      <trkpt lat="45.3819" lon="7.04665">
        <ele>2132</ele>
        <time>2019-04-23T03:17:51Z</time>
      </trkpt>
      <trkpt lat="45.38166" lon="7.04683">
        <ele>2132</ele>
        <time>2019-04-23T03:18:51Z</time>
      </trkpt>
      <trkpt lat="45.38154" lon="7.04695">
        <ele>2136</ele>
        <time>2019-04-23T03:19:51Z</time>
      </trkpt>
      <trkpt lat="45.38145" lon="7.04708">
        <ele>2137</ele>
        <time>2019-04-23T03:20:51Z</time>
      </trkpt>
      <trkpt lat="45.38136" lon="7.04734">
        <ele>2134</ele>
        <time>2019-04-23T03:21:51Z</time>
      </trkpt>
      <trkpt lat="45.3812" lon="7.04798">
        <ele>2126</ele>
        <time>2019-04-23T03:22:51Z</time>
      </trkpt>
      <trkpt lat="45.38118" lon="7.04815">
        <ele>2123</ele>
        <time>2019-04-23T03:23:51Z</time>
      </trkpt>
      <trkpt lat="45.38118" lon="7.04851">
        <ele>2118</ele>
        <time>2019-04-23T03:24:51Z</time>
      </trkpt>
      <trkpt lat="45.38115" lon="7.04859">
        <ele>2119</ele>
        <time>2019-04-23T03:25:51Z</time>
      </trkpt>
      <trkpt lat="45.38077" lon="7.04925">
        <ele>2118</ele>
        <time>2019-04-23T03:26:51Z</time>
      </trkpt>
      <trkpt lat="45.38074" lon="7.04939">
        <ele>2117</ele>
        <time>2019-04-23T03:27:51Z</time>
      </trkpt>
      <trkpt lat="45.38073" lon="7.04968">
        <ele>2113</ele>
        <time>2019-04-23T03:28:51Z</time>
      </trkpt>
      <trkpt lat="45.38071" lon="7.04974">
        <ele>2113</ele>
        <time>2019-04-23T03:29:51Z</time>
      </trkpt>
      <trkpt lat="45.38063" lon="7.04987">
        <ele>2112</ele>
        <time>2019-04-23T03:30:51Z</time>
      </trkpt>
      <trkpt lat="45.37985" lon="7.05012">
        <ele>2115</ele>
        <time>2019-04-23T03:31:51Z</time>
      </trkpt>
      <trkpt lat="45.3796" lon="7.05011">
        <ele>2114</ele>
        <time>2019-04-23T03:32:51Z</time>
      </trkpt>
      <trkpt lat="45.37934" lon="7.05004">
        <ele>2116</ele>
        <time>2019-04-23T03:33:51Z</time>
      </trkpt>
      <trkpt lat="45.37905" lon="7.04991">
        <ele>2117</ele>
        <time>2019-04-23T03:34:51Z</time>
      </trkpt>
      <trkpt lat="45.37875" lon="7.04966">
        <ele>2114</ele>
        <time>2019-04-23T03:35:51Z</time>
      </trkpt>
      <trkpt lat="45.37867" lon="7.04956">
        <ele>2114</ele>
        <time>2019-04-23T03:36:51Z</time>
      </trkpt>
      <trkpt lat="45.37817" lon="7.04878">
        <ele>2110</ele>
        <time>2019-04-23T03:37:51Z</time>
      </trkpt>
      <trkpt lat="45.37792" lon="7.04851">
        <ele>2099</ele>
        <time>2019-04-23T03:38:51Z</time>
      </trkpt>
      <trkpt lat="45.37783" lon="7.04836">
        <ele>2096</ele>
        <time>2019-04-23T03:39:51Z</time>
      </trkpt>
      <trkpt lat="45.37777" lon="7.0482">
        <ele>2096</ele>
        <time>2019-04-23T03:40:51Z</time>
      </trkpt>
      <trkpt lat="45.37772" lon="7.04799">
        <ele>2099</ele>
        <time>2019-04-23T03:41:51Z</time>
      </trkpt>
      <trkpt lat="45.37767" lon="7.04786">
        <ele>2099</ele>
        <time>2019-04-23T03:42:51Z</time>
      </trkpt>
      <trkpt lat="45.37745" lon="7.04747">
        <ele>2092</ele>
        <time>2019-04-23T03:43:51Z</time>
      </trkpt>
      <trkpt lat="45.37741" lon="7.04735">
        <ele>2093</ele>
        <time>2019-04-23T03:44:51Z</time>
      </trkpt>
      <trkpt lat="45.37727" lon="7.04672">
        <ele>2100</ele>
        <time>2019-04-23T03:45:51Z</time>
      </trkpt>
      <trkpt lat="45.37713" lon="7.04636">
        <ele>2097</ele>
        <time>2019-04-23T03:46:51Z</time>
      </trkpt>
      <trkpt lat="45.37704" lon="7.04608">
        <ele>2096</ele>
        <time>2019-04-23T03:47:51Z</time>
      </trkpt>
      <trkpt lat="45.37695" lon="7.04561">
        <ele>2102</ele>
        <time>2019-04-23T03:48:51Z</time>
      </trkpt>
      <trkpt lat="45.37683" lon="7.04516">
        <ele>2105</ele>
        <time>2019-04-23T03:49:51Z</time>
      </trkpt>
      <trkpt lat="45.37657" lon="7.04472">
        <ele>2094</ele>
        <time>2019-04-23T03:50:51Z</time>
      </trkpt>
      <trkpt lat="45.37644" lon="7.04433">
        <ele>2091</ele>
        <time>2019-04-23T03:51:51Z</time>
      </trkpt>
      <trkpt lat="45.37614" lon="7.04357">
        <ele>2078</ele>
        <time>2019-04-23T03:52:51Z</time>
      </trkpt>
      <trkpt lat="45.37609" lon="7.0434">
        <ele>2076</ele>
        <time>2019-04-23T03:53:51Z</time>
      </trkpt>
      <trkpt lat="45.37604" lon="7.04304">
        <ele>2080</ele>
        <time>2019-04-23T03:54:51Z</time>
      </trkpt>
      <trkpt lat="45.37598" lon="7.04283">
        <ele>2080</ele>
        <time>2019-04-23T03:55:51Z</time>
      </trkpt>
      <trkpt lat="45.37581" lon="7.04248">
        <ele>2073</ele>
        <time>2019-04-23T03:56:51Z</time>
      </trkpt>
      <trkpt lat="45.37569" lon="7.0421">
        <ele>2073</ele>
        <time>2019-04-23T03:57:51Z</time>
      </trkpt>
      <trkpt lat="45.37547" lon="7.04148">
        <ele>2064</ele>
        <time>2019-04-23T03:58:51Z</time>
      </trkpt>
      <trkpt lat="45.37526" lon="7.04065">
        <ele>2053</ele>
        <time>2019-04-23T03:59:51Z</time>
      </trkpt>
      <trkpt lat="45.37519" lon="7.04044">
        <ele>2050</ele>
        <time>2019-04-23T04:00:51Z</time>
      </trkpt>
      <trkpt lat="45.37471" lon="7.03937">
        <ele>2036</ele>
        <time>2019-04-23T04:01:51Z</time>
      </trkpt>
      <trkpt lat="45.37421" lon="7.03814">
        <ele>2025</ele>
        <time>2019-04-23T04:02:51Z</time>
      </trkpt>
      <trkpt lat="45.37414" lon="7.03793">
        <ele>2023</ele>
        <time>2019-04-23T04:03:51Z</time>
      </trkpt>
      <trkpt lat="45.37394" lon="7.03749">
        <ele>2018</ele>
        <time>2019-04-23T04:04:51Z</time>
      </trkpt>
      <trkpt lat="45.37383" lon="7.03716">
        <ele>2016</ele>
        <time>2019-04-23T04:05:51Z</time>
      </trkpt>
      <trkpt lat="45.37377" lon="7.03702">
        <ele>2015</ele>
        <time>2019-04-23T04:06:51Z</time>
      </trkpt>
      <trkpt lat="45.37356" lon="7.03674">
        <ele>2008</ele>
        <time>2019-04-23T04:07:51Z</time>
      </trkpt>
      <trkpt lat="45.37354" lon="7.03658">
        <ele>2008</ele>
        <time>2019-04-23T04:08:51Z</time>
      </trkpt>
      <trkpt lat="45.37356" lon="7.03637">
        <ele>2011</ele>
        <time>2019-04-23T04:09:51Z</time>
      </trkpt>
      <trkpt lat="45.37354" lon="7.03625">
        <ele>2011</ele>
        <time>2019-04-23T04:10:51Z</time>
      </trkpt>
      <trkpt lat="45.37346" lon="7.03608">
        <ele>2008</ele>
        <time>2019-04-23T04:11:51Z</time>
      </trkpt>
      <trkpt lat="45.37336" lon="7.03577">
        <ele>2005</ele>
        <time>2019-04-23T04:12:51Z</time>
      </trkpt>
      <trkpt lat="45.37328" lon="7.03559">
        <ele>2002</ele>
        <time>2019-04-23T04:13:51Z</time>
      </trkpt>
      <trkpt lat="45.37326" lon="7.03551">
        <ele>2002</ele>
        <time>2019-04-23T04:14:51Z</time>
      </trkpt>
      <trkpt lat="45.37329" lon="7.03512">
        <ele>2007</ele>
        <time>2019-04-23T04:15:51Z</time>
      </trkpt>
      <trkpt lat="45.37328" lon="7.03504">
        <ele>2007</ele>
        <time>2019-04-23T04:16:51Z</time>
      </trkpt>
      <trkpt lat="45.37319" lon="7.0348">
        <ele>2006</ele>
        <time>2019-04-23T04:17:51Z</time>
      </trkpt>
      <trkpt lat="45.3724" lon="7.03376">
        <ele>1995</ele>
        <time>2019-04-23T04:18:51Z</time>
      </trkpt>
      <trkpt lat="45.3723" lon="7.03364">
        <ele>1994</ele>
        <time>2019-04-23T04:19:51Z</time>
      </trkpt>
      <trkpt lat="45.37217" lon="7.03355">
        <ele>1992</ele>
        <time>2019-04-23T04:20:51Z</time>
      </trkpt>
      <trkpt lat="45.3717" lon="7.0333">
        <ele>1980</ele>
        <time>2019-04-23T04:21:51Z</time>
      </trkpt>
      <trkpt lat="45.37149" lon="7.03314">
        <ele>1977</ele>
        <time>2019-04-23T04:22:51Z</time>
      </trkpt>
      <trkpt lat="45.37113" lon="7.03258">
        <ele>1980</ele>
        <time>2019-04-23T04:23:51Z</time>
      </trkpt>
      <trkpt lat="45.37102" lon="7.03245">
        <ele>1980</ele>
        <time>2019-04-23T04:24:51Z</time>
      </trkpt>
      <trkpt lat="45.37074" lon="7.03228">
        <ele>1976</ele>
        <time>2019-04-23T04:25:51Z</time>
      </trkpt>
      <trkpt lat="45.37064" lon="7.03224">
        <ele>1974</ele>
        <time>2019-04-23T04:26:51Z</time>
      </trkpt>
      <trkpt lat="45.37037" lon="7.03221">
        <ele>1966</ele>
        <time>2019-04-23T04:27:51Z</time>
      </trkpt>
      <trkpt lat="45.37027" lon="7.03217">
        <ele>1964</ele>
        <time>2019-04-23T04:28:51Z</time>
      </trkpt>
      <trkpt lat="45.36996" lon="7.0319">
        <ele>1962</ele>
        <time>2019-04-23T04:29:51Z</time>
      </trkpt>
      <trkpt lat="45.36985" lon="7.03177">
        <ele>1960</ele>
        <time>2019-04-23T04:30:51Z</time>
      </trkpt>
      <trkpt lat="45.36973" lon="7.03156">
        <ele>1961</ele>
        <time>2019-04-23T04:31:51Z</time>
      </trkpt>
      <trkpt lat="45.36969" lon="7.03153">
        <ele>1960</ele>
        <time>2019-04-23T04:32:51Z</time>
      </trkpt>
      <trkpt lat="45.36963" lon="7.03156">
        <ele>1956</ele>
        <time>2019-04-23T04:33:51Z</time>
      </trkpt>
      <trkpt lat="45.36961" lon="7.03162">
        <ele>1953</ele>
        <time>2019-04-23T04:34:51Z</time>
      </trkpt>
      <trkpt lat="45.36963" lon="7.03171">
        <ele>1951</ele>
        <time>2019-04-23T04:35:51Z</time>
      </trkpt>
      <trkpt lat="45.36971" lon="7.03184">
        <ele>1951</ele>
        <time>2019-04-23T04:36:51Z</time>
      </trkpt>
      <trkpt lat="45.37017" lon="7.03244">
        <ele>1952</ele>
        <time>2019-04-23T04:37:51Z</time>
      </trkpt>
      <trkpt lat="45.37061" lon="7.03282">
        <ele>1954</ele>
        <time>2019-04-23T04:38:51Z</time>
      </trkpt>
      <trkpt lat="45.3707" lon="7.03295">
        <ele>1953</ele>
        <time>2019-04-23T04:39:51Z</time>
      </trkpt>
      <trkpt lat="45.37078" lon="7.03312">
        <ele>1950</ele>
        <time>2019-04-23T04:40:51Z</time>
      </trkpt>
      <trkpt lat="45.37094" lon="7.03361">
        <ele>1942</ele>
        <time>2019-04-23T04:41:51Z</time>
      </trkpt>
      <trkpt lat="45.37103" lon="7.03385">
        <ele>1940</ele>
        <time>2019-04-23T04:42:51Z</time>
      </trkpt>
      <trkpt lat="45.37132" lon="7.0344">
        <ele>1937</ele>
        <time>2019-04-23T04:43:51Z</time>
      </trkpt>
      <trkpt lat="45.37147" lon="7.03467">
        <ele>1935</ele>
        <time>2019-04-23T04:44:51Z</time>
      </trkpt>
      <trkpt lat="45.37166" lon="7.03491">
        <ele>1935</ele>
        <time>2019-04-23T04:45:51Z</time>
      </trkpt>
      <trkpt lat="45.37176" lon="7.03512">
        <ele>1935</ele>
        <time>2019-04-23T04:46:51Z</time>
      </trkpt>
      <trkpt lat="45.37182" lon="7.03529">
        <ele>1934</ele>
        <time>2019-04-23T04:47:51Z</time>
      </trkpt>
      <trkpt lat="45.37185" lon="7.03547">
        <ele>1932</ele>
        <time>2019-04-23T04:48:51Z</time>
      </trkpt>
      <trkpt lat="45.37187" lon="7.03566">
        <ele>1929</ele>
        <time>2019-04-23T04:49:51Z</time>
      </trkpt>
      <trkpt lat="45.37189" lon="7.03607">
        <ele>1924</ele>
        <time>2019-04-23T04:50:51Z</time>
      </trkpt>
      <trkpt lat="45.37195" lon="7.03639">
        <ele>1923</ele>
        <time>2019-04-23T04:51:51Z</time>
      </trkpt>
      <trkpt lat="45.37196" lon="7.03654">
        <ele>1922</ele>
        <time>2019-04-23T04:52:51Z</time>
      </trkpt>
      <trkpt lat="45.37198" lon="7.03668">
        <ele>1921</ele>
        <time>2019-04-23T04:53:51Z</time>
      </trkpt>
      <trkpt lat="45.37203" lon="7.03689">
        <ele>1921</ele>
        <time>2019-04-23T04:54:51Z</time>
      </trkpt>
      <trkpt lat="45.37204" lon="7.03701">
        <ele>1920</ele>
        <time>2019-04-23T04:55:51Z</time>
      </trkpt>
      <trkpt lat="45.37201" lon="7.03727">
        <ele>1915</ele>
        <time>2019-04-23T04:56:51Z</time>
      </trkpt>
      <trkpt lat="45.37214" lon="7.0379">
        <ele>1912</ele>
        <time>2019-04-23T04:57:51Z</time>
      </trkpt>
      <trkpt lat="45.37219" lon="7.03831">
        <ele>1908</ele>
        <time>2019-04-23T04:58:51Z</time>
      </trkpt>
      <trkpt lat="45.37226" lon="7.03852">
        <ele>1907</ele>
        <time>2019-04-23T04:59:51Z</time>
      </trkpt>
      <trkpt lat="45.37238" lon="7.03868">
        <ele>1910</ele>
        <time>2019-04-23T05:00:51Z</time>
      </trkpt>
      <trkpt lat="45.37247" lon="7.03887">
        <ele>1910</ele>
        <time>2019-04-23T05:01:51Z</time>
      </trkpt>
      <trkpt lat="45.37257" lon="7.03948">
        <ele>1900</ele>
        <time>2019-04-23T05:02:51Z</time>
      </trkpt>
      <trkpt lat="45.37287" lon="7.04051">
        <ele>1896</ele>
        <time>2019-04-23T05:03:51Z</time>
      </trkpt>
      <trkpt lat="45.37291" lon="7.04088">
        <ele>1890</ele>
        <time>2019-04-23T05:04:51Z</time>
      </trkpt>
      <trkpt lat="45.37334" lon="7.04257">
        <ele>1883</ele>
        <time>2019-04-23T05:05:51Z</time>
      </trkpt>
      <trkpt lat="45.37349" lon="7.04339">
        <ele>1881</ele>
        <time>2019-04-23T05:06:51Z</time>
      </trkpt>
      <trkpt lat="45.37354" lon="7.04381">
        <ele>1879</ele>
        <time>2019-04-23T05:07:51Z</time>
      </trkpt>
      <trkpt lat="45.37368" lon="7.04442">
        <ele>1881</ele>
        <time>2019-04-23T05:08:51Z</time>
      </trkpt>
      <trkpt lat="45.37372" lon="7.04486">
        <ele>1878</ele>
        <time>2019-04-23T05:09:51Z</time>
      </trkpt>
      <trkpt lat="45.37371" lon="7.04515">
        <ele>1873</ele>
        <time>2019-04-23T05:10:51Z</time>
      </trkpt>
      <trkpt lat="45.37363" lon="7.04565">
        <ele>1862</ele>
        <time>2019-04-23T05:11:51Z</time>
      </trkpt>
      <trkpt lat="45.3736" lon="7.04608">
        <ele>1856</ele>
        <time>2019-04-23T05:12:51Z</time>
      </trkpt>
      <trkpt lat="45.3736" lon="7.04671">
        <ele>1852</ele>
        <time>2019-04-23T05:13:51Z</time>
      </trkpt>
      <trkpt lat="45.37361" lon="7.04705">
        <ele>1849</ele>
        <time>2019-04-23T05:14:51Z</time>
      </trkpt>
      <trkpt lat="45.37369" lon="7.04749">
        <ele>1850</ele>
        <time>2019-04-23T05:15:51Z</time>
      </trkpt>
      <trkpt lat="45.37371" lon="7.04786">
        <ele>1846</ele>
        <time>2019-04-23T05:16:51Z</time>
      </trkpt>
      <trkpt lat="45.37377" lon="7.04818">
        <ele>1843</ele>
        <time>2019-04-23T05:17:51Z</time>
      </trkpt>
      <trkpt lat="45.37387" lon="7.04861">
        <ele>1842</ele>
        <time>2019-04-23T05:18:51Z</time>
      </trkpt>
      <trkpt lat="45.37397" lon="7.04913">
        <ele>1838</ele>
        <time>2019-04-23T05:19:51Z</time>
      </trkpt>
      <trkpt lat="45.37429" lon="7.05109">
        <ele>1828</ele>
        <time>2019-04-23T05:20:51Z</time>
      </trkpt>
      <trkpt lat="45.3743" lon="7.05164">
        <ele>1825</ele>
        <time>2019-04-23T05:21:51Z</time>
      </trkpt>
      <trkpt lat="45.37425" lon="7.05219">
        <ele>1821</ele>
        <time>2019-04-23T05:22:51Z</time>
      </trkpt>
      <trkpt lat="45.3741" lon="7.05252">
        <ele>1817</ele>
        <time>2019-04-23T05:23:51Z</time>
      </trkpt>
      <trkpt lat="45.37386" lon="7.05277">
        <ele>1813</ele>
        <time>2019-04-23T05:24:51Z</time>
      </trkpt>
      <trkpt lat="45.37381" lon="7.05281">
        <ele>1812</ele>
        <time>2019-04-23T05:25:51Z</time>
      </trkpt>
      <trkpt lat="45.37355" lon="7.05283">
        <ele>1808</ele>
        <time>2019-04-23T05:26:51Z</time>
      </trkpt>
      <trkpt lat="45.37337" lon="7.0528">
        <ele>1804</ele>
        <time>2019-04-23T05:27:51Z</time>
      </trkpt>
      <trkpt lat="45.37325" lon="7.05273">
        <ele>1803</ele>
        <time>2019-04-23T05:28:51Z</time>
      </trkpt>
      <trkpt lat="45.37305" lon="7.05252">
        <ele>1801</ele>
        <time>2019-04-23T05:29:51Z</time>
      </trkpt>
      <trkpt lat="45.37279" lon="7.05202">
        <ele>1798</ele>
        <time>2019-04-23T05:30:51Z</time>
      </trkpt>
      <trkpt lat="45.37141" lon="7.04892">
        <ele>1790</ele>
        <time>2019-04-23T05:31:51Z</time>
      </trkpt>
      <trkpt lat="45.37053" lon="7.04679">
        <ele>1788</ele>
        <time>2019-04-23T05:32:51Z</time>
      </trkpt>
      <trkpt lat="45.3695" lon="7.04334">
        <ele>1782</ele>
        <time>2019-04-23T05:33:51Z</time>
      </trkpt>
      <trkpt lat="45.36925" lon="7.04267">
        <ele>1782</ele>
        <time>2019-04-23T05:34:51Z</time>
      </trkpt>
      <trkpt lat="45.36898" lon="7.04228">
        <ele>1782</ele>
        <time>2019-04-23T05:35:51Z</time>
      </trkpt>
      <trkpt lat="45.36733" lon="7.0401">
        <ele>1783</ele>
        <time>2019-04-23T05:36:51Z</time>
      </trkpt>
      <trkpt lat="45.36417" lon="7.03684">
        <ele>1778</ele>
        <time>2019-04-23T05:37:51Z</time>
      </trkpt>
      <trkpt lat="45.36363" lon="7.03619">
        <ele>1781</ele>
        <time>2019-04-23T05:38:51Z</time>
      </trkpt>
      <trkpt lat="45.36304" lon="7.03534">
        <ele>1777</ele>
        <time>2019-04-23T05:39:51Z</time>
      </trkpt>
      <trkpt lat="45.3628" lon="7.03505">
        <ele>1774</ele>
        <time>2019-04-23T05:40:51Z</time>
      </trkpt>
      <trkpt lat="45.36194" lon="7.03434">
        <ele>1773</ele>
        <time>2019-04-23T05:41:51Z</time>
      </trkpt>
      <trkpt lat="45.35978" lon="7.03203">
        <ele>1767</ele>
        <time>2019-04-23T05:42:51Z</time>
      </trkpt>
      <trkpt lat="45.35956" lon="7.03187">
        <ele>1767</ele>
        <time>2019-04-23T05:43:51Z</time>
      </trkpt>
      <trkpt lat="45.35767" lon="7.03065">
        <ele>1777</ele>
        <time>2019-04-23T05:44:51Z</time>
      </trkpt>
      <trkpt lat="45.35735" lon="7.03035">
        <ele>1774</ele>
        <time>2019-04-23T05:45:51Z</time>
      </trkpt>
      <trkpt lat="45.35705" lon="7.03004">
        <ele>1768</ele>
        <time>2019-04-23T05:46:51Z</time>
      </trkpt>
      <trkpt lat="45.35667" lon="7.02979">
        <ele>1769</ele>
        <time>2019-04-23T05:47:51Z</time>
      </trkpt>
      <trkpt lat="45.35632" lon="7.02963">
        <ele>1768</ele>
        <time>2019-04-23T05:48:51Z</time>
      </trkpt>
      <trkpt lat="45.35608" lon="7.02959">
        <ele>1768</ele>
        <time>2019-04-23T05:49:51Z</time>
      </trkpt>
      <trkpt lat="45.35583" lon="7.02959">
        <ele>1769</ele>
        <time>2019-04-23T05:50:51Z</time>
      </trkpt>
      <trkpt lat="45.35211" lon="7.03017">
        <ele>1757</ele>
        <time>2019-04-23T05:51:51Z</time>
      </trkpt>
      <trkpt lat="45.35156" lon="7.03016">
        <ele>1756</ele>
        <time>2019-04-23T05:52:51Z</time>
      </trkpt>
      <trkpt lat="45.35098" lon="7.03009">
        <ele>1758</ele>
        <time>2019-04-23T05:53:51Z</time>
      </trkpt>
      <trkpt lat="45.34924" lon="7.02977">
        <ele>1756</ele>
        <time>2019-04-23T05:54:51Z</time>
      </trkpt>
      <trkpt lat="45.34753" lon="7.02961">
        <ele>1754</ele>
        <time>2019-04-23T05:55:51Z</time>
      </trkpt>
      <trkpt lat="45.3467" lon="7.02948">
        <ele>1754</ele>
        <time>2019-04-23T05:56:51Z</time>
      </trkpt>
      <trkpt lat="45.34584" lon="7.02919">
        <ele>1749</ele>
        <time>2019-04-23T05:57:51Z</time>
      </trkpt>
      <trkpt lat="45.34423" lon="7.02852">
        <ele>1750</ele>
        <time>2019-04-23T05:58:51Z</time>
      </trkpt>
      <trkpt lat="45.34354" lon="7.02813">
        <ele>1748</ele>
        <time>2019-04-23T05:59:51Z</time>
      </trkpt>
      <trkpt lat="45.34081" lon="7.02614">
        <ele>1749</ele>
        <time>2019-04-23T06:00:51Z</time>
      </trkpt>
      <trkpt lat="45.34047" lon="7.02585">
        <ele>1748</ele>
        <time>2019-04-23T06:01:51Z</time>
      </trkpt>
      <trkpt lat="45.34002" lon="7.02535">
        <ele>1747</ele>
        <time>2019-04-23T06:02:51Z</time>
      </trkpt>
      <trkpt lat="45.3392" lon="7.02423">
        <ele>1744</ele>
        <time>2019-04-23T06:03:51Z</time>
      </trkpt>
      <trkpt lat="45.33898" lon="7.02393">
        <ele>1743</ele>
        <time>2019-04-23T06:04:51Z</time>
      </trkpt>
      <trkpt lat="45.33872" lon="7.02364">
        <ele>1743</ele>
        <time>2019-04-23T06:05:51Z</time>
      </trkpt>
      <trkpt lat="45.33176" lon="7.01654">
        <ele>1734</ele>
        <time>2019-04-23T06:06:51Z</time>
      </trkpt>
      <trkpt lat="45.33152" lon="7.01625">
        <ele>1734</ele>
        <time>2019-04-23T06:07:51Z</time>
      </trkpt>
      <trkpt lat="45.33134" lon="7.01599">
        <ele>1735</ele>
        <time>2019-04-23T06:08:51Z</time>
      </trkpt>
      <trkpt lat="45.33052" lon="7.0147">
        <ele>1740</ele>
        <time>2019-04-23T06:09:51Z</time>
      </trkpt>
      <trkpt lat="45.33029" lon="7.01429">
        <ele>1743</ele>
        <time>2019-04-23T06:10:51Z</time>
      </trkpt>
      <trkpt lat="45.33013" lon="7.01392">
        <ele>1745</ele>
        <time>2019-04-23T06:11:51Z</time>
      </trkpt>
      <trkpt lat="45.33" lon="7.01352">
        <ele>1746</ele>
        <time>2019-04-23T06:12:51Z</time>
      </trkpt>
      <trkpt lat="45.32939" lon="7.01153">
        <ele>1741</ele>
        <time>2019-04-23T06:13:51Z</time>
      </trkpt>
      <trkpt lat="45.32926" lon="7.01116">
        <ele>1739</ele>
        <time>2019-04-23T06:14:51Z</time>
      </trkpt>
      <trkpt lat="45.32911" lon="7.01081">
        <ele>1737</ele>
        <time>2019-04-23T06:15:51Z</time>
      </trkpt>
      <trkpt lat="45.32855" lon="7.00969">
        <ele>1734</ele>
        <time>2019-04-23T06:16:51Z</time>
      </trkpt>
      <trkpt lat="45.32717" lon="7.00682">
        <ele>1731</ele>
        <time>2019-04-23T06:17:51Z</time>
      </trkpt>
      <trkpt lat="45.32617" lon="7.00481">
        <ele>1738</ele>
        <time>2019-04-23T06:18:51Z</time>
      </trkpt>
      <trkpt lat="45.32584" lon="7.00419">
        <ele>1736</ele>
        <time>2019-04-23T06:19:51Z</time>
      </trkpt>
      <trkpt lat="45.32548" lon="7.00367">
        <ele>1735</ele>
        <time>2019-04-23T06:20:51Z</time>
      </trkpt>
      <trkpt lat="45.32515" lon="7.00327">
        <ele>1734</ele>
        <time>2019-04-23T06:21:51Z</time>
      </trkpt>
      <trkpt lat="45.32399" lon="7.00214">
        <ele>1732</ele>
        <time>2019-04-23T06:22:51Z</time>
      </trkpt>
      <trkpt lat="45.32353" lon="7.00174">
        <ele>1732</ele>
        <time>2019-04-23T06:23:51Z</time>
      </trkpt>
      <trkpt lat="45.32342" lon="7.00153">
        <ele>1732</ele>
        <time>2019-04-23T06:24:51Z</time>
      </trkpt>
      <trkpt lat="45.32326" lon="7.00143">
        <ele>1732</ele>
        <time>2019-04-23T06:25:51Z</time>
      </trkpt>
      <trkpt lat="45.32302" lon="7.0012">
        <ele>1733</ele>
        <time>2019-04-23T06:26:51Z</time>
      </trkpt>
      <trkpt lat="45.3219" lon="7.0001">
        <ele>1733</ele>
        <time>2019-04-23T06:27:51Z</time>
      </trkpt>
      <trkpt lat="45.32095" lon="6.99919">
        <ele>1730</ele>
        <time>2019-04-23T06:28:51Z</time>
      </trkpt>
      <trkpt lat="45.31995" lon="6.9982">
        <ele>1731</ele>
        <time>2019-04-23T06:29:51Z</time>
      </trkpt>
      <trkpt lat="45.3134" lon="6.99189">
        <ele>1743</ele>
        <time>2019-04-23T06:30:51Z</time>
      </trkpt>
      <trkpt lat="45.31294" lon="6.9914">
        <ele>1743</ele>
        <time>2019-04-23T06:31:51Z</time>
      </trkpt>
      <trkpt lat="45.31268" lon="6.99094">
        <ele>1742</ele>
        <time>2019-04-23T06:32:51Z</time>
      </trkpt>
      <trkpt lat="45.31252" lon="6.99054">
        <ele>1739</ele>
        <time>2019-04-23T06:33:51Z</time>
      </trkpt>
      <trkpt lat="45.31217" lon="6.98939">
        <ele>1745</ele>
        <time>2019-04-23T06:34:51Z</time>
      </trkpt>
      <trkpt lat="45.31215" lon="6.98931">
        <ele>1747</ele>
        <time>2019-04-23T06:35:51Z</time>
      </trkpt>
      <trkpt lat="45.31212" lon="6.98899">
        <ele>1753</ele>
        <time>2019-04-23T06:36:51Z</time>
      </trkpt>
      <trkpt lat="45.31214" lon="6.98861">
        <ele>1758</ele>
        <time>2019-04-23T06:37:51Z</time>
      </trkpt>
      <trkpt lat="45.31227" lon="6.98795">
        <ele>1755</ele>
        <time>2019-04-23T06:38:51Z</time>
      </trkpt>
      <trkpt lat="45.31229" lon="6.98738">
        <ele>1754</ele>
        <time>2019-04-23T06:39:51Z</time>
      </trkpt>
      <trkpt lat="45.31224" lon="6.98677">
        <ele>1749</ele>
        <time>2019-04-23T06:40:51Z</time>
      </trkpt>
      <trkpt lat="45.31208" lon="6.98617">
        <ele>1748</ele>
        <time>2019-04-23T06:41:51Z</time>
      </trkpt>
      <trkpt lat="45.31021" lon="6.98181">
        <ele>1733</ele>
        <time>2019-04-23T06:42:51Z</time>
      </trkpt>
      <trkpt lat="45.30869" lon="6.97838">
        <ele>1703</ele>
        <time>2019-04-23T06:43:51Z</time>
      </trkpt>
      <trkpt lat="45.30852" lon="6.97796">
        <ele>1699</ele>
        <time>2019-04-23T06:44:51Z</time>
      </trkpt>
      <trkpt lat="45.30838" lon="6.97747">
        <ele>1692</ele>
        <time>2019-04-23T06:45:51Z</time>
      </trkpt>
      <trkpt lat="45.30834" lon="6.97716">
        <ele>1691</ele>
        <time>2019-04-23T06:46:51Z</time>
      </trkpt>
      <trkpt lat="45.30832" lon="6.97681">
        <ele>1688</ele>
        <time>2019-04-23T06:47:51Z</time>
      </trkpt>
      <trkpt lat="45.30836" lon="6.9762">
        <ele>1685</ele>
        <time>2019-04-23T06:48:51Z</time>
      </trkpt>
      <trkpt lat="45.3084" lon="6.97596">
        <ele>1684</ele>
        <time>2019-04-23T06:49:51Z</time>
      </trkpt>
      <trkpt lat="45.3086" lon="6.97518">
        <ele>1681</ele>
        <time>2019-04-23T06:50:51Z</time>
      </trkpt>
      <trkpt lat="45.30864" lon="6.97494">
        <ele>1681</ele>
        <time>2019-04-23T06:51:51Z</time>
      </trkpt>
      <trkpt lat="45.30889" lon="6.97395">
        <ele>1681</ele>
        <time>2019-04-23T06:52:51Z</time>
      </trkpt>
      <trkpt lat="45.30894" lon="6.97369">
        <ele>1681</ele>
        <time>2019-04-23T06:53:51Z</time>
      </trkpt>
      <trkpt lat="45.309" lon="6.97313">
        <ele>1682</ele>
        <time>2019-04-23T06:54:51Z</time>
      </trkpt>
      <trkpt lat="45.30899" lon="6.97274">
        <ele>1682</ele>
        <time>2019-04-23T06:55:51Z</time>
      </trkpt>
      <trkpt lat="45.30894" lon="6.97244">
        <ele>1682</ele>
        <time>2019-04-23T06:56:51Z</time>
      </trkpt>
      <trkpt lat="45.30884" lon="6.97209">
        <ele>1682</ele>
        <time>2019-04-23T06:57:51Z</time>
      </trkpt>
      <trkpt lat="45.30863" lon="6.97162">
        <ele>1682</ele>
        <time>2019-04-23T06:58:51Z</time>
      </trkpt>
      <trkpt lat="45.30808" lon="6.97057">
        <ele>1682</ele>
        <time>2019-04-23T06:59:51Z</time>
      </trkpt>
      <trkpt lat="45.30708" lon="6.96877">
        <ele>1678</ele>
        <time>2019-04-23T07:00:51Z</time>
      </trkpt>
      <trkpt lat="45.30683" lon="6.9682">
        <ele>1677</ele>
        <time>2019-04-23T07:01:51Z</time>
      </trkpt>
      <trkpt lat="45.30661" lon="6.9675">
        <ele>1675</ele>
        <time>2019-04-23T07:02:51Z</time>
      </trkpt>
      <trkpt lat="45.30644" lon="6.96678">
        <ele>1677</ele>
        <time>2019-04-23T07:03:51Z</time>
      </trkpt>
      <trkpt lat="45.30636" lon="6.96598">
        <ele>1677</ele>
        <time>2019-04-23T07:04:51Z</time>
      </trkpt>
      <trkpt lat="45.3063" lon="6.9648">
        <ele>1678</ele>
        <time>2019-04-23T07:05:51Z</time>
      </trkpt>
      <trkpt lat="45.30628" lon="6.9638">
        <ele>1676</ele>
        <time>2019-04-23T07:06:51Z</time>
      </trkpt>
      <trkpt lat="45.30634" lon="6.96254">
        <ele>1676</ele>
        <time>2019-04-23T07:07:51Z</time>
      </trkpt>
      <trkpt lat="45.30645" lon="6.96094">
        <ele>1682</ele>
        <time>2019-04-23T07:08:51Z</time>
      </trkpt>
      <trkpt lat="45.30644" lon="6.96048">
        <ele>1682</ele>
        <time>2019-04-23T07:09:51Z</time>
      </trkpt>
      <trkpt lat="45.30639" lon="6.96005">
        <ele>1681</ele>
        <time>2019-04-23T07:10:51Z</time>
      </trkpt>
      <trkpt lat="45.3062" lon="6.95904">
        <ele>1688</ele>
        <time>2019-04-23T07:11:51Z</time>
      </trkpt>
      <trkpt lat="45.30596" lon="6.95817">
        <ele>1695</ele>
        <time>2019-04-23T07:12:51Z</time>
      </trkpt>
      <trkpt lat="45.3057" lon="6.95759">
        <ele>1692</ele>
        <time>2019-04-23T07:13:51Z</time>
      </trkpt>
      <trkpt lat="45.30544" lon="6.95721">
        <ele>1694</ele>
        <time>2019-04-23T07:14:51Z</time>
      </trkpt>
      <trkpt lat="45.30502" lon="6.95686">
        <ele>1689</ele>
        <time>2019-04-23T07:15:51Z</time>
      </trkpt>
      <trkpt lat="45.30353" lon="6.95605">
        <ele>1699</ele>
        <time>2019-04-23T07:16:51Z</time>
      </trkpt>
      <trkpt lat="45.3033" lon="6.95585">
        <ele>1701</ele>
        <time>2019-04-23T07:17:51Z</time>
      </trkpt>
      <trkpt lat="45.30317" lon="6.95567">
        <ele>1702</ele>
        <time>2019-04-23T07:18:51Z</time>
      </trkpt>
      <trkpt lat="45.30307" lon="6.95546">
        <ele>1703</ele>
        <time>2019-04-23T07:19:51Z</time>
      </trkpt>
      <trkpt lat="45.30296" lon="6.95515">
        <ele>1706</ele>
        <time>2019-04-23T07:20:51Z</time>
      </trkpt>
      <trkpt lat="45.30289" lon="6.95488">
        <ele>1708</ele>
        <time>2019-04-23T07:21:51Z</time>
      </trkpt>
      <trkpt lat="45.30261" lon="6.95349">
        <ele>1716</ele>
        <time>2019-04-23T07:22:51Z</time>
      </trkpt>
      <trkpt lat="45.30249" lon="6.95317">
        <ele>1718</ele>
        <time>2019-04-23T07:23:51Z</time>
      </trkpt>
      <trkpt lat="45.30239" lon="6.95302">
        <ele>1719</ele>
        <time>2019-04-23T07:24:51Z</time>
      </trkpt>
      <trkpt lat="45.30231" lon="6.95294">
        <ele>1720</ele>
        <time>2019-04-23T07:25:51Z</time>
      </trkpt>
      <trkpt lat="45.30219" lon="6.95289">
        <ele>1721</ele>
        <time>2019-04-23T07:26:51Z</time>
      </trkpt>
      <trkpt lat="45.30196" lon="6.95289">
        <ele>1723</ele>
        <time>2019-04-23T07:27:51Z</time>
      </trkpt>
      <trkpt lat="45.30134" lon="6.95304">
        <ele>1723</ele>
        <time>2019-04-23T07:28:51Z</time>
      </trkpt>
      <trkpt lat="45.30117" lon="6.95305">
        <ele>1723</ele>
        <time>2019-04-23T07:29:51Z</time>
      </trkpt>
      <trkpt lat="45.301" lon="6.95299">
        <ele>1724</ele>
        <time>2019-04-23T07:30:51Z</time>
      </trkpt>
      <trkpt lat="45.30085" lon="6.95287">
        <ele>1725</ele>
        <time>2019-04-23T07:31:51Z</time>
      </trkpt>
      <trkpt lat="45.30076" lon="6.95274">
        <ele>1723</ele>
        <time>2019-04-23T07:32:51Z</time>
      </trkpt>
      <trkpt lat="45.30069" lon="6.95256">
        <ele>1721</ele>
        <time>2019-04-23T07:33:51Z</time>
      </trkpt>
      <trkpt lat="45.3001" lon="6.94988">
        <ele>1736</ele>
        <time>2019-04-23T07:34:51Z</time>
      </trkpt>
      <trkpt lat="45.30006" lon="6.94953">
        <ele>1737</ele>
        <time>2019-04-23T07:35:51Z</time>
      </trkpt>
      <trkpt lat="45.30007" lon="6.94923">
        <ele>1738</ele>
        <time>2019-04-23T07:36:51Z</time>
      </trkpt>
      <trkpt lat="45.30009" lon="6.94906">
        <ele>1739</ele>
        <time>2019-04-23T07:37:51Z</time>
      </trkpt>
      <trkpt lat="45.30068" lon="6.9472">
        <ele>1739</ele>
        <time>2019-04-23T07:38:51Z</time>
      </trkpt>
      <trkpt lat="45.30078" lon="6.94681">
        <ele>1738</ele>
        <time>2019-04-23T07:39:51Z</time>
      </trkpt>
      <trkpt lat="45.30086" lon="6.9462">
        <ele>1736</ele>
        <time>2019-04-23T07:40:51Z</time>
      </trkpt>
      <trkpt lat="45.30087" lon="6.94544">
        <ele>1735</ele>
        <time>2019-04-23T07:41:51Z</time>
      </trkpt>
      <trkpt lat="45.30079" lon="6.94358">
        <ele>1728</ele>
        <time>2019-04-23T07:42:51Z</time>
      </trkpt>
      <trkpt lat="45.30077" lon="6.9433">
        <ele>1727</ele>
        <time>2019-04-23T07:43:51Z</time>
      </trkpt>
      <trkpt lat="45.30072" lon="6.94305">
        <ele>1724</ele>
        <time>2019-04-23T07:44:51Z</time>
      </trkpt>
      <trkpt lat="45.30046" lon="6.94225">
        <ele>1716</ele>
        <time>2019-04-23T07:45:51Z</time>
      </trkpt>
      <trkpt lat="45.30029" lon="6.94194">
        <ele>1716</ele>
        <time>2019-04-23T07:46:51Z</time>
      </trkpt>
      <trkpt lat="45.30011" lon="6.94165">
        <ele>1716</ele>
        <time>2019-04-23T07:47:51Z</time>
      </trkpt>
      <trkpt lat="45.29939" lon="6.94063">
        <ele>1715</ele>
        <time>2019-04-23T07:48:51Z</time>
      </trkpt>
      <trkpt lat="45.2993" lon="6.94045">
        <ele>1715</ele>
        <time>2019-04-23T07:49:51Z</time>
      </trkpt>
      <trkpt lat="45.29924" lon="6.94028">
        <ele>1715</ele>
        <time>2019-04-23T07:50:51Z</time>
      </trkpt>
      <trkpt lat="45.2992" lon="6.94013">
        <ele>1716</ele>
        <time>2019-04-23T07:51:51Z</time>
      </trkpt>
      <trkpt lat="45.29919" lon="6.93998">
        <ele>1717</ele>
        <time>2019-04-23T07:52:51Z</time>
      </trkpt>
      <trkpt lat="45.29921" lon="6.93981">
        <ele>1716</ele>
        <time>2019-04-23T07:53:51Z</time>
      </trkpt>
      <trkpt lat="45.29926" lon="6.93959">
        <ele>1715</ele>
        <time>2019-04-23T07:54:51Z</time>
      </trkpt>
      <trkpt lat="45.29972" lon="6.93817">
        <ele>1703</ele>
        <time>2019-04-23T07:55:51Z</time>
      </trkpt>
      <trkpt lat="45.29978" lon="6.93791">
        <ele>1702</ele>
        <time>2019-04-23T07:56:51Z</time>
      </trkpt>
      <trkpt lat="45.29981" lon="6.93752">
        <ele>1702</ele>
        <time>2019-04-23T07:57:51Z</time>
      </trkpt>
      <trkpt lat="45.29979" lon="6.93726">
        <ele>1702</ele>
        <time>2019-04-23T07:58:51Z</time>
      </trkpt>
      <trkpt lat="45.29974" lon="6.93695">
        <ele>1703</ele>
        <time>2019-04-23T07:59:51Z</time>
      </trkpt>
      <trkpt lat="45.29948" lon="6.93575">
        <ele>1698</ele>
        <time>2019-04-23T08:00:51Z</time>
      </trkpt>
      <trkpt lat="45.29942" lon="6.93557">
        <ele>1697</ele>
        <time>2019-04-23T08:01:51Z</time>
      </trkpt>
      <trkpt lat="45.29936" lon="6.93547">
        <ele>1695</ele>
        <time>2019-04-23T08:02:51Z</time>
      </trkpt>
      <trkpt lat="45.29928" lon="6.93537">
        <ele>1693</ele>
        <time>2019-04-23T08:03:51Z</time>
      </trkpt>
      <trkpt lat="45.2992" lon="6.93532">
        <ele>1690</ele>
        <time>2019-04-23T08:04:51Z</time>
      </trkpt>
      <trkpt lat="45.29912" lon="6.9353">
        <ele>1688</ele>
        <time>2019-04-23T08:05:51Z</time>
      </trkpt>
      <trkpt lat="45.29902" lon="6.9353">
        <ele>1686</ele>
        <time>2019-04-23T08:06:51Z</time>
      </trkpt>
      <trkpt lat="45.29885" lon="6.93537">
        <ele>1683</ele>
        <time>2019-04-23T08:07:51Z</time>
      </trkpt>
      <trkpt lat="45.29829" lon="6.93595">
        <ele>1680</ele>
        <time>2019-04-23T08:08:51Z</time>
      </trkpt>
      <trkpt lat="45.29768" lon="6.9364">
        <ele>1679</ele>
        <time>2019-04-23T08:09:51Z</time>
      </trkpt>
      <trkpt lat="45.29741" lon="6.93665">
        <ele>1679</ele>
        <time>2019-04-23T08:10:51Z</time>
      </trkpt>
      <trkpt lat="45.29726" lon="6.93676">
        <ele>1677</ele>
        <time>2019-04-23T08:11:51Z</time>
      </trkpt>
      <trkpt lat="45.2972" lon="6.93677">
        <ele>1675</ele>
        <time>2019-04-23T08:12:51Z</time>
      </trkpt>
      <trkpt lat="45.29706" lon="6.93673">
        <ele>1672</ele>
        <time>2019-04-23T08:13:51Z</time>
      </trkpt>
      <trkpt lat="45.29699" lon="6.93666">
        <ele>1670</ele>
        <time>2019-04-23T08:14:51Z</time>
      </trkpt>
      <trkpt lat="45.29693" lon="6.93656">
        <ele>1667</ele>
        <time>2019-04-23T08:15:51Z</time>
      </trkpt>
      <trkpt lat="45.29687" lon="6.93637">
        <ele>1663</ele>
        <time>2019-04-23T08:16:51Z</time>
      </trkpt>
      <trkpt lat="45.29687" lon="6.93622">
        <ele>1661</ele>
        <time>2019-04-23T08:17:51Z</time>
      </trkpt>
      <trkpt lat="45.29689" lon="6.9361">
        <ele>1659</ele>
        <time>2019-04-23T08:18:51Z</time>
      </trkpt>
      <trkpt lat="45.29692" lon="6.93602">
        <ele>1659</ele>
        <time>2019-04-23T08:19:51Z</time>
      </trkpt>
      <trkpt lat="45.29698" lon="6.93594">
        <ele>1658</ele>
        <time>2019-04-23T08:20:51Z</time>
      </trkpt>
      <trkpt lat="45.29758" lon="6.9356">
        <ele>1660</ele>
        <time>2019-04-23T08:21:51Z</time>
      </trkpt>
      <trkpt lat="45.29768" lon="6.93551">
        <ele>1661</ele>
        <time>2019-04-23T08:22:51Z</time>
      </trkpt>
      <trkpt lat="45.29783" lon="6.93526">
        <ele>1661</ele>
        <time>2019-04-23T08:23:51Z</time>
      </trkpt>
      <trkpt lat="45.29787" lon="6.93513">
        <ele>1660</ele>
        <time>2019-04-23T08:24:51Z</time>
      </trkpt>
      <trkpt lat="45.29792" lon="6.93484">
        <ele>1658</ele>
        <time>2019-04-23T08:25:51Z</time>
      </trkpt>
      <trkpt lat="45.29798" lon="6.93425">
        <ele>1655</ele>
        <time>2019-04-23T08:26:51Z</time>
      </trkpt>
      <trkpt lat="45.29796" lon="6.93394">
        <ele>1654</ele>
        <time>2019-04-23T08:27:51Z</time>
      </trkpt>
      <trkpt lat="45.29786" lon="6.93365">
        <ele>1652</ele>
        <time>2019-04-23T08:28:51Z</time>
      </trkpt>
      <trkpt lat="45.29777" lon="6.9335">
        <ele>1651</ele>
        <time>2019-04-23T08:29:51Z</time>
      </trkpt>
      <trkpt lat="45.29765" lon="6.93336">
        <ele>1649</ele>
        <time>2019-04-23T08:30:51Z</time>
      </trkpt>
      <trkpt lat="45.29755" lon="6.93328">
        <ele>1647</ele>
        <time>2019-04-23T08:31:51Z</time>
      </trkpt>
      <trkpt lat="45.29732" lon="6.93321">
        <ele>1645</ele>
        <time>2019-04-23T08:32:51Z</time>
      </trkpt>
      <trkpt lat="45.2972" lon="6.93322">
        <ele>1644</ele>
        <time>2019-04-23T08:33:51Z</time>
      </trkpt>
      <trkpt lat="45.29706" lon="6.93326">
        <ele>1643</ele>
        <time>2019-04-23T08:34:51Z</time>
      </trkpt>
      <trkpt lat="45.29694" lon="6.93332">
        <ele>1642</ele>
        <time>2019-04-23T08:35:51Z</time>
      </trkpt>
      <trkpt lat="45.29669" lon="6.93359">
        <ele>1641</ele>
        <time>2019-04-23T08:36:51Z</time>
      </trkpt>
      <trkpt lat="45.29636" lon="6.93412">
        <ele>1638</ele>
        <time>2019-04-23T08:37:51Z</time>
      </trkpt>
      <trkpt lat="45.29625" lon="6.93426">
        <ele>1636</ele>
        <time>2019-04-23T08:38:51Z</time>
      </trkpt>
      <trkpt lat="45.29604" lon="6.93434">
        <ele>1633</ele>
        <time>2019-04-23T08:39:51Z</time>
      </trkpt>
      <trkpt lat="45.29578" lon="6.93434">
        <ele>1628</ele>
        <time>2019-04-23T08:40:51Z</time>
      </trkpt>
      <trkpt lat="45.2954" lon="6.93407">
        <ele>1621</ele>
        <time>2019-04-23T08:41:51Z</time>
      </trkpt>
      <trkpt lat="45.29494" lon="6.93355">
        <ele>1616</ele>
        <time>2019-04-23T08:42:51Z</time>
      </trkpt>
      <trkpt lat="45.2948" lon="6.93335">
        <ele>1613</ele>
        <time>2019-04-23T08:43:51Z</time>
      </trkpt>
      <trkpt lat="45.29445" lon="6.93271">
        <ele>1606</ele>
        <time>2019-04-23T08:44:51Z</time>
      </trkpt>
      <trkpt lat="45.29388" lon="6.93131">
        <ele>1596</ele>
        <time>2019-04-23T08:45:51Z</time>
      </trkpt>
      <trkpt lat="45.29381" lon="6.93108">
        <ele>1594</ele>
        <time>2019-04-23T08:46:51Z</time>
      </trkpt>
      <trkpt lat="45.2937" lon="6.93046">
        <ele>1590</ele>
        <time>2019-04-23T08:47:51Z</time>
      </trkpt>
      <trkpt lat="45.29366" lon="6.93003">
        <ele>1590</ele>
        <time>2019-04-23T08:48:51Z</time>
      </trkpt>
      <trkpt lat="45.29365" lon="6.92971">
        <ele>1587</ele>
        <time>2019-04-23T08:49:51Z</time>
      </trkpt>
      <trkpt lat="45.29368" lon="6.92945">
        <ele>1587</ele>
        <time>2019-04-23T08:50:51Z</time>
      </trkpt>
      <trkpt lat="45.29373" lon="6.92926">
        <ele>1587</ele>
        <time>2019-04-23T08:51:51Z</time>
      </trkpt>
      <trkpt lat="45.29383" lon="6.92902">
        <ele>1586</ele>
        <time>2019-04-23T08:52:51Z</time>
      </trkpt>
      <trkpt lat="45.29447" lon="6.92801">
        <ele>1582</ele>
        <time>2019-04-23T08:53:51Z</time>
      </trkpt>
      <trkpt lat="45.2948" lon="6.92731">
        <ele>1583</ele>
        <time>2019-04-23T08:54:51Z</time>
      </trkpt>
      <trkpt lat="45.29483" lon="6.92716">
        <ele>1584</ele>
        <time>2019-04-23T08:55:51Z</time>
      </trkpt>
      <trkpt lat="45.29482" lon="6.92685">
        <ele>1582</ele>
        <time>2019-04-23T08:56:51Z</time>
      </trkpt>
      <trkpt lat="45.2948" lon="6.92667">
        <ele>1581</ele>
        <time>2019-04-23T08:57:51Z</time>
      </trkpt>
      <trkpt lat="45.29476" lon="6.92652">
        <ele>1580</ele>
        <time>2019-04-23T08:58:51Z</time>
      </trkpt>
      <trkpt lat="45.29472" lon="6.92647">
        <ele>1578</ele>
        <time>2019-04-23T08:59:51Z</time>
      </trkpt>
      <trkpt lat="45.29461" lon="6.92642">
        <ele>1574</ele>
        <time>2019-04-23T09:00:51Z</time>
      </trkpt>
      <trkpt lat="45.29433" lon="6.92654">
        <ele>1565</ele>
        <time>2019-04-23T09:01:51Z</time>
      </trkpt>
      <trkpt lat="45.29423" lon="6.92655">
        <ele>1562</ele>
        <time>2019-04-23T09:02:51Z</time>
      </trkpt>
      <trkpt lat="45.29414" lon="6.92649">
        <ele>1559</ele>
        <time>2019-04-23T09:03:51Z</time>
      </trkpt>
      <trkpt lat="45.29409" lon="6.92639">
        <ele>1558</ele>
        <time>2019-04-23T09:04:51Z</time>
      </trkpt>
      <trkpt lat="45.29406" lon="6.9263">
        <ele>1557</ele>
        <time>2019-04-23T09:05:51Z</time>
      </trkpt>
      <trkpt lat="45.29407" lon="6.9261">
        <ele>1556</ele>
        <time>2019-04-23T09:06:51Z</time>
      </trkpt>
      <trkpt lat="45.29419" lon="6.92565">
        <ele>1556</ele>
        <time>2019-04-23T09:07:51Z</time>
      </trkpt>
      <trkpt lat="45.29421" lon="6.92549">
        <ele>1556</ele>
        <time>2019-04-23T09:08:51Z</time>
      </trkpt>
      <trkpt lat="45.29417" lon="6.92493">
        <ele>1551</ele>
        <time>2019-04-23T09:09:51Z</time>
      </trkpt>
      <trkpt lat="45.29418" lon="6.92451">
        <ele>1551</ele>
        <time>2019-04-23T09:10:51Z</time>
      </trkpt>
      <trkpt lat="45.29417" lon="6.92445">
        <ele>1550</ele>
        <time>2019-04-23T09:11:51Z</time>
      </trkpt>
      <trkpt lat="45.29408" lon="6.92436">
        <ele>1548</ele>
        <time>2019-04-23T09:12:51Z</time>
      </trkpt>
      <trkpt lat="45.29402" lon="6.92435">
        <ele>1547</ele>
        <time>2019-04-23T09:13:51Z</time>
      </trkpt>
      <trkpt lat="45.29382" lon="6.9244">
        <ele>1543</ele>
        <time>2019-04-23T09:14:51Z</time>
      </trkpt>
      <trkpt lat="45.29369" lon="6.9244">
        <ele>1540</ele>
        <time>2019-04-23T09:15:51Z</time>
      </trkpt>
      <trkpt lat="45.2936" lon="6.92435">
        <ele>1538</ele>
        <time>2019-04-23T09:16:51Z</time>
      </trkpt>
      <trkpt lat="45.29345" lon="6.92416">
        <ele>1533</ele>
        <time>2019-04-23T09:17:51Z</time>
      </trkpt>
      <trkpt lat="45.29337" lon="6.92394">
        <ele>1530</ele>
        <time>2019-04-23T09:18:51Z</time>
      </trkpt>
      <trkpt lat="45.29335" lon="6.92375">
        <ele>1529</ele>
        <time>2019-04-23T09:19:51Z</time>
      </trkpt>
      <trkpt lat="45.29339" lon="6.92359">
        <ele>1529</ele>
        <time>2019-04-23T09:20:51Z</time>
      </trkpt>
      <trkpt lat="45.29367" lon="6.92281">
        <ele>1533</ele>
        <time>2019-04-23T09:21:51Z</time>
      </trkpt>
      <trkpt lat="45.29368" lon="6.92259">
        <ele>1532</ele>
        <time>2019-04-23T09:22:51Z</time>
      </trkpt>
      <trkpt lat="45.29366" lon="6.92252">
        <ele>1531</ele>
        <time>2019-04-23T09:23:51Z</time>
      </trkpt>
      <trkpt lat="45.29363" lon="6.92246">
        <ele>1530</ele>
        <time>2019-04-23T09:24:51Z</time>
      </trkpt>
      <trkpt lat="45.29354" lon="6.92242">
        <ele>1527</ele>
        <time>2019-04-23T09:25:51Z</time>
      </trkpt>
      <trkpt lat="45.29333" lon="6.92241">
        <ele>1519</ele>
        <time>2019-04-23T09:26:51Z</time>
      </trkpt>
      <trkpt lat="45.29329" lon="6.92238">
        <ele>1519</ele>
        <time>2019-04-23T09:27:51Z</time>
      </trkpt>
      <trkpt lat="45.29324" lon="6.92229">
        <ele>1518</ele>
        <time>2019-04-23T09:28:51Z</time>
      </trkpt>
      <trkpt lat="45.29316" lon="6.92185">
        <ele>1514</ele>
        <time>2019-04-23T09:29:51Z</time>
      </trkpt>
      <trkpt lat="45.29304" lon="6.92135">
        <ele>1509</ele>
        <time>2019-04-23T09:30:51Z</time>
      </trkpt>
      <trkpt lat="45.29294" lon="6.92112">
        <ele>1506</ele>
        <time>2019-04-23T09:31:51Z</time>
      </trkpt>
      <trkpt lat="45.29257" lon="6.92043">
        <ele>1500</ele>
        <time>2019-04-23T09:32:51Z</time>
      </trkpt>
      <trkpt lat="45.29214" lon="6.91987">
        <ele>1495</ele>
        <time>2019-04-23T09:33:51Z</time>
      </trkpt>
      <trkpt lat="45.29187" lon="6.91942">
        <ele>1489</ele>
        <time>2019-04-23T09:34:51Z</time>
      </trkpt>
      <trkpt lat="45.29172" lon="6.9191">
        <ele>1483</ele>
        <time>2019-04-23T09:35:51Z</time>
      </trkpt>
      <trkpt lat="45.29163" lon="6.91882">
        <ele>1481</ele>
        <time>2019-04-23T09:36:51Z</time>
      </trkpt>
      <trkpt lat="45.29158" lon="6.91856">
        <ele>1479</ele>
        <time>2019-04-23T09:37:51Z</time>
      </trkpt>
      <trkpt lat="45.2915" lon="6.9183">
        <ele>1477</ele>
        <time>2019-04-23T09:38:51Z</time>
      </trkpt>
      <trkpt lat="45.29149" lon="6.91822">
        <ele>1476</ele>
        <time>2019-04-23T09:39:51Z</time>
      </trkpt>
      <trkpt lat="45.29149" lon="6.91695">
        <ele>1473</ele>
        <time>2019-04-23T09:40:51Z</time>
      </trkpt>
      <trkpt lat="45.29141" lon="6.91631">
        <ele>1472</ele>
        <time>2019-04-23T09:41:51Z</time>
      </trkpt>
      <trkpt lat="45.29144" lon="6.91589">
        <ele>1471</ele>
        <time>2019-04-23T09:42:51Z</time>
      </trkpt>
      <trkpt lat="45.29143" lon="6.91579">
        <ele>1471</ele>
        <time>2019-04-23T09:43:51Z</time>
      </trkpt>
      <trkpt lat="45.29138" lon="6.91559">
        <ele>1471</ele>
        <time>2019-04-23T09:44:51Z</time>
      </trkpt>
      <trkpt lat="45.29123" lon="6.91515">
        <ele>1470</ele>
        <time>2019-04-23T09:45:51Z</time>
      </trkpt>
      <trkpt lat="45.29113" lon="6.91491">
        <ele>1470</ele>
        <time>2019-04-23T09:46:51Z</time>
      </trkpt>
      <trkpt lat="45.29051" lon="6.91389">
        <ele>1468</ele>
        <time>2019-04-23T09:47:51Z</time>
      </trkpt>
      <trkpt lat="45.29038" lon="6.91352">
        <ele>1467</ele>
        <time>2019-04-23T09:48:51Z</time>
      </trkpt>
      <trkpt lat="45.29033" lon="6.91328">
        <ele>1467</ele>
        <time>2019-04-23T09:49:51Z</time>
      </trkpt>
      <trkpt lat="45.29033" lon="6.9131">
        <ele>1467</ele>
        <time>2019-04-23T09:50:51Z</time>
      </trkpt>
      <trkpt lat="45.29035" lon="6.91278">
        <ele>1466</ele>
        <time>2019-04-23T09:51:51Z</time>
      </trkpt>
      <trkpt lat="45.2904" lon="6.91259">
        <ele>1466</ele>
        <time>2019-04-23T09:52:51Z</time>
      </trkpt>
      <trkpt lat="45.29041" lon="6.91245">
        <ele>1466</ele>
        <time>2019-04-23T09:53:51Z</time>
      </trkpt>
      <trkpt lat="45.2904" lon="6.90728">
        <ele>1460</ele>
        <time>2019-04-23T09:54:51Z</time>
      </trkpt>
      <trkpt lat="45.29036" lon="6.90688">
        <ele>1458</ele>
        <time>2019-04-23T09:55:51Z</time>
      </trkpt>
      <trkpt lat="45.29033" lon="6.90673">
        <ele>1457</ele>
        <time>2019-04-23T09:56:51Z</time>
      </trkpt>
      <trkpt lat="45.29022" lon="6.90643">
        <ele>1456</ele>
        <time>2019-04-23T09:57:51Z</time>
      </trkpt>
      <trkpt lat="45.28991" lon="6.90596">
        <ele>1455</ele>
        <time>2019-04-23T09:58:51Z</time>
      </trkpt>
      <trkpt lat="45.2895" lon="6.90529">
        <ele>1453</ele>
        <time>2019-04-23T09:59:51Z</time>
      </trkpt>
      <trkpt lat="45.28932" lon="6.90493">
        <ele>1451</ele>
        <time>2019-04-23T10:00:51Z</time>
      </trkpt>
      <trkpt lat="45.28846" lon="6.90289">
        <ele>1441</ele>
        <time>2019-04-23T10:01:51Z</time>
      </trkpt>
      <trkpt lat="45.2883" lon="6.90244">
        <ele>1438</ele>
        <time>2019-04-23T10:02:51Z</time>
      </trkpt>
      <trkpt lat="45.28832" lon="6.90237">
        <ele>1437</ele>
        <time>2019-04-23T10:03:51Z</time>
      </trkpt>
      <trkpt lat="45.28831" lon="6.90231">
        <ele>1436</ele>
        <time>2019-04-23T10:04:51Z</time>
      </trkpt>
      <trkpt lat="45.28827" lon="6.90226">
        <ele>1436</ele>
        <time>2019-04-23T10:05:51Z</time>
      </trkpt>
      <trkpt lat="45.28824" lon="6.90225">
        <ele>1436</ele>
        <time>2019-04-23T10:06:51Z</time>
      </trkpt>
      <trkpt lat="45.28822" lon="6.90221">
        <ele>1436</ele>
        <time>2019-04-23T10:07:51Z</time>
      </trkpt>
      <trkpt lat="45.28791" lon="6.90205">
        <ele>1437</ele>
        <time>2019-04-23T10:08:51Z</time>
      </trkpt>
      <trkpt lat="45.28765" lon="6.90173">
        <ele>1436</ele>
        <time>2019-04-23T10:09:51Z</time>
      </trkpt>
      <trkpt lat="45.28756" lon="6.90157">
        <ele>1435</ele>
        <time>2019-04-23T10:10:51Z</time>
      </trkpt>
      <trkpt lat="45.28742" lon="6.90122">
        <ele>1432</ele>
        <time>2019-04-23T10:11:51Z</time>
      </trkpt>
      <trkpt lat="45.28727" lon="6.90069">
        <ele>1428</ele>
        <time>2019-04-23T10:12:51Z</time>
      </trkpt>
      <trkpt lat="45.28696" lon="6.89941">
        <ele>1426</ele>
        <time>2019-04-23T10:13:51Z</time>
      </trkpt>
      <trkpt lat="45.28675" lon="6.89876">
        <ele>1424</ele>
        <time>2019-04-23T10:14:51Z</time>
      </trkpt>
      <trkpt lat="45.28654" lon="6.89832">
        <ele>1424</ele>
        <time>2019-04-23T10:15:51Z</time>
      </trkpt>
      <trkpt lat="45.2864" lon="6.89798">
        <ele>1426</ele>
        <time>2019-04-23T10:16:51Z</time>
      </trkpt>
      <trkpt lat="45.28628" lon="6.89752">
        <ele>1426</ele>
        <time>2019-04-23T10:17:51Z</time>
      </trkpt>
      <trkpt lat="45.28624" lon="6.89716">
        <ele>1426</ele>
        <time>2019-04-23T10:18:51Z</time>
      </trkpt>
      <trkpt lat="45.28623" lon="6.89676">
        <ele>1426</ele>
        <time>2019-04-23T10:19:51Z</time>
      </trkpt>
      <trkpt lat="45.28634" lon="6.89371">
        <ele>1421</ele>
        <time>2019-04-23T10:20:51Z</time>
      </trkpt>
      <trkpt lat="45.28632" lon="6.89291">
        <ele>1420</ele>
        <time>2019-04-23T10:21:51Z</time>
      </trkpt>
      <trkpt lat="45.28622" lon="6.89095">
        <ele>1417</ele>
        <time>2019-04-23T10:22:51Z</time>
      </trkpt>
      <trkpt lat="45.28612" lon="6.8896">
        <ele>1409</ele>
        <time>2019-04-23T10:23:51Z</time>
      </trkpt>
      <trkpt lat="45.28602" lon="6.88834">
        <ele>1403</ele>
        <time>2019-04-23T10:24:51Z</time>
      </trkpt>
      <trkpt lat="45.28574" lon="6.8854">
        <ele>1400</ele>
        <time>2019-04-23T10:25:51Z</time>
      </trkpt>
    </trkseg>
  </trk>
</gpx>